[[{"header":{"parameterUnit":"m.s-1","parameterCategory":1,"la1":31.0,"la2":29.5877,"lo1":-88.7671,"lo2":-86.6584,"dx":0.0162,"dy":0.0185,"nx":115,"ny":88,"refTime":"2023-01-28T18:00:00:Z","depth":0,"parameterNumber":2,"parameterNumberName":"U-component_of_WINDS"},"data":[0.0,0.0,0.0,0.0,0.0,0.0,0.0,0.0,0.0,0.0,0.0,0.0,0.0,0.0,0.0,0.0,0.0,0.0,0.0,0.0,0.0,0.0,0.0,0.0,0.0,0.0,0.0,0.0,0.0,0.0,0.0,0.0,0.0,0.0,0.0,0.0,0.0,0.0,0.0,0.0,0.0,0.0,0.0,0.0,0.0,0.0,0.0,0.0,0.0,0.0,0.0,0.0,0.0,0.0,0.0,0.0,0.0,0.0,0.0,0.0,0.0,0.0,0.0,0.0,0.0,0.0,0.0,0.0,0.0,0.0,0.0,0.0,0.0,0.0,0.0,0.0,0.0,0.0,0.0,0.0,0.0,0.0,0.0,0.0,0.0,0.0,0.0,0.0,0.0,0.0,0.0,0.0,0.0,0.0,0.0,0.0,0.0,0.0,0.0,0.0,0.0,0.0,0.0,0.0,0.0,0.0,0.0,0.0,0.0,0.0,0.0,0.0,0.0,0.0,0.0,0.0,0.0,0.0,0.0,0.0,0.0,0.0,0.0,0.0,0.0,0.0,0.0,0.0,0.0,0.0,0.0,0.0,0.0,0.0,0.0,0.0,0.0,0.0,0.0,0.0,0.0,0.0,0.0,0.0,0.0,0.0,0.0,0.0,0.0,0.0,0.0,0.0,0.0,0.0,0.0,0.0,0.0,0.0,0.0,0.0,0.0,0.0,0.0,0.0,0.0,0.0,0.0,0.0,0.0,0.0,0.0,0.0,0.0,0.0,0.0,0.0,0.0,0.0,0.0,0.0,0.0,0.0,0.0,0.0,0.0,0.0,0.0,0.0,0.0,0.0,0.0,0.0,0.0,0.0,0.0,0.0,0.0,0.0,0.0,0.0,0.0,0.0,0.0,0.0,0.0,0.0,0.0,0.0,0.0,0.0,0.0,0.0,0.0,0.0,0.0,0.0,0.0,0.0,0.0,0.0,0.0,0.0,0.0,0.0,0.0,0.0,0.0,0.0,0.0,0.0,0.0,0.0,0.0,0.0,0.0,0.0,0.0,0.0,0.0,0.0,0.0,0.0,0.0,0.0,0.0,0.0,0.0,0.0,0.0,0.0,0.0,0.0,0.0,0.0,0.0,0.0,0.0,0.0,0.0,0.0,0.0,0.0,0.0,0.0,0.0,0.0,0.0,0.0,0.0,0.0,0.0,0.0,0.0,0.0,0.0,0.0,0.0,0.0,0.0,0.0,0.0,0.0,0.0,0.0,0.0,0.0,0.0,0.0,0.0,0.0,0.0,0.0,0.0,0.0,0.0,0.0,0.0,0.0,0.0,0.0,0.0,0.0,0.0,0.0,0.0,0.0,0.0,0.0,0.0,0.0,0.0,0.0,0.0,0.0,0.0,0.0,0.0,0.0,0.0,0.0,0.0,0.0,0.0,0.0,0.0,0.0,0.0,0.0,0.0,0.0,0.0,0.0,0.0,0.0,0.0,0.0,0.0,0.0,0.0,0.0,0.0,0.0,0.0,0.0,0.0,0.0,0.0,0.0,0.0,0.0,0.0,0.0,0.0,0.0,0.0,0.0,0.0,0.0,0.0,0.0,0.0,0.0,0.0,0.0,0.0,0.0,0.0,0.0,0.0,0.0,0.0,0.0,0.0,0.0,0.0,0.0,0.0,0.0,0.0,0.0,0.0,0.0,0.0,0.0,0.0,0.0,0.0,0.0,0.0,0.0,0.0,0.0,0.0,0.0,0.0,0.0,0.0,0.0,0.0,0.0,0.0,0.0,0.0,0.0,0.0,0.0,0.0,0.0,0.0,0.0,0.0,0.0,0.0,0.0,0.0,0.0,0.0,0.0,0.0,0.0,0.0,0.0,0.0,0.0,0.0,0.0,0.0,0.0,0.0,0.0,0.0,0.0,0.0,0.0,0.0,0.0,0.0,0.0,0.0,0.0,0.0,0.0,0.0,0.0,0.0,0.0,0.0,0.0,0.0,0.0,0.0,0.0,0.0,0.0,0.0,0.0,0.0,0.0,0.0,0.0,0.0,0.0,0.0,0.0,0.0,0.0,0.0,0.0,0.0,0.0,0.0,0.0,0.0,0.0,0.0,0.0,0.0,0.0,0.0,0.0,0.0,0.0,0.0,0.0,0.0,0.0,0.0,0.0,0.0,0.0,0.0,0.0,0.0,0.0,0.0,0.0,0.0,0.0,0.0,0.0,0.0,0.0,0.0,0.0,0.0,0.0,0.0,0.0,0.0,0.0,0.0,0.0,0.0,0.0,0.0,0.0,0.0,0.0,0.0,0.0,0.0,0.0,0.0,0.0,0.0,0.0,0.0,0.0,0.0,0.0,0.0,0.0,0.0,0.0,0.0,0.0,0.0,0.0,0.0,0.0,0.0,0.0,0.0,0.0,0.0,0.0,0.0,0.0,0.0,0.0,0.0,0.0,0.0,0.0,0.0,0.0,0.0,0.0,0.0,0.0,0.0,0.0,0.0,0.0,0.0,0.0,0.0,0.0,0.0,0.0,0.0,0.0,0.0,0.0,0.0,0.0,0.0,0.0,0.0,0.0,0.0,0.0,0.0,0.0,0.0,0.0,0.0,0.0,0.0,0.0,0.0,0.0,0.0,0.0,0.0,0.0,0.0,0.0,0.0,0.0,0.0,0.0,0.0,0.0,0.0,0.0,0.0,0.0,0.0,0.0,0.0,0.0,0.0,0.0,0.0,0.0,0.0,0.0,0.0,0.0,0.0,0.0,0.0,0.0,0.0,0.0,0.0,0.0,0.0,0.0,0.0,0.0,0.0,0.0,0.0,0.0,0.0,0.0,0.0,0.0,0.0,0.0,0.0,0.0,0.0,0.0,0.0,0.0,0.0,0.0,0.0,0.0,0.0,0.0,0.0,0.0,0.0,0.0,0.0,0.0,0.0,0.0,0.0,0.0,0.0,0.0,0.0,0.0,0.0,0.0,0.0,0.0,0.0,0.0,0.0,0.0,0.0,0.0,0.0,0.0,0.0,0.0,0.0,0.0,0.0,0.0,0.0,0.0,0.0,0.0,0.0,0.0,0.0,0.0,0.0,0.0,0.0,0.0,0.0,0.0,0.0,0.0,0.0,0.0,0.0,0.0,0.0,0.0,0.0,0.0,0.0,0.0,0.0,0.0,0.0,0.0,0.0,0.0,0.0,0.0,0.0,0.0,0.0,0.0,0.0,0.0,0.0,0.0,0.0,0.0,0.0,0.0,0.0,0.0,0.0,0.0,0.0,0.0,0.0,0.0,0.0,0.0,0.0,0.0,0.0,0.0,0.0,0.0,0.0,0.0,0.0,0.0,0.0,0.0,0.0,0.0,0.0,0.0,0.0,0.0,0.0,0.0,0.0,0.0,0.0,0.0,0.0,0.0,0.0,0.0,0.0,0.0,0.0,0.0,0.0,0.0,0.0,0.0,0.0,0.0,0.0,0.0,0.0,0.0,0.0,0.0,0.0,0.0,0.0,0.0,0.0,0.0,0.0,0.0,0.0,0.0,0.0,0.0,0.0,0.0,0.0,0.0,0.0,0.0,0.0,0.0,0.0,0.0,0.0,0.0,0.0,0.0,0.0,0.0,0.0,0.0,0.0,0.0,0.0,0.0,0.0,0.0,0.0,0.0,0.0,0.0,0.0,0.0,0.0,0.0,0.0,0.0,0.0,0.0,0.0,0.0,0.0,0.0,0.0,0.0,0.0,0.0,0.0,0.0,0.0,0.0,0.0,0.0,0.0,0.0,0.0,0.0,0.0,0.0,0.0,0.0,0.0,0.0,0.0,0.0,0.0,0.0,0.0,0.0,0.0,0.0,0.0,0.0,0.0,0.0,0.0,0.0,0.0,0.0,0.0,0.0,0.0,0.0,0.0,0.0,0.0,0.0,0.0,0.0,0.0,0.0,0.0,0.0,0.0,0.0,0.0,0.0,0.0,0.0,0.0,0.0,0.0,0.0,0.0,0.0,0.0,0.0,0.0,0.0,0.0,0.0,0.0,0.0,0.0,0.0,0.0,0.0,0.0,0.0,0.0,0.0,0.0,0.0,0.0,0.0,0.0,0.0,0.0,0.0,0.0,0.0,0.0,0.0,0.0,0.0,0.0,0.0,0.0,0.0,0.0,0.0,0.0,0.0,0.0,0.0,0.0,0.0,0.0,0.0,0.0,0.0,0.0,0.0,0.0,0.0,0.0,0.0,0.0,0.0,0.0,0.0,0.0,0.0,0.0,0.0,0.0,0.0,0.0,0.0,0.0,0.0,-2.0419,0.0,0.0,0.0,0.0,0.0,0.0,0.0,0.0,0.0,0.0,0.0,0.0,0.0,0.0,0.0,0.0,0.0,0.0,0.0,0.0,0.0,0.0,0.0,0.0,0.0,0.0,0.0,0.0,0.0,0.0,0.0,0.0,0.0,0.0,0.0,0.0,0.0,0.0,0.0,0.0,0.0,0.0,0.0,0.0,0.0,0.0,0.0,0.0,0.0,0.0,0.0,0.0,0.0,0.0,0.0,0.0,0.0,0.0,0.0,0.0,0.0,0.0,0.0,0.0,0.0,0.0,0.0,0.0,0.0,0.0,0.0,0.0,0.0,0.0,0.0,0.0,0.0,0.0,0.0,0.0,0.0,0.0,0.0,0.0,0.0,0.0,0.0,0.0,0.0,0.0,0.0,0.0,0.0,0.0,0.0,0.0,0.0,0.0,0.0,0.0,0.0,0.0,0.0,0.0,0.0,0.0,0.0,0.0,0.0,0.0,-2.0019,-2.0015,-2.0315,-2.0461,-2.0443,0.0,0.0,0.0,0.0,0.0,0.0,0.0,0.0,0.0,0.0,0.0,0.0,0.0,0.0,0.0,0.0,0.0,0.0,0.0,0.0,0.0,0.0,0.0,0.0,0.0,0.0,0.0,0.0,0.0,0.0,0.0,0.0,0.0,0.0,0.0,0.0,0.0,0.0,0.0,0.0,0.0,0.0,0.0,0.0,0.0,0.0,0.0,0.0,0.0,0.0,0.0,0.0,0.0,0.0,0.0,0.0,0.0,0.0,0.0,0.0,0.0,0.0,0.0,0.0,0.0,0.0,0.0,0.0,0.0,0.0,0.0,0.0,0.0,0.0,0.0,0.0,0.0,0.0,0.0,0.0,0.0,0.0,0.0,0.0,0.0,0.0,0.0,0.0,0.0,0.0,0.0,0.0,0.0,0.0,0.0,0.0,0.0,0.0,0.0,0.0,0.0,0.0,0.0,0.0,0.0,0.0,0.0,0.0,0.0,0.0,0.0,0.0,-2.0539,-2.0646,-2.0978,0.0,0.0,0.0,0.0,0.0,0.0,0.0,0.0,0.0,0.0,0.0,0.0,0.0,0.0,0.0,0.0,0.0,0.0,0.0,0.0,0.0,0.0,0.0,0.0,0.0,0.0,0.0,0.0,0.0,0.0,0.0,0.0,0.0,0.0,0.0,0.0,0.0,0.0,0.0,0.0,0.0,0.0,0.0,0.0,0.0,0.0,0.0,0.0,0.0,0.0,0.0,0.0,0.0,0.0,0.0,0.0,0.0,0.0,0.0,0.0,0.0,0.0,0.0,0.0,0.0,0.0,0.0,0.0,0.0,0.0,0.0,0.0,0.0,0.0,0.0,0.0,0.0,0.0,0.0,0.0,0.0,0.0,0.0,0.0,0.0,0.0,0.0,0.0,0.0,0.0,0.0,0.0,0.0,0.0,0.0,0.0,0.0,0.0,0.0,0.0,0.0,0.0,0.0,0.0,0.0,0.0,0.0,0.0,0.0,0.0,-2.0599,-2.0605,-2.0545,0.0,-2.2548,0.0,0.0,0.0,0.0,0.0,0.0,0.0,0.0,0.0,0.0,0.0,0.0,0.0,0.0,0.0,0.0,0.0,0.0,0.0,0.0,0.0,0.0,0.0,0.0,0.0,0.0,0.0,0.0,0.0,0.0,0.0,0.0,0.0,0.0,0.0,0.0,0.0,0.0,0.0,0.0,0.0,0.0,0.0,0.0,0.0,0.0,0.0,0.0,0.0,0.0,0.0,0.0,0.0,0.0,0.0,0.0,0.0,0.0,0.0,0.0,0.0,0.0,0.0,0.0,0.0,0.0,0.0,0.0,0.0,0.0,0.0,0.0,0.0,0.0,0.0,0.0,0.0,0.0,0.0,0.0,0.0,0.0,0.0,0.0,0.0,0.0,0.0,0.0,0.0,0.0,0.0,0.0,0.0,0.0,0.0,0.0,0.0,0.0,0.0,0.0,0.0,0.0,0.0,0.0,0.0,0.0,0.0,0.0,0.0,0.0,-2.0551,-2.0599,-2.0545,-2.1267,0.0,0.0,0.0,0.0,0.0,0.0,0.0,0.0,0.0,0.0,0.0,0.0,0.0,0.0,0.0,0.0,0.0,0.0,0.0,0.0,0.0,0.0,0.0,0.0,0.0,0.0,0.0,0.0,0.0,0.0,0.0,0.0,0.0,0.0,0.0,0.0,0.0,0.0,0.0,0.0,0.0,0.0,0.0,0.0,0.0,0.0,0.0,0.0,0.0,0.0,0.0,0.0,0.0,0.0,0.0,0.0,0.0,0.0,0.0,0.0,0.0,0.0,0.0,0.0,0.0,0.0,0.0,0.0,0.0,0.0,0.0,0.0,0.0,0.0,0.0,0.0,0.0,0.0,0.0,0.0,0.0,0.0,0.0,0.0,0.0,0.0,0.0,0.0,0.0,0.0,0.0,0.0,0.0,0.0,0.0,0.0,0.0,0.0,0.0,0.0,0.0,0.0,0.0,0.0,0.0,0.0,0.0,0.0,0.0,0.0,-2.0514,-2.0543,-2.0597,-2.0565,-2.1313,-2.295,0.0,0.0,0.0,0.0,0.0,0.0,0.0,0.0,0.0,0.0,0.0,0.0,0.0,0.0,0.0,0.0,0.0,0.0,0.0,0.0,0.0,0.0,0.0,0.0,0.0,0.0,0.0,0.0,0.0,0.0,0.0,0.0,0.0,0.0,0.0,0.0,0.0,0.0,0.0,0.0,0.0,0.0,0.0,0.0,0.0,0.0,0.0,0.0,0.0,0.0,0.0,0.0,0.0,0.0,0.0,0.0,0.0,0.0,0.0,0.0,0.0,0.0,0.0,0.0,0.0,0.0,0.0,0.0,0.0,0.0,0.0,0.0,0.0,0.0,0.0,0.0,0.0,0.0,0.0,0.0,0.0,0.0,0.0,0.0,0.0,0.0,0.0,0.0,0.0,0.0,0.0,0.0,0.0,0.0,0.0,0.0,0.0,0.0,0.0,0.0,0.0,0.0,0.0,0.0,0.0,0.0,0.0,0.0,-2.0506,-2.0507,-2.0542,-2.0601,-2.0605,-2.1373,0.0,0.0,0.0,0.0,0.0,0.0,0.0,0.0,0.0,0.0,0.0,0.0,0.0,0.0,0.0,0.0,0.0,0.0,0.0,0.0,0.0,0.0,0.0,0.0,0.0,0.0,0.0,0.0,0.0,0.0,0.0,0.0,0.0,0.0,0.0,0.0,0.0,0.0,0.0,0.0,0.0,0.0,0.0,0.0,0.0,0.0,0.0,0.0,0.0,0.0,0.0,0.0,0.0,0.0,0.0,0.0,0.0,0.0,0.0,0.0,0.0,0.0,0.0,0.0,0.0,0.0,0.0,0.0,0.0,0.0,0.0,0.0,0.0,0.0,0.0,0.0,0.0,0.0,0.0,0.0,0.0,0.0,0.0,0.0,0.0,0.0,0.0,0.0,0.0,0.0,0.0,0.0,0.0,0.0,0.0,0.0,0.0,0.0,0.0,0.0,0.0,0.0,0.0,0.0,0.0,0.0,0.0,0.0,0.0,-2.0506,-2.0536,-2.0568,-2.06,-2.0605,-2.1379,0.0,0.0,0.0,0.0,0.0,0.0,0.0,0.0,0.0,0.0,0.0,0.0,0.0,0.0,0.0,0.0,0.0,0.0,0.0,0.0,0.0,0.0,0.0,0.0,0.0,0.0,0.0,0.0,0.0,0.0,0.0,0.0,0.0,0.0,0.0,0.0,0.0,0.0,0.0,0.0,0.0,0.0,0.0,0.0,0.0,0.0,0.0,0.0,0.0,0.0,0.0,0.0,0.0,0.0,0.0,0.0,0.0,0.0,0.0,0.0,0.0,0.0,0.0,0.0,0.0,0.0,0.0,0.0,0.0,0.0,0.0,0.0,0.0,0.0,0.0,0.0,0.0,0.0,0.0,0.0,0.0,0.0,0.0,0.0,0.0,0.0,0.0,0.0,0.0,0.0,0.0,0.0,0.0,0.0,0.0,0.0,0.0,0.0,0.0,0.0,0.0,0.0,0.0,0.0,0.0,0.0,0.0,0.0,0.0,-2.0514,0.0,-2.0594,-2.0601,-2.0605,-2.1381,0.0,0.0,0.0,0.0,0.0,0.0,0.0,0.0,0.0,0.0,0.0,0.0,0.0,0.0,0.0,0.0,0.0,0.0,0.0,0.0,0.0,0.0,0.0,0.0,0.0,0.0,0.0,0.0,0.0,0.0,0.0,0.0,0.0,0.0,0.0,0.0,0.0,0.0,0.0,0.0,0.0,0.0,0.0,0.0,0.0,0.0,0.0,0.0,0.0,0.0,0.0,0.0,0.0,0.0,0.0,0.0,0.0,0.0,0.0,0.0,0.0,0.0,0.0,0.0,0.0,0.0,0.0,0.0,0.0,0.0,0.0,0.0,0.0,0.0,0.0,0.0,0.0,0.0,0.0,0.0,0.0,0.0,0.0,0.0,0.0,0.0,0.0,0.0,0.0,0.0,0.0,0.0,0.0,0.0,0.0,0.0,0.0,0.0,0.0,0.0,0.0,0.0,0.0,0.0,0.0,0.0,0.0,0.0,-2.0501,-2.0508,-2.0573,-2.0599,-2.0605,-2.0605,-2.1381,0.0,0.0,0.0,0.0,0.0,0.0,0.0,0.0,0.0,0.0,0.0,0.0,0.0,0.0,0.0,0.0,0.0,0.0,0.0,0.0,0.0,0.0,0.0,0.0,0.0,0.0,0.0,0.0,0.0,0.0,0.0,0.0,0.0,0.0,0.0,0.0,0.0,0.0,0.0,0.0,0.0,0.0,0.0,0.0,0.0,0.0,0.0,0.0,0.0,0.0,0.0,0.0,0.0,0.0,0.0,0.0,0.0,0.0,0.0,0.0,0.0,0.0,0.0,0.0,0.0,0.0,0.0,0.0,0.0,0.0,0.0,0.0,0.0,0.0,0.0,0.0,0.0,0.0,0.0,0.0,0.0,0.0,0.0,0.0,0.0,0.0,0.0,0.0,0.0,0.0,0.0,0.0,0.0,0.0,0.0,0.0,0.0,0.0,0.0,0.0,0.0,0.0,0.0,0.0,0.0,0.0,0.0,0.0,0.0,-2.0576,-2.0601,-2.0605,-2.0604,-2.0603,-2.1394,0.0,0.0,0.0,0.0,0.0,0.0,0.0,0.0,0.0,0.0,0.0,0.0,0.0,0.0,0.0,0.0,0.0,0.0,0.0,0.0,0.0,0.0,0.0,0.0,0.0,0.0,0.0,0.0,0.0,0.0,0.0,0.0,0.0,0.0,0.0,0.0,0.0,0.0,0.0,0.0,0.0,0.0,0.0,0.0,0.0,0.0,0.0,0.0,0.0,0.0,0.0,0.0,0.0,0.0,0.0,0.0,0.0,0.0,0.0,0.0,0.0,0.0,0.0,0.0,0.0,0.0,0.0,0.0,0.0,0.0,0.0,0.0,0.0,0.0,0.0,0.0,0.0,0.0,0.0,0.0,0.0,0.0,0.0,0.0,0.0,0.0,0.0,0.0,0.0,0.0,0.0,0.0,0.0,0.0,0.0,0.0,0.0,0.0,0.0,0.0,0.0,0.0,0.0,0.0,0.0,0.0,0.0,0.0,0.0,-2.0605,-2.0605,-2.0585,-2.0576,-2.0574,-2.1343,-2.2985,0.0,0.0,0.0,0.0,0.0,0.0,0.0,0.0,0.0,0.0,0.0,0.0,0.0,0.0,0.0,0.0,0.0,0.0,0.0,0.0,0.0,0.0,0.0,0.0,0.0,0.0,0.0,0.0,0.0,0.0,0.0,0.0,0.0,0.0,0.0,0.0,0.0,0.0,0.0,0.0,0.0,0.0,0.0,0.0,0.0,0.0,0.0,0.0,0.0,0.0,0.0,0.0,0.0,0.0,0.0,0.0,0.0,0.0,0.0,0.0,0.0,0.0,0.0,0.0,0.0,0.0,0.0,0.0,0.0,0.0,0.0,0.0,0.0,0.0,0.0,0.0,0.0,0.0,0.0,0.0,0.0,0.0,0.0,0.0,0.0,0.0,0.0,0.0,0.0,0.0,0.0,0.0,0.0,0.0,0.0,0.0,0.0,0.0,0.0,0.0,0.0,0.0,0.0,0.0,0.0,0.0,0.0,0.0,-2.0601,-2.0603,-2.0578,-2.0517,-2.0554,-2.1318,0.0,0.0,0.0,0.0,0.0,0.0,0.0,0.0,0.0,0.0,0.0,0.0,0.0,0.0,0.0,0.0,0.0,0.0,0.0,0.0,0.0,0.0,0.0,0.0,0.0,0.0,0.0,0.0,0.0,0.0,0.0,0.0,0.0,0.0,0.0,0.0,0.0,0.0,0.0,0.0,0.0,0.0,0.0,0.0,0.0,0.0,0.0,0.0,0.0,0.0,0.0,0.0,0.0,0.0,0.0,0.0,0.0,0.0,0.0,0.0,0.0,0.0,0.0,0.0,0.0,0.0,0.0,0.0,0.0,0.0,0.0,0.0,0.0,0.0,0.0,0.0,0.0,0.0,0.0,0.0,0.0,0.0,0.0,0.0,0.0,0.0,0.0,0.0,0.0,0.0,0.0,0.0,0.0,0.0,0.0,0.0,0.0,0.0,0.0,0.0,0.0,0.0,0.0,0.0,0.0,0.0,0.0,0.0,0.0,-2.0596,-2.0548,-2.0515,-2.0515,-2.1126,-2.1941,0.0,0.0,0.0,0.0,0.0,0.0,0.0,0.0,0.0,0.0,0.0,0.0,0.0,0.0,0.0,0.0,0.0,0.0,0.0,0.0,0.0,0.0,0.0,0.0,0.0,0.0,0.0,0.0,0.0,0.0,0.0,0.0,0.0,0.0,0.0,0.0,0.0,0.0,0.0,0.0,0.0,0.0,0.0,0.0,0.0,0.0,0.0,0.0,0.0,0.0,0.0,0.0,0.0,0.0,0.0,0.0,0.0,0.0,0.0,0.0,0.0,0.0,0.0,0.0,0.0,0.0,0.0,0.0,0.0,0.0,0.0,0.0,0.0,0.0,0.0,0.0,0.0,0.0,0.0,0.0,0.0,0.0,0.0,0.0,0.0,0.0,0.0,0.0,0.0,0.0,0.0,0.0,0.0,0.0,0.0,0.0,0.0,0.0,0.0,0.0,0.0,0.0,0.0,0.0,0.0,0.0,0.0,0.0,-2.0603,-2.0594,-2.0536,-2.0511,-2.0508,-2.1325,-2.2138,0.0,0.0,0.0,0.0,0.0,0.0,0.0,0.0,0.0,0.0,0.0,0.0,0.0,0.0,0.0,0.0,0.0,0.0,0.0,0.0,0.0,0.0,0.0,0.0,0.0,0.0,0.0,0.0,0.0,0.0,0.0,0.0,0.0,0.0,0.0,0.0,0.0,0.0,0.0,0.0,0.0,0.0,0.0,0.0,0.0,0.0,0.0,0.0,0.0,0.0,0.0,0.0,0.0,0.0,0.0,0.0,0.0,0.0,0.0,0.0,0.0,0.0,0.0,0.0,0.0,0.0,0.0,0.0,0.0,0.0,0.0,0.0,0.0,0.0,0.0,0.0,0.0,0.0,0.0,0.0,0.0,0.0,0.0,0.0,0.0,0.0,0.0,0.0,0.0,0.0,0.0,0.0,0.0,0.0,0.0,0.0,0.0,0.0,0.0,0.0,0.0,0.0,0.0,0.0,0.0,0.0,0.0,0.0,-2.0599,-2.0593,-2.0533,-2.0501,-2.0538,-2.1371,-2.2161,0.0,0.0,0.0,0.0,0.0,0.0,0.0,0.0,0.0,0.0,0.0,0.0,0.0,0.0,0.0,0.0,0.0,0.0,0.0,0.0,0.0,0.0,0.0,0.0,0.0,0.0,0.0,0.0,0.0,0.0,0.0,0.0,0.0,0.0,0.0,0.0,0.0,0.0,0.0,0.0,0.0,0.0,0.0,0.0,0.0,0.0,0.0,0.0,0.0,0.0,0.0,0.0,0.0,0.0,0.0,0.0,0.0,0.0,0.0,0.0,0.0,0.0,0.0,0.0,0.0,0.0,0.0,0.0,0.0,0.0,0.0,0.0,0.0,0.0,0.0,0.0,0.0,0.0,0.0,0.0,0.0,0.0,0.0,0.0,0.0,0.0,0.0,0.0,0.0,0.0,0.0,0.0,0.0,0.0,0.0,0.0,0.0,0.0,0.0,0.0,0.0,0.0,0.0,0.0,0.0,0.0,0.0,0.0,-2.0602,-2.0594,-2.0547,-2.0513,-2.0499,-2.1962,-2.2782,0.0,0.0,0.0,0.0,0.0,0.0,0.0,0.0,0.0,0.0,0.0,0.0,0.0,0.0,0.0,0.0,0.0,0.0,0.0,0.0,0.0,0.0,0.0,0.0,0.0,0.0,0.0,0.0,0.0,0.0,0.0,0.0,0.0,0.0,0.0,0.0,0.0,0.0,0.0,0.0,0.0,0.0,0.0,0.0,0.0,0.0,0.0,0.0,-2.4714,0.0,0.0,0.0,0.0,0.0,0.0,0.0,0.0,0.0,0.0,0.0,0.0,0.0,0.0,0.0,0.0,0.0,0.0,0.0,0.0,0.0,0.0,0.0,0.0,0.0,0.0,0.0,0.0,0.0,0.0,0.0,0.0,0.0,0.0,0.0,0.0,0.0,0.0,0.0,0.0,0.0,0.0,0.0,0.0,0.0,0.0,0.0,0.0,0.0,0.0,0.0,0.0,0.0,0.0,0.0,0.0,0.0,0.0,0.0,-2.0604,-2.0538,-2.0512,-2.0517,-2.0543,-2.1734,-2.2553,0.0,0.0,0.0,0.0,0.0,0.0,0.0,0.0,0.0,0.0,0.0,0.0,0.0,0.0,0.0,0.0,0.0,0.0,0.0,0.0,0.0,0.0,0.0,0.0,0.0,0.0,0.0,0.0,0.0,0.0,0.0,0.0,0.0,0.0,0.0,0.0,0.0,0.0,0.0,0.0,0.0,0.0,0.0,0.0,0.0,0.0,0.0,0.0,0.0,0.0,0.0,0.0,0.0,0.0,0.0,0.0,0.0,0.0,0.0,0.0,0.0,0.0,0.0,0.0,0.0,0.0,0.0,0.0,0.0,0.0,0.0,0.0,0.0,0.0,0.0,0.0,0.0,0.0,0.0,0.0,0.0,0.0,0.0,0.0,0.0,0.0,0.0,0.0,0.0,0.0,0.0,0.0,0.0,0.0,0.0,0.0,0.0,0.0,0.0,0.0,0.0,0.0,0.0,0.0,0.0,0.0,0.0,-2.1013,-2.0566,-2.0521,-2.05,-2.0508,-2.0513,-2.1148,-2.197,-2.2894,0.0,0.0,0.0,0.0,0.0,0.0,0.0,0.0,0.0,0.0,0.0,0.0,0.0,0.0,0.0,0.0,0.0,0.0,0.0,0.0,0.0,0.0,0.0,0.0,0.0,0.0,0.0,0.0,0.0,0.0,0.0,0.0,0.0,0.0,0.0,0.0,0.0,0.0,-2.5384,-2.5388,0.0,0.0,0.0,0.0,0.0,0.0,0.0,0.0,-2.4715,0.0,0.0,0.0,0.0,0.0,0.0,0.0,0.0,0.0,0.0,0.0,0.0,0.0,0.0,0.0,0.0,0.0,0.0,0.0,0.0,0.0,0.0,0.0,0.0,0.0,0.0,0.0,0.0,0.0,0.0,0.0,0.0,0.0,0.0,0.0,0.0,0.0,0.0,0.0,0.0,0.0,0.0,0.0,0.0,0.0,0.0,0.0,0.0,0.0,0.0,0.0,0.0,0.0,0.0,0.0,0.0,-2.1795,-2.1008,-2.0605,-2.0582,-2.0527,-2.0501,-2.0506,-2.0627,-2.1417,-2.2914,0.0,0.0,0.0,0.0,0.0,0.0,0.0,0.0,0.0,0.0,0.0,0.0,0.0,0.0,0.0,0.0,0.0,0.0,0.0,0.0,0.0,0.0,0.0,0.0,0.0,0.0,0.0,0.0,0.0,0.0,0.0,0.0,0.0,0.0,0.0,0.0,0.0,0.0,0.0,-2.5393,-2.538,0.0,0.0,0.0,0.0,0.0,0.0,0.0,0.0,-2.4772,0.0,0.0,0.0,0.0,0.0,0.0,0.0,0.0,0.0,0.0,0.0,0.0,0.0,0.0,0.0,0.0,0.0,0.0,0.0,0.0,0.0,0.0,0.0,0.0,0.0,0.0,0.0,0.0,0.0,0.0,0.0,0.0,0.0,0.0,0.0,0.0,0.0,0.0,0.0,0.0,0.0,0.0,0.0,0.0,0.0,0.0,0.0,0.0,0.0,0.0,0.0,0.0,0.0,0.0,0.0,-2.2426,-2.1218,-2.0565,-2.0604,-2.0532,-2.0509,-2.0508,-2.0509,-2.1308,0.0,0.0,0.0,0.0,0.0,0.0,0.0,0.0,0.0,0.0,0.0,0.0,0.0,0.0,0.0,0.0,0.0,0.0,0.0,0.0,0.0,0.0,0.0,0.0,0.0,0.0,0.0,0.0,0.0,0.0,0.0,0.0,0.0,0.0,0.0,0.0,0.0,0.0,0.0,0.0,-2.5395,-2.538,-2.5391,0.0,0.0,0.0,0.0,0.0,0.0,-2.49,-2.4891,0.0,0.0,0.0,0.0,0.0,0.0,0.0,0.0,0.0,0.0,0.0,0.0,0.0,0.0,0.0,0.0,0.0,0.0,0.0,0.0,0.0,0.0,0.0,0.0,0.0,0.0,0.0,0.0,0.0,0.0,0.0,0.0,0.0,0.0,0.0,0.0,0.0,0.0,0.0,0.0,0.0,0.0,0.0,0.0,0.0,0.0,0.0,0.0,0.0,0.0,0.0,0.0,0.0,0.0,0.0,-2.3058,-2.1544,-2.0699,-2.0605,-2.0538,-2.05,-2.0507,-2.051,-2.1313,0.0,0.0,0.0,0.0,0.0,0.0,0.0,0.0,0.0,0.0,0.0,0.0,0.0,0.0,0.0,0.0,0.0,0.0,0.0,0.0,0.0,0.0,0.0,0.0,0.0,0.0,0.0,0.0,0.0,0.0,0.0,0.0,0.0,0.0,0.0,0.0,0.0,0.0,0.0,0.0,0.0,-2.5432,-2.5427,-2.5415,0.0,0.0,0.0,0.0,-2.5093,-2.5037,0.0,0.0,0.0,0.0,0.0,0.0,0.0,0.0,0.0,0.0,0.0,0.0,0.0,0.0,0.0,0.0,0.0,0.0,0.0,0.0,0.0,0.0,0.0,0.0,0.0,0.0,0.0,0.0,0.0,0.0,0.0,0.0,0.0,0.0,0.0,0.0,0.0,0.0,0.0,0.0,0.0,0.0,0.0,0.0,0.0,0.0,0.0,0.0,0.0,0.0,0.0,0.0,0.0,0.0,0.0,0.0,-2.3097,-2.2158,-2.1317,-2.0643,-2.0604,-2.0555,-2.0517,-2.0514,-2.1318,0.0,0.0,0.0,0.0,0.0,0.0,0.0,0.0,0.0,0.0,0.0,0.0,0.0,0.0,0.0,0.0,0.0,0.0,0.0,0.0,0.0,0.0,0.0,0.0,0.0,0.0,0.0,0.0,0.0,0.0,0.0,0.0,0.0,0.0,0.0,0.0,0.0,0.0,0.0,0.0,0.0,-2.5488,-2.5488,-2.5488,-2.5457,0.0,0.0,-2.5284,-2.5276,-2.5228,0.0,0.0,0.0,0.0,0.0,0.0,0.0,0.0,0.0,0.0,0.0,0.0,0.0,0.0,0.0,0.0,0.0,0.0,0.0,0.0,0.0,0.0,0.0,0.0,0.0,0.0,0.0,0.0,0.0,0.0,0.0,0.0,0.0,0.0,0.0,0.0,0.0,0.0,0.0,0.0,0.0,0.0,0.0,0.0,0.0,0.0,0.0,0.0,0.0,0.0,0.0,0.0,0.0,0.0,0.0,-2.3928,-2.3108,-2.2252,-2.1411,-2.0642,-2.0605,-2.0599,-2.0573,-2.0505,-2.1312,0.0,0.0,0.0,0.0,0.0,0.0,0.0,0.0,0.0,0.0,0.0,0.0,0.0,0.0,0.0,0.0,0.0,0.0,0.0,0.0,0.0,0.0,0.0,0.0,0.0,0.0,0.0,0.0,0.0,0.0,0.0,0.0,0.0,0.0,0.0,0.0,0.0,0.0,0.0,0.0,0.0,0.0,-2.5517,-2.5508,0.0,0.0,0.0,-2.5386,-2.5355,0.0,0.0,0.0,0.0,0.0,0.0,0.0,0.0,0.0,0.0,0.0,0.0,0.0,0.0,0.0,0.0,0.0,0.0,0.0,0.0,0.0,0.0,0.0,0.0,0.0,0.0,0.0,0.0,0.0,0.0,0.0,0.0,0.0,0.0,0.0,0.0,0.0,0.0,0.0,0.0,0.0,0.0,0.0,0.0,0.0,0.0,0.0,0.0,0.0,0.0,0.0,0.0,0.0,0.0,0.0,0.0,0.0,-2.341,-2.256,-2.1721,-2.0932,-2.0684,-2.0603,-2.0599,-2.0765,0.0,0.0,0.0,0.0,0.0,0.0,0.0,0.0,0.0,0.0,0.0,0.0,0.0,0.0,0.0,0.0,0.0,0.0,0.0,0.0,0.0,0.0,0.0,0.0,0.0,0.0,0.0,-2.4749,0.0,0.0,0.0,0.0,0.0,0.0,0.0,0.0,0.0,0.0,0.0,0.0,0.0,0.0,-2.5517,-2.5525,-2.5541,-2.5508,0.0,0.0,-2.5505,-2.5422,-2.5417,-2.5397,0.0,0.0,0.0,0.0,0.0,0.0,0.0,0.0,0.0,0.0,0.0,0.0,0.0,0.0,0.0,0.0,0.0,0.0,0.0,0.0,0.0,0.0,0.0,0.0,0.0,0.0,0.0,0.0,0.0,0.0,0.0,0.0,0.0,0.0,0.0,0.0,0.0,0.0,0.0,0.0,0.0,0.0,0.0,0.0,0.0,0.0,0.0,0.0,0.0,0.0,0.0,0.0,0.0,0.0,0.0,-2.4218,-2.3428,-2.2592,-2.1729,-2.0994,-2.0605,-2.062,-2.1379,-2.2212,0.0,0.0,0.0,0.0,0.0,0.0,0.0,0.0,0.0,0.0,0.0,0.0,0.0,0.0,0.0,0.0,0.0,0.0,0.0,0.0,0.0,0.0,0.0,0.0,0.0,0.0,0.0,0.0,0.0,0.0,0.0,0.0,0.0,0.0,0.0,0.0,0.0,0.0,0.0,0.0,0.0,-2.5525,-2.5592,-2.559,-2.5585,0.0,0.0,-2.5573,-2.5515,-2.5483,-2.5472,-2.5391,0.0,0.0,0.0,0.0,0.0,0.0,0.0,0.0,0.0,0.0,0.0,0.0,0.0,0.0,0.0,0.0,0.0,0.0,0.0,0.0,0.0,0.0,0.0,0.0,0.0,0.0,0.0,0.0,0.0,0.0,0.0,0.0,0.0,0.0,0.0,0.0,0.0,0.0,0.0,0.0,0.0,0.0,0.0,0.0,0.0,0.0,0.0,0.0,0.0,0.0,0.0,0.0,0.0,-2.5198,-2.4374,-2.4078,-2.3237,-2.1945,-2.2048,-2.1894,-2.1405,-2.2224,-2.302,0.0,0.0,0.0,0.0,0.0,0.0,0.0,0.0,0.0,0.0,0.0,0.0,0.0,0.0,0.0,0.0,0.0,0.0,0.0,0.0,0.0,0.0,0.0,0.0,0.0,0.0,0.0,0.0,-2.4827,-2.4877,-2.4964,0.0,0.0,0.0,0.0,0.0,0.0,0.0,0.0,0.0,0.0,-2.5512,-2.5587,-2.5609,0.0,0.0,-2.561,-2.5612,-2.5556,-2.5557,-2.5547,-2.5476,-2.5412,0.0,0.0,0.0,0.0,0.0,0.0,0.0,0.0,0.0,0.0,0.0,0.0,0.0,0.0,0.0,0.0,0.0,0.0,0.0,0.0,0.0,0.0,0.0,0.0,0.0,0.0,0.0,0.0,0.0,0.0,0.0,0.0,0.0,0.0,0.0,0.0,0.0,0.0,0.0,0.0,0.0,0.0,0.0,0.0,0.0,0.0,0.0,0.0,0.0,0.0,0.0,0.0,-2.5344,-2.4812,-2.4532,-2.3843,-2.2685,-2.2945,-2.2831,-2.2305,-2.3046,-2.3766,0.0,0.0,0.0,0.0,0.0,0.0,0.0,0.0,0.0,0.0,0.0,0.0,0.0,0.0,0.0,0.0,0.0,0.0,0.0,0.0,0.0,0.0,0.0,0.0,0.0,0.0,0.0,0.0,-2.4938,-2.4972,-2.503,0.0,0.0,0.0,0.0,0.0,0.0,0.0,0.0,0.0,0.0,-2.5502,-2.5587,-2.5608,-2.5641,-2.5632,-2.5632,-2.5641,-2.5632,-2.5615,-2.5573,-2.5538,0.0,0.0,0.0,0.0,0.0,0.0,0.0,0.0,0.0,0.0,0.0,0.0,0.0,0.0,0.0,0.0,0.0,0.0,0.0,0.0,0.0,0.0,0.0,0.0,0.0,0.0,0.0,0.0,0.0,0.0,0.0,0.0,0.0,0.0,0.0,0.0,0.0,0.0,0.0,0.0,0.0,0.0,0.0,0.0,0.0,0.0,0.0,0.0,0.0,0.0,0.0,0.0,0.0,0.0,-2.5642,-2.4828,-2.4392,-2.4301,-2.3544,-2.3141,-2.3105,-2.3925,-2.4392,-2.4408,0.0,0.0,0.0,0.0,0.0,0.0,0.0,0.0,0.0,0.0,0.0,0.0,0.0,0.0,0.0,0.0,0.0,0.0,0.0,0.0,0.0,0.0,0.0,0.0,0.0,0.0,-2.4994,-2.5057,-2.5095,0.0,0.0,0.0,0.0,0.0,0.0,0.0,0.0,0.0,0.0,-2.5509,-2.5523,-2.5578,-2.5652,-2.5701,-2.5691,-2.5703,-2.5699,-2.5695,-2.5627,-2.5601,0.0,0.0,0.0,0.0,0.0,0.0,0.0,0.0,0.0,0.0,0.0,0.0,0.0,0.0,0.0,0.0,0.0,0.0,0.0,0.0,0.0,0.0,0.0,0.0,0.0,0.0,0.0,-2.5836,-2.6316,0.0,0.0,0.0,0.0,0.0,0.0,0.0,0.0,0.0,0.0,0.0,-2.817,-2.7621,0.0,0.0,0.0,0.0,0.0,0.0,0.0,0.0,0.0,0.0,0.0,0.0,-2.5702,-2.5687,-2.5402,-2.4978,-2.4436,-2.4676,-2.4545,-2.3983,-2.4804,-2.5254,-2.5253,0.0,0.0,0.0,0.0,0.0,0.0,0.0,0.0,0.0,0.0,0.0,0.0,0.0,0.0,0.0,0.0,0.0,0.0,0.0,0.0,0.0,0.0,0.0,0.0,0.0,-2.5164,0.0,0.0,0.0,0.0,0.0,0.0,0.0,0.0,0.0,0.0,0.0,-2.5492,-2.5489,-2.5538,-2.5571,-2.561,-2.5624,-2.5636,0.0,0.0,0.0,0.0,0.0,0.0,0.0,0.0,0.0,0.0,0.0,0.0,0.0,0.0,-2.5162,-2.5019,-2.5389,-2.5804,-2.6012,0.0,0.0,0.0,0.0,0.0,0.0,0.0,0.0,0.0,0.0,0.0,0.0,0.0,0.0,0.0,0.0,-2.6041,0.0,0.0,0.0,0.0,0.0,0.0,0.0,0.0,-2.7281,-2.7298,-2.7279,-2.6692,-2.6484,0.0,-2.7146,-2.8018,0.0,0.0,0.0,0.0,0.0,0.0,0.0,0.0,-2.5696,-2.5699,-2.5701,-2.5431,-2.4908,-2.5399,-2.5423,-2.4881,-2.539,-2.5703,-2.5703,-2.5703,-2.5702,0.0,0.0,0.0,0.0,0.0,0.0,0.0,0.0,0.0,0.0,0.0,0.0,0.0,0.0,0.0,0.0,0.0,0.0,0.0,0.0,0.0,0.0,0.0,-2.5297,0.0,0.0,0.0,0.0,0.0,0.0,0.0,0.0,0.0,-2.5432,-2.5476,-2.5517,-2.5535,-2.5568,-2.5595,-2.5641,0.0,0.0,0.0,0.0,0.0,0.0,0.0,-2.5701,-2.5637,-2.5636,-2.5629,-2.56,-2.5537,-2.5479,-2.5444,0.0,0.0,-2.5519,-2.5894,-2.6389,-2.69,-2.7794,-2.8545,-2.881,-2.8614,-2.8164,0.0,0.0,0.0,0.0,0.0,0.0,0.0,0.0,-2.5391,-2.5468,0.0,-2.6348,0.0,0.0,0.0,0.0,0.0,0.0,0.0,0.0,-2.5659,-2.5618,-2.5627,-2.5668,-2.5684,-2.585,-2.7506,-2.8358,-2.8424,-2.9238,0.0,0.0,0.0,0.0,0.0,0.0,-2.5699,-2.5701,-2.5705,-2.569,-2.5674,-2.5694,-2.5698,-2.5683,-2.5683,-2.5702,-2.5703,-2.5703,-2.5721,-2.5759,-2.6548,0.0,0.0,0.0,0.0,0.0,0.0,0.0,0.0,0.0,0.0,0.0,0.0,0.0,0.0,0.0,0.0,0.0,0.0,0.0,0.0,-2.5445,0.0,0.0,0.0,0.0,0.0,0.0,0.0,0.0,0.0,0.0,-2.5496,-2.5505,-2.5531,-2.5596,0.0,0.0,0.0,0.0,-2.5698,-2.5699,-2.5699,-2.5699,-2.5699,-2.5699,-2.5699,-2.5699,0.0,0.0,-2.5613,-2.5543,-2.5522,-2.5519,-2.6072,-2.6556,-2.6462,-2.6454,-2.6909,-2.8309,-2.8631,-2.8885,-2.9454,-2.8986,-2.8199,-2.4954,0.0,0.0,0.0,0.0,-2.5361,-2.5388,-2.5388,-2.5382,-2.6062,-2.7166,-2.6847,0.0,0.0,0.0,0.0,0.0,0.0,-2.62,-2.5621,-2.561,-2.5607,-2.563,-2.624,-2.6567,-2.6687,-2.834,-2.9171,-2.9262,-3.011,-2.9784,-2.83,0.0,0.0,0.0,0.0,-2.569,-2.569,-2.5691,-2.5694,-2.5698,-2.5699,-2.57,-2.5702,-2.5703,-2.5703,-2.5703,-2.5703,-2.5976,-2.66,-2.6851,0.0,0.0,0.0,0.0,0.0,0.0,0.0,0.0,0.0,0.0,0.0,0.0,0.0,0.0,0.0,0.0,0.0,0.0,0.0,-2.5568,-2.5518,-2.5461,0.0,0.0,0.0,0.0,0.0,0.0,0.0,0.0,0.0,-2.5567,-2.5567,-2.5568,0.0,0.0,-2.563,-2.5701,-2.5694,-2.5705,-2.5698,0.0,0.0,0.0,-2.569,-2.569,-2.569,-2.5702,-2.5686,-2.5621,-2.5576,-2.5554,-2.5464,-2.6062,-2.6745,-2.7247,-2.7758,-2.8215,-2.8711,-2.9115,-2.9487,-2.9668,-2.9096,-2.842,-2.5539,-2.5963,-2.5729,-2.5648,-2.5721,-2.6161,-2.6351,-2.6361,-2.6372,-2.6959,-2.7865,-2.7402,-2.7745,-2.8671,-2.8231,0.0,0.0,0.0,-2.7094,-2.6623,-2.6629,-2.6626,-2.6666,-2.716,-2.7446,-2.7539,-2.8861,-2.9518,-2.9585,-3.0432,-3.0168,-2.8827,0.0,0.0,-2.6734,-2.6401,-2.6224,-2.6205,-2.5872,-2.5698,-2.5701,-2.5702,-2.5702,-2.5703,-2.5703,-2.5703,-2.5703,-2.6035,-2.6464,-2.6972,-2.7674,-2.8278,0.0,0.0,0.0,0.0,0.0,0.0,0.0,0.0,0.0,0.0,0.0,-2.7354,0.0,0.0,0.0,0.0,-2.5636,-2.5642,-2.5649,-2.5571,0.0,0.0,0.0,0.0,0.0,0.0,0.0,-2.596,-2.5719,-2.5567,-2.5601,-2.5604,-2.5609,-2.5639,-2.5636,-2.5648,-2.5696,0.0,-2.5692,-2.5702,-2.5705,-2.5688,-2.5691,-2.5692,-2.5693,-2.5691,-2.5698,-2.5676,-2.5613,-2.5585,-2.5635,-2.5901,-2.6506,-2.7278,-2.8045,-2.8746,-2.9247,-2.9247,-2.9542,-2.9789,-2.9763,-2.9349,-2.8916,-2.665,-2.7437,-2.6761,-2.6511,-2.658,-2.7425,-2.7792,-2.7796,-2.786,-2.7948,-2.7992,-2.8011,-2.8047,-2.8121,-2.8247,0.0,0.0,-2.8209,-2.8197,-2.8193,-2.8193,-2.8207,-2.8196,-2.8255,-2.8298,-2.8308,-2.9191,-2.9609,-2.967,-3.0405,-3.0416,-2.9722,-2.9706,-2.9219,-2.83,-2.7498,-2.7107,-2.7107,-2.6325,-2.5916,-2.5898,-2.5918,-2.5898,-2.5918,-2.5918,-2.5918,-2.5937,-2.668,-2.7129,-2.7265,-2.875,-2.9628,-2.9724,0.0,0.0,0.0,0.0,0.0,0.0,0.0,0.0,0.0,0.0,0.0,0.0,0.0,0.0,0.0,-2.5735,0.0,-2.5802,-2.5749,0.0,0.0,0.0,-2.6803,-2.682,-2.6814,-2.6823,-2.6904,0.0,0.0,0.0,0.0,-2.5656,-2.5775,-2.5736,-2.5692,-2.5698,-2.5703,-2.5706,-2.5706,-2.5706,-2.5706,-2.5706,-2.569,-2.569,-2.5705,-2.5689,-2.5662,-2.5591,-2.5537,-2.5793,-2.6404,-2.7179,-2.7943,-2.8726,-2.9372,-2.9907,-2.9842,-2.9822,-2.979,-2.9698,-2.968,-2.9461,-2.7294,-2.7539,-2.8011,-2.7851,-2.7351,-2.7649,-2.7806,-2.7792,-2.7868,-2.8242,-2.8819,-2.8879,-2.9298,-2.9945,-2.9982,-2.9667,-2.9101,-2.9103,-2.8771,-2.8212,-2.8201,-2.8196,-2.8235,-2.8866,-2.9182,-2.9245,-3.0067,-3.0485,-3.0487,-3.0698,-3.0729,-3.0601,-3.0603,-2.9804,-2.8359,-2.8085,-2.7987,-2.7987,-2.7792,-2.7695,-2.7695,-2.7694,-2.7674,-2.7692,-2.7692,-2.7673,-2.7692,-2.7888,-2.8298,-2.8943,-2.9393,-2.9901,-3.0546,-3.078,0.0,0.0,0.0,0.0,0.0,0.0,0.0,0.0,0.0,-2.9209,-2.8977,0.0,-2.7626,0.0,-2.6081,-2.5973,-2.6607,-2.6621,0.0,0.0,-2.7693,-2.7775,-2.776,-2.7776,-2.7776,-2.7783,-2.7045,-2.655,-2.6595,-2.6024,-2.5881,-2.6562,-2.6123,-2.5704,-2.5697,-2.5701,-2.5701,-2.5721,-2.5704,-2.5705,-2.5702,-2.5703,-2.5699,-2.5704,-2.5666,-2.5602,-2.5601,-2.5499,-2.5661,-2.6409,-2.7167,-2.7918,-2.8705,-2.9395,-2.9815,-2.9832,-2.9771,-2.9717,-2.9689,-2.9745,-2.9732,-2.8331,-2.8743,-2.9217,-2.919,-2.881,-2.8855,-2.8887,-2.8923,-2.8981,-2.9289,-2.9723,-2.9804,-3.012,-3.0597,-3.0632,-3.0405,-2.9997,-2.9965,-2.9729,-2.9317,-2.9324,-2.9322,-2.9384,-2.9837,-3.0078,-3.0089,-3.0576,-3.0801,-3.0786,-3.082,-3.0849,-3.0914,-3.0915,-3.0429,-2.9472,-2.9082,-2.8886,-2.8886,-2.8496,-2.83,-2.8298,-2.8298,-2.8297,-2.8296,-2.8296,-2.8296,-2.8293,-2.8682,-2.9112,-2.9583,-2.9933,-3.0383,-3.0855,-3.0871,-3.0851,0.0,0.0,0.0,0.0,0.0,0.0,0.0,0.0,0.0,0.0,0.0,-2.8531,0.0,-2.7141,0.0,-2.7534,-2.7512,-2.7665,-2.8167,-2.8481,-2.8676,-2.8671,-2.8698,-2.8667,-2.8667,-2.7909,-2.7391,-2.7465,-2.7048,-2.6928,-2.7474,-2.7108,-2.6804,-2.6762,-2.6533,-2.6278,-2.6235,-2.5926,-2.5692,-2.5666,-2.5642,-2.5653,-2.5658,-2.5593,-2.5557,-2.557,-2.577,-2.6159,-2.6908,-2.7688,-2.845,-2.9144,-2.9577,-2.9832,-2.978,-2.9727,-2.9691,-2.9691,-2.9764,-2.9835,-2.9446,-3.0211,-3.0218,-3.0233,-3.0305,-3.0241,-3.0254,-3.0316,-3.0369,-3.0439,-3.0519,-3.0583,-3.0606,-3.0613,-3.0673,-3.0707,-3.0692,-3.0706,-3.0704,-3.0698,-3.0698,-3.0736,-3.0784,-3.0786,-3.0799,-3.08,-3.0794,-3.0783,-3.0794,-3.0884,-3.091,-3.0914,-3.0916,-3.0917,-3.0879,-3.0137,-2.9766,-2.9746,-2.9023,-2.863,-2.8627,-2.8608,-2.8627,-2.8626,-2.8606,-2.8625,-2.8657,-2.9356,-2.9747,-2.9771,-3.0431,-3.0823,-3.0891,-3.0824,-3.0801,0.0,-3.0784,0.0,0.0,0.0,0.0,0.0,0.0,0.0,0.0,-2.9666,-2.9295,-2.8531,-2.8354,-2.835,-2.8453,-2.8398,-2.8421,-2.8526,-2.9138,-2.9557,-2.9571,-2.9547,-2.9544,-2.9559,-2.8802,-2.8285,-2.8335,-2.8263,-2.8179,-2.8335,-2.8323,-2.8346,-2.8421,-2.7746,-2.7123,-2.7053,-2.6484,-2.6147,-2.5903,-2.5797,-2.5751,-2.5637,-2.5701,-2.5654,-2.5685,-2.6264,-2.6995,-2.7719,-2.8369,-2.906,-2.978,-2.9822,-2.9799,-2.9717,-2.9691,-2.9692,-2.9701,-2.9746,-2.9816,-3.0032,-3.0207,-3.026,-3.0299,-3.0312,-3.0336,-3.0367,-3.0379,-3.04,-3.046,-3.0588,-3.0595,-3.0637,-3.0676,-3.0697,-3.0695,-3.0707,-3.0695,-3.0698,-3.0697,-3.0697,-3.0725,-3.0786,-3.0794,-3.0786,-3.0802,-3.0792,-3.0785,-3.0792,-3.0863,-3.091,-3.0914,-3.0916,-3.0917,-3.0898,0.0,0.0,0.0,-3.0487,-3.0366,-3.0336,-3.0335,-3.0331,-3.0321,-3.0346,0.0,-3.0338,-3.0479,-3.0557,-3.0591,-3.0707,0.0,0.0,0.0,0.0,0.0,0.0,0.0,0.0,0.0,0.0,0.0,-3.0917,-3.082,-3.0664,-3.0019,-2.9549,-2.9353,-2.8724,-2.8581,-2.9275,-2.9302,-2.9535,-3.0207,-3.0386,-3.0438,-3.0366,-3.0358,-3.0393,-3.0361,-2.9641,-2.9163,-2.9136,-2.857,-2.8449,-2.9127,-2.921,-2.9477,-3.0075,-2.8895,-2.8013,-2.7943,-2.7651,-2.7337,-2.6681,-2.6581,-2.6342,-2.5803,-2.6135,-2.6475,-2.6466,-2.7045,-2.7812,-2.849,-2.8746,-2.9061,-2.9767,-2.9842,-2.9771,-2.9736,-2.9682,-2.9701,-2.9701,-2.9746,-2.9789,-3.0266,0.0,-3.033,-3.0611,0.0,-3.108,-3.132,-3.1681,-3.0821,-3.052,-3.0615,-3.0649,-3.0665,-3.0704,-3.0711,-3.0704,-3.07,-3.071,-3.0947,-3.1345,-3.1345,-3.1568,-3.2013,-3.1637,-3.1434,-3.1423,-3.1012,-3.0789,-3.0798,-3.0867,-3.0914,-3.0917,-3.0917,-3.0918,-3.0918,-3.0918,-3.0918,-3.0915,-3.0915,-3.0872,-3.0798,-3.0796,-3.0791,-3.0799,0.0,0.0,0.0,0.0,0.0,0.0,0.0,0.0,0.0,0.0,0.0,-3.0799,-3.0791,-3.0798,-3.0801,-3.0851,-3.0915,-3.0916,-3.0918,-3.0918,-3.0918,-3.0487,-3.025,-3.0229,-2.9794,-2.9709,-3.0132,-3.0172,-3.0325,-3.0735,-3.0733,-3.0683,-3.0614,-3.0617,-3.0576,-3.053,-3.0195,-2.995,-2.9963,-2.9632,-2.955,-2.9998,-3.0063,-3.0192,-3.0499,-2.9606,-2.8707,-2.8223,-2.8123,-2.7948,-2.7549,-2.7422,-2.7295,-2.6904,-2.7082,-2.7262,-2.7195,-2.7863,-2.8523,-2.8864,-2.917,-2.9566,-2.9752,-2.9816,-2.979,-2.9719,-2.9692,-2.9701,-2.9711,-2.9765,-2.9789,-3.0816,-3.0864,-3.0864,-3.1303,-3.2039,-3.2044,-3.2429,-3.3021,0.0,0.0,0.0,-3.1131,-3.1164,-3.1171,-3.1174,-3.1164,-3.1179,-3.1153,-3.1543,-3.2207,-3.2227,-3.2622,-3.324,-3.2633,-3.2333,-3.2285,-3.1602,-3.1264,-3.1271,-3.1165,-3.1112,-3.1094,-3.0976,-3.0918,-3.0917,-3.0918,-3.0918,-3.0915,-3.0914,-3.0869,-3.0794,-3.0792,-3.0788,-3.0799,-3.0788,-3.0785,-3.0786,-3.0796,-3.0796,-3.0786,-3.0786,-3.0792,-3.0801,-3.0803,-3.0803,-3.0783,-3.0792,-3.0798,-3.0803,-3.0852,-3.0915,-3.0917,-3.0878,-3.0876,-3.0877,-3.0914,-3.0892,-3.0888,-3.0822,-3.0796,-3.0789,-3.08,-3.0774,-3.0789,-3.0717,-3.0657,-3.0589,-3.0586,-3.0554,-3.051,-3.0467,-3.0516,-3.0539,-3.0518,-3.0597,-3.0641,-3.0607,-3.07,-3.0611,-3.0082,-2.941,-2.8845,-2.8772,-2.8567,-2.8342,-2.8272,-2.8169,-2.7924,-2.7995,-2.8115,-2.8154,-2.8693,-2.9149,-2.9181,-2.9698,-2.9931,-2.9832,-2.9789,-2.9792,-2.9692,-2.9701,-2.9701,-2.9701,-2.9747,-2.978,-3.2619,-3.2629,-3.2629,-3.2748,-3.2896,-3.2923,-3.3016,-3.3156,-3.2915,-3.2854,-3.2928,-3.2918,-3.2924,-3.2923,-3.2992,-3.302,-3.302,-3.2951,-3.3,0.0,-3.312,-3.3179,-3.3298,-3.3234,-3.3215,-3.3216,-3.3081,-3.3038,-3.2955,-3.2281,-3.1933,-3.1855,-3.1249,-3.0935,-3.0916,-3.0918,-3.0918,-3.0916,-3.0915,-3.087,-3.0794,-3.0792,-3.0788,-3.0799,-3.0788,-3.0788,-3.0798,-3.0786,-3.0786,-3.0796,-3.0785,-3.0789,-3.0791,-3.0796,-3.0798,-3.0798,-3.0785,-3.0788,-3.0789,-3.0855,-3.0917,-3.0898,-3.0852,-3.0848,-3.0914,-3.0911,-3.0887,-3.0822,-3.0816,-3.0788,-3.0788,-3.0782,-3.0767,-3.075,-3.0673,-3.0586,-3.0515,-3.0505,-3.0499,-3.0433,-3.0458,-3.0495,-3.05,-3.052,-3.053,-3.0591,-3.061,-3.0616,-3.0606,-3.0511,-3.0388,-3.0279,-3.0236,-2.9937,-2.9339,-2.9137,-2.8848,-2.8091,-2.8628,-2.9007,-2.8923,-2.9505,-2.9928,-2.9932,-3.0003,-2.9988,-2.9823,-2.9789,-2.9784,-2.9711,-2.9702,-2.9748,-2.9673,-2.9719,-2.9789,-3.3059,-3.3044,-3.3044,-3.3369,-3.3882,-3.4366,-3.4592,-3.4606,-3.4656,-3.4142,-3.3322,-3.3294,-3.3315,-3.3348,-3.3395,-3.3383,-3.3388,-3.3375,-3.3582,-3.3991,-3.3991,-3.4269,-3.4628,-3.4289,-3.409,-3.4083,-3.3625,-3.3383,-3.3355,-3.2987,-3.2812,-3.277,-3.2435,-3.2259,-3.2223,-3.1796,-3.1562,-3.1543,-3.1112,-3.0873,-3.0804,-3.0783,-3.0799,-3.0792,-3.0799,-3.08,-3.0792,-3.0783,-3.0786,-3.0798,-3.0785,-3.0787,-3.0784,-3.0788,-3.0791,-3.0791,-3.0834,-3.0836,-3.0798,-3.1269,-3.1558,-3.1565,-3.1939,-3.2161,-3.2202,-3.1351,-3.0825,-3.0801,-3.0765,-3.094,-3.139,-3.1378,-3.129,-3.1285,-3.1221,-3.0967,-3.0502,-3.0394,-3.0365,-3.0324,-3.0349,-3.039,-3.0389,-3.0411,-3.0444,-3.0491,-3.052,-3.0559,-3.0617,-3.0616,-3.0606,-3.0601,-3.0597,-3.0457,-3.0075,-2.9965,-2.9772,-2.9385,-2.9625,-2.98,-2.9777,-3.0107,-3.0196,-3.013,-3.0064,-2.9983,-2.9853,-3.0196,-3.018,-2.9777,-3.0096,-3.0161,-2.9851,-2.9763,-2.9876,-3.3698,-3.3698,-3.3702,-3.4143,-3.4848,-3.5527,-3.5834,-3.5827,-3.5872,-3.5123,-3.3981,-3.3882,-3.3918,-3.3989,-3.3972,-3.3997,-3.3984,-3.3997,-3.4321,-3.4867,-3.4905,-3.5261,-3.5817,-3.5264,-3.4983,-3.4935,-3.4301,-3.3979,-3.3965,-3.3789,-3.3591,-3.3424,-3.3384,-3.3387,-3.339,-3.275,-3.2401,-3.2343,-3.1777,-3.1249,-3.0832,-3.0832,-3.0831,-3.079,-3.0793,-3.0793,-3.0789,-3.0797,-3.0798,-3.0816,-3.0975,-3.1093,-3.1091,-3.1288,-3.1308,-3.1133,-3.1133,-3.1054,-3.0856,-3.1413,-3.1864,-3.2075,-3.264,-3.3067,-3.3141,-3.2077,-3.1332,-3.1317,-3.1373,-3.1599,-3.2096,-3.2141,-3.1995,-3.1806,-3.1697,-3.1232,-3.0427,-3.0267,-3.0248,-3.02,-3.024,-3.0292,-3.0292,-3.0343,-3.0385,-3.0406,-3.046,-3.0525,-3.0564,-3.0593,-3.0617,-3.0617,-3.0617,-3.0598,-3.0617,-3.0525,-3.0462,-3.0495,-3.043,-3.0334,-3.0283,-3.0292,-3.0394,-3.0386,-3.0365,-3.0433,-3.0419,-3.0838,-3.0979,-3.0555,-3.0658,-3.0593,-2.9897,-2.9822,-2.9932,-3.5518,-3.5547,-3.5467,-3.5585,-3.5663,-3.5826,-3.5885,-3.5898,-3.59,-3.5836,-3.559,-3.5651,-3.5641,-3.5767,-3.5689,-3.5672,-3.5691,-3.575,-3.5767,-3.5825,-3.5864,-3.5925,-3.5986,-3.5896,-3.5872,-3.5846,-3.5716,-3.5604,-3.5566,-3.4919,-3.4188,-3.3488,-3.3394,-3.3456,-3.342,-3.335,-3.3296,-3.3296,-3.3215,-3.2439,-3.0975,-3.0877,-3.0858,-3.0801,-3.0801,-3.0801,-3.0898,-3.0801,-3.08,-3.0858,-3.1557,-3.1963,-3.2041,-3.2701,-3.2774,-3.2014,-3.1951,-3.1649,-3.0911,-3.0821,-3.1252,-3.1913,-3.2198,-3.2596,-3.3212,-3.3042,-3.2921,-3.2944,-3.2959,-3.2865,-3.2986,-3.2884,-3.2466,-3.169,-3.1572,-3.116,-3.035,-3.0159,-3.0171,-3.0106,-3.0178,-3.0214,-3.0219,-3.0266,-3.033,-3.039,-3.056,-3.0665,-3.068,-3.0811,-3.0844,-3.0752,-3.0656,-3.0656,-3.0636,-3.0617,-3.0675,-3.0593,-3.0553,-3.0651,-3.0683,-3.0592,-3.049,-3.1168,-3.1164,-3.128,-3.1684,-3.2109,-3.2003,-3.155,-3.1203,-3.0688,-3.0035,-2.9901,-2.9983,-3.5818,-3.5865,-3.5873,-3.5861,-3.5849,-3.5889,-3.5879,-3.5911,-3.5958,-3.5973,-3.596,-3.5953,-3.5976,-3.6013,-3.6013,-3.6013,-3.6013,-3.6007,-3.6005,-3.6005,-3.6011,-3.6017,-3.6002,-3.6012,-3.6004,-3.6013,-3.6014,-3.6015,-3.5951,-3.565,-3.5285,-3.4979,-3.4942,-3.4944,-3.4905,-3.4428,-3.4178,-3.4159,-3.3667,-3.3045,-3.2408,-3.1867,-3.1849,-3.2238,-3.1828,-3.1826,-3.2271,-3.2345,-3.232,-3.2313,-3.2627,-3.2814,-3.2799,-3.2654,-3.2415,-3.2026,-3.1542,-3.1115,-3.0784,-3.1592,-3.2279,-3.2647,-3.3567,-3.427,-3.4513,-3.4533,-3.4515,-3.4394,-3.3611,-3.3012,-3.3001,-3.2871,-3.2468,-3.1659,-3.141,-3.1032,-3.0164,-3.0091,-3.0106,-3.0072,-3.0113,-3.0145,-3.0145,-3.0233,-3.0324,-3.0473,-3.0819,-3.1179,-3.1269,-3.1709,-3.2048,-3.2063,-3.2082,-3.1584,-3.0965,-3.1057,-3.1221,-3.1356,-3.1697,-3.1934,-3.1813,-3.1763,-3.1852,-3.2046,-3.1963,-3.1955,-3.2109,-3.2634,-3.278,-3.231,-3.1543,-3.0838,-3.0553,-3.024,-3.0075,-3.6075,-3.5908,-3.5892,-3.5898,-3.5885,-3.5894,-3.5903,-3.5928,-3.5962,-3.6013,-3.6034,-3.6246,-3.6348,-3.6363,-3.636,-3.636,-3.6378,-3.6611,-3.6705,-3.6726,-3.6711,-3.6717,-3.6722,-3.671,-3.6716,-3.6719,-3.6737,-3.6712,-3.6639,-3.6407,-3.6315,-3.6306,-3.609,-3.5973,-3.5914,-3.5299,-3.503,-3.4971,-3.4359,-3.406,-3.3958,-3.3202,-3.2959,-3.3282,-3.2776,-3.2732,-3.3325,-3.3351,-3.3203,-3.2912,-3.3116,-3.3145,-3.2921,-3.2522,-3.2292,-3.2243,-3.1697,-3.1336,-3.1351,-3.2391,-3.3146,-3.3456,-3.4567,-3.5258,-3.5399,-3.5437,-3.5407,-3.5208,-3.4206,-3.3517,-3.3204,-3.3094,-3.2569,-3.1565,-3.1337,-3.095,-3.0113,-3.0022,-3.0022,-2.998,-3.0042,-3.0109,-3.0145,-3.0246,-3.0394,-3.0812,-3.1334,-3.1901,-3.2118,-3.267,-3.3042,-3.3121,-3.3077,-3.2613,-3.1579,-3.1773,-3.2111,-3.2245,-3.2618,-3.2804,-3.2891,-3.2753,-3.2894,-3.2773,-3.2755,-3.294,-3.3231,-3.3556,-3.3456,-3.2678,-3.2023,-3.145,-3.0959,-3.0591,-3.0314,-3.6664,-3.5966,-3.5922,-3.5992,-3.5926,-3.5926,-3.5953,-3.6079,-3.6063,-3.6049,-3.6189,-3.6885,-3.724,-3.726,-3.7296,-3.7254,-3.7352,-3.8019,-3.8314,-3.8333,-3.8373,-3.8452,-3.8491,-3.8495,-3.8437,-3.8239,-3.8169,-3.8211,-3.8226,-3.7542,-3.7139,-3.7116,-3.6364,-3.5947,-3.595,-3.5864,-3.5814,-3.5713,-3.559,-3.5613,-3.5551,-3.4796,-3.4088,-3.3554,-3.3275,-3.3307,-3.3426,-3.3297,-3.2942,-3.2089,-3.2923,-3.2906,-3.2255,-3.2704,-3.3016,-3.2928,-3.2865,-3.2844,-3.2789,-3.2909,-3.3288,-3.3955,-3.423,-3.4546,-3.522,-3.5304,-3.525,-3.5102,-3.4944,-3.4568,-3.4018,-3.3753,-3.3067,-3.1637,-3.135,-3.0921,-3.0105,-3.0086,-2.9934,-2.997,-3.006,-3.0121,-3.0174,-3.0254,-3.072,-3.1299,-3.1708,-3.2124,-3.2882,-3.3144,-3.329,-3.3329,-3.3279,-3.3095,-3.2981,-3.2956,-3.3004,-3.3131,-3.3182,-3.3179,-3.2936,-3.2874,-3.3249,-3.3519,-3.3562,-3.3828,-3.4411,-3.4434,-3.406,-3.3571,-3.3207,-3.2636,-3.1761,-3.1313,-3.0928,-3.7851,-3.7566,-3.7552,-3.7557,-3.7503,-3.6983,-3.6735,-3.678,-3.68,-3.6826,-3.6984,-3.7752,-3.8125,-3.8183,-3.8711,-3.8651,-3.8197,-3.8454,-3.8611,-3.8611,-3.8613,-3.8613,-3.8613,-3.861,-3.8564,-3.8553,-3.852,-3.8475,-3.8419,-3.8105,-3.7971,-3.784,-3.7086,-3.667,-3.6573,-3.611,-3.5841,-3.5838,-3.5764,-3.5724,-3.5793,-3.5883,-3.5818,-3.5505,-3.4559,-3.4548,-3.5558,-3.5573,-3.562,-3.5784,-3.5575,-3.5282,-3.4936,-3.4179,-3.3486,-3.3011,-3.2941,-3.291,-3.2916,-3.3355,-3.3695,-3.3983,-3.4477,-3.4816,-3.5073,-3.5126,-3.5072,-3.5028,-3.4936,-3.4737,-3.4508,-3.409,-3.3304,-3.2247,-3.1928,-3.1824,-3.1428,-3.1002,-3.0679,-3.061,-3.0379,-3.0128,-3.024,-3.0299,-3.0674,-3.1536,-3.2204,-3.2919,-3.3727,-3.4306,-3.461,-3.4679,-3.4701,-3.4689,-3.4695,-3.4149,-3.3905,-3.4024,-3.4135,-3.4415,-3.4383,-3.4121,-3.4391,-3.4241,-3.4283,-3.4261,-3.4662,-3.458,-3.429,-3.4215,-3.3901,-3.3358,-3.2674,-3.2157,-3.1559,-3.8508,-3.8514,-3.8514,-3.8516,-3.8461,-3.7904,-3.7616,-3.764,-3.7693,-3.7675,-3.7851,-3.8592,-3.8981,-3.9117,-3.9897,-3.9997,-3.9433,-3.9414,-3.9394,-3.9414,-3.9411,-3.9407,-3.9404,-3.9414,-3.9359,-3.9319,-3.9296,-3.9244,-3.9167,-3.891,-3.8788,-3.8703,-3.787,-3.7293,-3.6997,-3.6449,-3.6061,-3.5839,-3.5931,-3.6079,-3.614,-3.6799,-3.7173,-3.7019,-3.6122,-3.6074,-3.7205,-3.7237,-3.7257,-3.7434,-3.6949,-3.638,-3.5741,-3.4683,-3.3806,-3.3288,-3.348,-3.3604,-3.3616,-3.4044,-3.4356,-3.4317,-3.4719,-3.5054,-3.5057,-3.4982,-3.4974,-3.4946,-3.5153,-3.5188,-3.5129,-3.4951,-3.4347,-3.3326,-3.2864,-3.2694,-3.2618,-3.1986,-3.1455,-3.108,-3.0505,-3.0226,-3.033,-3.0592,-3.1191,-3.2008,-3.2902,-3.3785,-3.4646,-3.5189,-3.5616,-3.5614,-3.5456,-3.5406,-3.529,-3.4822,-3.4642,-3.4751,-3.4658,-3.5131,-3.5285,-3.5149,-3.5046,-3.4927,-3.4821,-3.473,-3.4666,-3.4602,-3.455,-3.4502,-3.4261,-3.3794,-3.331,-3.2946,-3.2326,-3.8591,-3.8651,-3.8552,-3.8715,-3.8798,-3.8588,-3.8532,-3.8574,-3.8532,-3.8508,-3.8644,-3.9435,-3.9819,-3.9976,-4.0618,-4.0991,-4.0876,-4.0807,-4.0829,-4.0865,-4.0903,-4.0912,-4.0857,-4.0823,-4.0778,-4.0724,-4.0836,-4.0794,-4.0611,-3.9947,-3.9567,-3.9362,-3.8637,-3.7873,-3.7,-3.6975,-3.651,-3.6112,-3.6504,-3.6794,-3.6903,-3.756,-3.7943,-3.7913,-3.7825,-3.7886,-3.806,-3.7981,-3.7636,-3.7007,-3.6752,-3.5733,-3.4683,-3.4214,-3.3977,-3.4105,-3.4653,-3.5045,-3.5005,-3.4987,-3.4968,-3.4942,-3.501,-3.4992,-3.4936,-3.4908,-3.4926,-3.5055,-3.5505,-3.5934,-3.6098,-3.6513,-3.6336,-3.5049,-3.421,-3.3823,-3.356,-3.2912,-3.2096,-3.142,-3.0731,-3.0247,-3.0471,-3.1142,-3.2022,-3.2891,-3.3713,-3.4513,-3.5262,-3.5548,-3.5601,-3.5596,-3.5534,-3.5494,-3.5446,-3.5383,-3.5386,-3.5367,-3.5185,-3.5269,-3.5185,-3.5072,-3.4992,-3.4889,-3.4781,-3.4697,-3.4561,-3.4484,-3.4461,-3.4405,-3.4252,-3.4161,-3.3819,-3.34,-3.3038,-4.0306,-4.0307,-4.029,-4.0291,-4.0234,-3.9668,-3.9412,-3.9431,-3.9397,-3.9387,-3.9559,-4.0322,-4.0703,-4.0721,-4.095,-4.1022,-4.1042,-4.1022,-4.1052,-4.1085,-4.1103,-4.1067,-4.1019,-4.099,-4.0937,-4.0859,-4.0812,-4.0765,-4.0709,-4.0453,-4.0346,-4.0159,-3.9406,-3.8858,-3.8452,-3.7989,-3.7467,-3.7319,-3.7389,-3.7487,-3.7556,-3.8238,-3.8609,-3.8648,-3.9117,-3.9404,-3.9366,-3.8923,-3.8781,-3.8823,-3.8347,-3.75,-3.6521,-3.5845,-3.5577,-3.5555,-3.525,-3.5127,-3.5101,-3.5057,-3.5011,-3.4964,-3.4936,-3.4927,-3.4908,-3.4888,-3.5103,-3.5495,-3.5846,-3.628,-3.7317,-3.7701,-3.7389,-3.6437,-3.6069,-3.5829,-3.5581,-3.4745,-3.3252,-3.1732,-3.1584,-3.1618,-3.1463,-3.1999,-3.2887,-3.3647,-3.4212,-3.4775,-3.5405,-3.5633,-3.5585,-3.5541,-3.5474,-3.5398,-3.5354,-3.5293,-3.5269,-3.525,-3.5182,-3.516,-3.5091,-3.4982,-3.4908,-3.4821,-3.471,-3.4604,-3.4454,-3.4386,-3.4351,-3.4363,-3.4292,-3.4203,-3.4113,-3.3847,-3.3468,-4.1113,-4.1113,-4.1113,-4.1113,-4.1053,-4.0481,-4.0281,-4.0279,-4.0274,-4.0277,-4.0387,-4.0817,-4.1033,-4.1023,-4.0967,-4.0979,-4.0949,-4.0929,-4.0937,-4.0986,-4.1013,-4.0991,-4.0924,-4.082,-4.0776,-4.0732,-4.0662,-4.0641,-4.0641,-4.0614,-4.0612,-4.0456,-3.9988,-3.95,-3.9208,-3.8685,-3.8305,-3.7977,-3.812,-3.8221,-3.8369,-3.8956,-3.9318,-3.9403,-3.9811,-4.0007,-3.9897,-3.9505,-3.9497,-3.9728,-3.9128,-3.8416,-3.7924,-3.7155,-3.671,-3.6615,-3.6073,-3.556,-3.5503,-3.5229,-3.4973,-3.4964,-3.4936,-3.4927,-3.4965,-3.5067,-3.5605,-3.5891,-3.6561,-3.7246,-3.8117,-3.8565,-3.8384,-3.8003,-3.7585,-3.7365,-3.7012,-3.6026,-3.4708,-3.3329,-3.2983,-3.2756,-3.2467,-3.2903,-3.3631,-3.4224,-3.4643,-3.4963,-3.549,-3.5616,-3.556,-3.5507,-3.5417,-3.5346,-3.5277,-3.5193,-3.5126,-3.5081,-3.5027,-3.5019,-3.4973,-3.487,-3.4781,-3.4668,-3.455,-3.4431,-3.4305,-3.4233,-3.4197,-3.4245,-3.4281,-3.4195,-3.4102,-3.4174,-3.3941,-4.1152,-4.1111,-4.111,-4.1108,-4.1104,-4.1034,-4.1007,-4.1042,-4.1033,-4.0967,-4.0951,-4.097,-4.0961,-4.0913,-4.09,-4.0902,-4.0878,-4.0829,-4.0784,-4.0809,-4.0844,-4.0833,-4.074,-4.0643,-4.0595,-4.0586,-4.0527,-4.0496,-4.0489,-4.0489,-4.0465,-4.0378,-4.0285,-3.9964,-3.9348,-3.9155,-3.8776,-3.8276,-3.8697,-3.8994,-3.8985,-3.9612,-3.997,-3.9891,-3.9927,-3.9922,-3.9815,-3.9717,-3.9758,-3.9772,-3.9153,-3.8775,-3.8591,-3.7858,-3.7454,-3.7527,-3.6825,-3.635,-3.6122,-3.5581,-3.5201,-3.5201,-3.5201,-3.5097,-3.5344,-3.5912,-3.6317,-3.6499,-3.7461,-3.83,-3.8585,-3.8952,-3.9251,-3.9332,-3.8684,-3.8082,-3.7415,-3.6728,-3.5931,-3.5142,-3.4456,-3.3796,-3.3293,-3.3917,-3.4311,-3.4602,-3.5126,-3.5474,-3.5562,-3.5578,-3.5554,-3.5474,-3.5365,-3.5269,-3.5176,-3.5529,-3.5476,-3.5477,-3.5438,-3.5465,-3.5322,-3.5183,-3.5198,-3.5001,-3.4729,-3.4499,-3.434,-3.4426,-3.424,-3.4117,-3.4117,-3.4086,-3.4124,-3.4191,-3.4253,-4.1108,-4.1102,-4.1114,-4.1108,-4.1103,-4.1103,-4.1067,-4.1017,-4.1036,-4.1013,-4.0988,-4.0932,-4.0921,-4.0888,-4.0848,-4.079,-4.0767,-4.0732,-4.0694,-4.0649,-4.0609,-4.0595,-4.0559,-4.05,-4.0457,-4.0444,-4.0419,-4.0413,-4.0368,-4.0341,-4.0334,-4.0261,-4.0233,-4.0157,-3.991,-3.9805,-3.9699,-3.9431,-3.9513,-3.9625,-3.9612,-3.9697,-3.9815,-3.9848,-3.9823,-3.9766,-3.9722,-3.9626,-3.9638,-3.9715,-3.9564,-3.9425,-3.9324,-3.8666,-3.8296,-3.8305,-3.763,-3.6871,-3.6416,-3.6074,-3.5913,-3.5951,-3.5932,-3.6217,-3.6777,-3.6966,-3.736,-3.7759,-3.8331,-3.8651,-3.9173,-3.9333,-3.9439,-3.9476,-3.9077,-3.8749,-3.8313,-3.8075,-3.7535,-3.6282,-3.591,-3.5496,-3.5069,-3.5046,-3.5326,-3.545,-3.5635,-3.5842,-3.5956,-3.5849,-3.5932,-3.5518,-3.5326,-3.5187,-3.5235,-3.5666,-3.5893,-3.5962,-3.6088,-3.6343,-3.6178,-3.6006,-3.6128,-3.6199,-3.5789,-3.5501,-3.5208,-3.5064,-3.4668,-3.4397,-3.4281,-3.4417,-3.4171,-3.4123,-3.4252,-4.1105,-4.1114,-4.1104,-4.1113,-4.1098,-4.1075,-4.1036,-4.1,-4.0983,-4.098,-4.0948,-4.0927,-4.0863,-4.0809,-4.0782,-4.072,-4.0668,-4.0621,-4.0591,-4.05,-4.0417,-4.0402,-4.0392,-4.0358,-4.0306,-4.0299,-4.0281,-4.0234,-4.0225,-4.0196,-4.0167,-4.0128,-4.0078,-4.0067,-3.9998,-4.0007,-3.9954,-3.9881,-3.9867,-3.9856,-3.9804,-3.9712,-3.9708,-3.9731,-3.9665,-3.9625,-3.9608,-3.9533,-3.9558,-3.9657,-3.9657,-3.965,-3.9698,-3.9331,-3.9126,-3.9235,-3.8455,-3.7743,-3.7375,-3.6994,-3.6738,-3.6796,-3.6806,-3.7034,-3.7432,-3.7744,-3.8216,-3.7982,-3.8282,-3.8509,-3.8568,-3.8568,-3.8496,-3.8421,-3.8531,-3.8689,-3.889,-3.9129,-3.8646,-3.7795,-3.7418,-3.7294,-3.6589,-3.6575,-3.6639,-3.6745,-3.6828,-3.6856,-3.68,-3.6556,-3.6378,-3.6155,-3.6071,-3.6118,-3.6103,-3.6413,-3.6629,-3.6663,-3.6878,-3.7118,-3.6894,-3.6702,-3.6658,-3.6713,-3.6615,-3.6436,-3.6025,-3.574,-3.5588,-3.5317,-3.5013,-3.4897,-3.4842,-3.4576,-3.4631,-4.1102,-4.1104,-4.1081,-4.1083,-4.1067,-4.101,-4.0986,-4.0972,-4.0964,-4.0954,-4.0893,-4.0902,-4.0798,-4.0687,-4.0688,-4.0647,-4.0566,-4.0539,-4.0556,-4.0579,-4.0616,-4.0702,-4.074,-4.0311,-4.0196,-4.0147,-4.0098,-4.0077,-4.0057,-4.0007,-3.9975,-3.9954,-3.99,-3.9837,-3.9815,-3.9826,-3.977,-3.9701,-3.9712,-3.9701,-3.971,-3.9763,-3.987,-3.992,-3.9833,-3.9652,-3.9545,-3.9464,-3.9502,-3.9676,-3.9558,-3.9614,-3.9717,-3.9705,-3.9755,-3.9762,-3.9204,-3.8776,-3.8627,-3.7876,-3.7553,-3.7612,-3.7641,-3.7717,-3.8002,-3.8429,-3.8398,-3.7862,-3.8099,-3.7966,-3.76,-3.7288,-3.7317,-3.7411,-3.7401,-3.8079,-3.918,-3.9767,-3.9628,-3.906,-3.9003,-3.8673,-3.8362,-3.811,-3.8042,-3.7468,-3.7584,-3.754,-3.7468,-3.7348,-3.7291,-3.7266,-3.7268,-3.7329,-3.7277,-3.7265,-3.7367,-3.7471,-3.7746,-3.787,-3.7509,-3.7288,-3.7067,-3.7022,-3.7354,-3.7182,-3.6656,-3.6448,-3.6401,-3.606,-3.5648,-3.5858,-3.6083,-3.5604,-3.5461,-4.1105,-4.1108,-4.1052,-4.1025,-4.1011,-4.0956,-4.0926,-4.0917,-4.0873,-4.0848,-4.0823,-4.077,-4.0701,-4.0615,-4.0605,-4.0573,-4.0511,-4.0523,-4.0659,-4.1177,-4.1781,-4.19,-4.1597,-4.0737,-4.0083,-4.0078,-4.0,-3.9949,-3.9916,-3.9864,-3.9804,-3.9747,-3.9689,-3.9665,-3.9623,-3.9587,-3.9551,-3.9496,-3.9496,-3.9514,-3.9696,-4.0076,-4.0325,-4.0369,-4.033,-3.9973,-3.9511,-3.9328,-3.9341,-3.9425,-3.9495,-3.9533,-3.9684,-3.9701,-3.977,-3.984,-3.977,-3.9361,-3.8833,-3.8586,-3.8445,-3.8476,-3.8514,-3.881,-3.9359,-3.8929,-3.8679,-3.8247,-3.7856,-3.7427,-3.7006,-3.7077,-3.6964,-3.6942,-3.7103,-3.7565,-3.8564,-3.8967,-3.924,-3.9556,-3.9374,-3.9043,-3.8935,-3.8433,-3.8323,-3.8183,-3.8176,-3.8137,-3.8152,-3.8174,-3.8178,-3.8248,-3.809,-3.8076,-3.7967,-3.7943,-3.8003,-3.8064,-3.828,-3.8436,-3.8093,-3.8009,-3.7833,-3.7993,-3.8339,-3.7959,-3.7353,-3.7246,-3.718,-3.6729,-3.6369,-3.6505,-3.6585,-3.6328,-3.6294,-4.1081,-4.1052,-4.1015,-4.0984,-4.0943,-4.0922,-4.0883,-4.0846,-4.0809,-4.0781,-4.0752,-4.0681,-4.0607,-4.0557,-4.0516,-4.0471,-4.0483,-4.0692,-4.1137,-4.1699,-4.2158,-4.222,-4.2109,-4.1417,-4.0882,-4.0868,-4.0498,-4.0323,-4.0193,-3.9844,-3.9557,-3.9502,-3.9433,-3.9363,-3.9363,-3.9337,-3.9298,-3.9277,-3.9264,-3.9413,-3.9866,-4.0165,-4.0416,-4.0458,-4.0421,-4.0086,-3.9286,-3.9166,-3.918,-3.9248,-3.9301,-3.94,-3.9594,-3.9677,-3.9747,-3.9826,-3.9889,-3.9748,-3.9342,-3.9245,-3.9245,-3.9248,-3.9226,-3.9451,-3.9716,-3.938,-3.8764,-3.8134,-3.7464,-3.6953,-3.607,-3.5908,-3.5979,-3.6056,-3.6155,-3.6537,-3.7387,-3.823,-3.9137,-3.9804,-3.9889,-3.9804,-3.9561,-3.9115,-3.9237,-3.9396,-3.9394,-3.9345,-3.9357,-3.9352,-3.9172,-3.9109,-3.8867,-3.8721,-3.8603,-3.8589,-3.8633,-3.8614,-3.8603,-3.8652,-3.8482,-3.8541,-3.8655,-3.8698,-3.8628,-3.8576,-3.8117,-3.8062,-3.7936,-3.7793,-3.7528,-3.7284,-3.7171,-3.7226,-3.7191,-4.1013,-4.0984,-4.0956,-4.0921,-4.0873,-4.0856,-4.0812,-4.077,-4.0758,-4.0688,-4.0647,-4.0574,-4.0519,-4.0465,-4.0411,-4.0381,-4.0616,-4.1151,-4.1791,-4.2711,-4.2994,-4.3171,-4.309,-4.2997,-4.2707,-4.246,-4.1415,-4.099,-4.0688,-4.0122,-3.9877,-3.9544,-3.9361,-3.9296,-3.9175,-3.9092,-3.9073,-3.9087,-3.9296,-3.9597,-4.0218,-4.0456,-4.0685,-4.0463,-4.0504,-3.9999,-3.9252,-3.8993,-3.9021,-3.9059,-3.9073,-3.9192,-3.9389,-3.9606,-3.9701,-3.9762,-3.9856,-3.9821,-3.9765,-3.975,-3.9728,-3.9804,-3.9709,-3.9675,-3.9693,-3.941,-3.8758,-3.7917,-3.7175,-3.6498,-3.5176,-3.5184,-3.523,-3.5323,-3.5317,-3.5642,-3.6576,-3.7946,-3.9012,-3.9623,-3.9967,-4.0095,-4.0211,-4.0057,-4.0354,-4.055,-4.0481,-4.0441,-4.0368,-4.0242,-3.9872,-3.9638,-3.9351,-3.9032,-3.8908,-3.8799,-3.8915,-3.8991,-3.8936,-3.9001,-3.8906,-3.8775,-3.8793,-3.8723,-3.867,-3.8634,-3.86,-3.842,-3.842,-3.8658,-3.84,-3.7838,-3.7851,-3.8097,-3.7929,-4.0893,-4.0819,-4.0765,-4.0757,-4.0733,-4.0693,-4.0742,-4.0617,-4.0662,-4.0481,-4.0523,-4.0474,-4.0537,-4.0447,-4.0353,-4.0616,-4.129,-4.1952,-4.2882,-4.4011,-4.4496,-4.4849,-4.5072,-4.4789,-4.4804,-4.4125,-4.266,-4.1613,-4.1501,-4.1258,-4.0558,-4.0215,-4.0036,-3.9737,-3.9279,-3.9001,-3.9073,-3.9243,-3.9557,-3.9911,-4.0406,-4.124,-4.1448,-4.0937,-4.082,-4.0148,-3.9146,-3.8881,-3.8939,-3.8935,-3.8993,-3.9036,-3.9142,-3.9376,-3.9551,-3.9658,-3.977,-3.9804,-3.9823,-3.9823,-3.9792,-3.9781,-3.9724,-3.9708,-3.9557,-3.9107,-3.867,-3.8018,-3.7043,-3.6246,-3.6659,-3.6028,-3.6122,-3.6519,-3.678,-3.7049,-3.7873,-3.8476,-3.884,-3.9203,-3.9729,-4.0252,-4.0325,-4.0368,-4.0413,-4.0422,-4.0377,-4.0316,-4.0234,-4.0167,-3.9982,-3.9808,-3.9683,-3.9396,-3.9131,-3.9017,-3.9017,-3.9183,-3.9277,-3.9506,-3.9331,-3.8964,-3.8836,-3.9135,-3.8949,-3.8673,-3.864,-3.8627,-3.8562,-3.853,-3.835,-3.8203,-3.825,-3.8274,-3.8026,-4.1124,-4.1457,-4.1389,-4.1609,-4.1895,-4.1913,-4.1886,-4.1846,-4.1767,-4.1733,-4.1698,-4.1654,-4.1608,-4.1533,-4.1464,-4.1952,-4.2749,-4.3201,-4.4243,-4.5391,-4.5528,-4.5459,-4.5706,-4.5345,-4.4712,-4.3948,-4.2951,-4.2258,-4.1955,-4.1396,-4.1051,-4.0707,-4.0549,-4.0299,-3.9913,-3.9499,-3.9554,-3.9774,-3.9903,-4.0274,-4.0944,-4.2135,-4.1956,-4.1117,-4.0732,-4.0035,-3.8894,-3.8562,-3.864,-3.8698,-3.8792,-3.8881,-3.8979,-3.9115,-3.9311,-3.9464,-3.9611,-3.9701,-3.9701,-3.972,-3.9757,-3.9738,-3.9691,-3.9656,-3.9568,-3.9238,-3.8782,-3.815,-3.7434,-3.6659,-3.6979,-3.6723,-3.6848,-3.7133,-3.7335,-3.7616,-3.8033,-3.8491,-3.8733,-3.8945,-3.9633,-4.0139,-4.0244,-4.0272,-4.0281,-4.0272,-4.0253,-4.0186,-4.0108,-4.0036,-3.9962,-3.9989,-3.9912,-3.9892,-3.9658,-3.9612,-3.9555,-3.9645,-3.9764,-3.9992,-4.0104,-3.9868,-3.9871,-4.0058,-3.9653,-3.8993,-3.8648,-3.8617,-3.8499,-3.8455,-3.8381,-3.834,-3.842,-3.8384,-3.8215,-4.1691,-4.2267,-4.2221,-4.2524,-4.2988,-4.3017,-4.2949,-4.2945,-4.286,-4.2757,-4.2814,-4.2708,-4.2591,-4.2536,-4.25,-4.2932,-4.4126,-4.4041,-4.4692,-4.5651,-4.5426,-4.5072,-4.4919,-4.4429,-4.4032,-4.3688,-4.3397,-4.3014,-4.2442,-4.1841,-4.1334,-4.1097,-4.101,-4.0848,-4.0557,-4.0045,-4.0302,-4.0357,-4.0429,-4.0796,-4.1833,-4.2409,-4.2009,-4.0564,-4.0384,-3.975,-3.8424,-3.8256,-3.8354,-3.8467,-3.858,-3.8673,-3.8788,-3.8892,-3.9021,-3.9192,-3.9414,-3.9514,-3.957,-3.9588,-3.9638,-3.9607,-3.9589,-3.9583,-3.954,-3.9389,-3.9145,-3.8465,-3.7771,-3.7488,-3.7713,-3.7455,-3.7581,-3.7849,-3.792,-3.7915,-3.8296,-3.8709,-3.9079,-3.9407,-3.985,-4.0051,-4.0195,-4.0177,-4.0186,-4.0128,-4.0109,-4.0058,-3.9975,-3.9911,-3.9898,-4.0049,-4.014,-4.03,-4.0296,-4.0351,-4.0375,-4.0483,-4.0579,-4.0747,-4.0914,-4.0971,-4.0976,-4.0835,-4.009,-3.9469,-3.9047,-3.8905,-3.919,-3.9182,-3.8718,-3.8617,-3.8903,-3.889,-3.8704,-4.2861,-4.2887,-4.2885,-4.2876,-4.289,-4.2891,-4.2804,-4.283,-4.2846,-4.261,-4.2797,-4.262,-4.2587,-4.2409,-4.2168,-4.2506,-4.3032,-4.337,-4.4066,-4.5261,-4.5013,-4.4983,-4.537,-4.5479,-4.4286,-4.3583,-4.352,-4.3404,-4.2812,-4.2503,-4.2195,-4.1724,-4.156,-4.1307,-4.0854,-4.0546,-4.0456,-4.0655,-4.1126,-4.1739,-4.2289,-4.2327,-4.1405,-4.044,-3.9925,-3.939,-3.815,-3.7967,-3.8086,-3.8272,-3.8322,-3.8401,-3.8525,-3.8655,-3.8762,-3.8921,-3.9142,-3.9363,-3.9407,-3.9439,-3.9452,-3.9439,-3.9438,-3.9412,-3.9399,-3.9399,-3.9311,-3.9305,-3.8552,-3.8365,-3.864,-3.8489,-3.8686,-3.8907,-3.9048,-3.9192,-3.9432,-3.9056,-3.9426,-3.9665,-4.0051,-4.0131,-4.0219,-4.0153,-4.0106,-4.0036,-3.9984,-3.9987,-4.0042,-4.0132,-4.022,-4.0483,-4.0643,-4.0781,-4.1021,-4.107,-4.125,-4.137,-4.1501,-4.1576,-4.1708,-4.1804,-4.1623,-4.1299,-4.0646,-4.036,-4.0307,-4.0272,-4.0255,-3.9878,-3.9337,-3.9349,-3.9566,-3.9428,-3.9231,-4.3722,-4.3722,-4.3698,-4.3895,-4.42,-4.418,-4.4118,-4.4051,-4.3984,-4.3939,-4.3893,-4.3786,-4.3605,-4.3272,-4.3193,-4.355,-4.3976,-4.3855,-4.4352,-4.4874,-4.4766,-4.4564,-4.4446,-4.415,-4.3428,-4.3192,-4.2872,-4.2632,-4.2506,-4.2555,-4.2398,-4.2258,-4.2167,-4.2075,-4.1388,-4.1081,-4.1224,-4.1471,-4.1749,-4.1933,-4.1973,-4.1585,-4.0772,-3.9656,-3.9349,-3.8626,-3.7916,-3.7631,-3.7757,-3.7951,-3.802,-3.8121,-3.8269,-3.8401,-3.8515,-3.8634,-3.8752,-3.8942,-3.9142,-3.9197,-3.9237,-3.9237,-3.9229,-3.9202,-3.9193,-3.9207,-3.9234,-3.9215,-3.8984,-3.9037,-3.93,-3.9158,-3.9252,-3.9494,-3.975,-3.9901,-3.9963,-3.9834,-3.9799,-4.0037,-4.0265,-4.0476,-4.0525,-4.0344,-4.0317,-4.0276,-4.0378,-4.0542,-4.0722,-4.096,-4.1041,-4.1139,-4.1278,-4.1376,-4.167,-4.1854,-4.2176,-4.2347,-4.2532,-4.2589,-4.2592,-4.2558,-4.2268,-4.2159,-4.1886,-4.1703,-4.1612,-4.1051,-4.0472,-4.0178,-3.9916,-3.9984,-4.0064,-3.9937,-3.9835,-4.3903,-4.3958,-4.4307,-4.4776,-4.5235,-4.5243,-4.5121,-4.5038,-4.491,-4.49,-4.4833,-4.4584,-4.4303,-4.4132,-4.3955,-4.3973,-4.4426,-4.4484,-4.4638,-4.4582,-4.4304,-4.3824,-4.3484,-4.2875,-4.2499,-4.2184,-4.2207,-4.209,-4.2072,-4.2103,-4.2231,-4.243,-4.2284,-4.23,-4.2132,-4.1752,-4.1624,-4.1878,-4.1566,-4.1442,-4.129,-4.0605,-3.9824,-3.9106,-3.8531,-3.7996,-3.7365,-3.7299,-3.7411,-3.7595,-3.7757,-3.7898,-3.8086,-3.8188,-3.8322,-3.8399,-3.8476,-3.8523,-3.8722,-3.8855,-3.8993,-3.9036,-3.9036,-3.8993,-3.8935,-3.8993,-3.9017,-3.9036,-3.9064,-3.9132,-3.9275,-3.9322,-3.9582,-3.9739,-3.9971,-4.0119,-4.0297,-4.0429,-4.0611,-4.0906,-4.112,-4.1178,-4.1115,-4.0695,-4.0544,-4.0531,-4.0715,-4.1035,-4.133,-4.1638,-4.18,-4.188,-4.2165,-4.2228,-4.2386,-4.2688,-4.3006,-4.3066,-4.3249,-4.3232,-4.296,-4.2849,-4.2647,-4.2659,-4.2631,-4.2352,-4.188,-4.1214,-4.0656,-4.0786,-4.0839,-4.057,-4.0494,-4.0354,-4.0313,-4.2947,-4.3015,-4.4484,-4.502,-4.5087,-4.5038,-4.4998,-4.4907,-4.4846,-4.4732,-4.4573,-4.4262,-4.4051,-4.3878,-4.3699,-4.3516,-4.336,-4.3123,-4.3228,-4.3132,-4.2796,-4.2767,-4.257,-4.2415,-4.2163,-4.1909,-4.1823,-4.1801,-4.178,-4.1714,-4.1862,-4.2026,-4.2055,-4.203,-4.1903,-4.1669,-4.152,-4.1466,-4.0849,-4.0407,-4.0154,-3.9547,-3.875,-3.8157,-3.7864,-3.7536,-3.6901,-3.6987,-3.7143,-3.7334,-3.7503,-3.7721,-3.7897,-3.7984,-3.8121,-3.8223,-3.8203,-3.8274,-3.8445,-3.8632,-3.875,-3.8792,-3.8803,-3.8792,-3.8732,-3.8795,-3.884,-3.9017,-3.9257,-3.9297,-3.9272,-3.9226,-3.99,-4.0229,-4.0558,-4.0813,-4.1079,-4.1393,-4.1594,-4.1858,-4.1945,-4.1918,-4.1999,-4.1659,-4.122,-4.1171,-4.137,-4.1707,-4.1932,-4.2202,-4.2465,-4.267,-4.3056,-4.3197,-4.3239,-4.3336,-4.3176,-4.3051,-4.3105,-4.305,-4.292,-4.2842,-4.2688,-4.2552,-4.2391,-4.2269,-4.211,-4.1532,-4.1277,-4.1682,-4.1676,-4.1113,-4.0839,-4.0718,-4.0683,-4.2049,-4.2087,-4.317,-4.3879,-4.4341,-4.4786,-4.495,-4.4833,-4.4757,-4.4573,-4.4292,-4.4051,-4.3832,-4.3651,-4.3427,-4.3214,-4.3013,-4.2918,-4.2764,-4.2607,-4.2468,-4.2328,-4.2205,-4.2058,-4.1909,-4.1758,-4.1648,-4.156,-4.1538,-4.1431,-4.1408,-4.1538,-4.1644,-4.1688,-4.1578,-4.1179,-4.0885,-4.0574,-3.9874,-3.9289,-3.9071,-3.8451,-3.7793,-3.7551,-3.7082,-3.6932,-3.6664,-3.6766,-3.6926,-3.7085,-3.7259,-3.7538,-3.7811,-3.7882,-3.8042,-3.8165,-3.8148,-3.831,-3.8561,-3.8619,-3.8485,-3.8528,-3.8559,-3.8617,-3.8718,-3.8967,-3.9253,-3.9483,-3.9806,-3.9945,-4.0207,-4.0403,-4.0763,-4.0974,-4.1192,-4.1474,-4.1787,-4.209,-4.2142,-4.2202,-4.2394,-4.2515,-4.2642,-4.2742,-4.2236,-4.1861,-4.2106,-4.2307,-4.2479,-4.2621,-4.2791,-4.2903,-4.3206,-4.3301,-4.3304,-4.3233,-4.3178,-4.3068,-4.2974,-4.2861,-4.2746,-4.257,-4.243,-4.2269,-4.2145,-4.2019,-4.1892,-4.1762,-4.1719,-4.1784,-4.1631,-4.123,-4.1076,-4.0989,-4.0942,-4.1189,-4.1198,-4.1909,-4.2675,-4.3471,-4.4246,-4.4542,-4.4481,-4.4572,-4.4421,-4.4033,-4.3846,-4.3651,-4.341,-4.3251,-4.3013,-4.2843,-4.2727,-4.2588,-4.2427,-4.2287,-4.2145,-4.1977,-4.1827,-4.1714,-4.1648,-4.1475,-4.134,-4.129,-4.118,-4.1111,-4.1134,-4.1186,-4.1226,-4.1166,-4.0508,-4.0006,-3.9765,-3.8829,-3.8195,-3.8052,-3.7372,-3.6933,-3.6869,-3.6551,-3.6422,-3.6377,-3.6482,-3.6647,-3.6936,-3.722,-3.7558,-3.7837,-3.8093,-3.831,-3.8365,-3.8473,-3.8705,-3.8976,-3.9139,-3.8931,-3.9128,-3.9161,-3.9108,-3.9108,-3.9471,-3.9831,-3.997,-4.046,-4.0859,-4.0959,-4.0905,-4.1188,-4.1401,-4.1646,-4.1937,-4.2335,-4.264,-4.2548,-4.2495,-4.2724,-4.2937,-4.2652,-4.2704,-4.2586,-4.2283,-4.2481,-4.2639,-4.2771,-4.2885,-4.2958,-4.3014,-4.3087,-4.3087,-4.3068,-4.3103,-4.3101,-4.286,-4.2764,-4.2667,-4.2528,-4.2348,-4.2184,-4.2058,-4.1931,-4.1801,-4.167,-4.1565,-4.1582,-4.1648,-4.1403,-4.1152,-4.1059,-4.0918,-4.0918,-4.032,-4.031,-4.1021,-4.1768,-4.2481,-4.3324,-4.3623,-4.3637,-4.4025,-4.4042,-4.3601,-4.3411,-4.319,-4.2995,-4.2705,-4.2464,-4.2326,-4.2354,-4.2304,-4.2026,-4.2026,-4.1938,-4.1805,-4.167,-4.1515,-4.1403,-4.1249,-4.1152,-4.107,-4.0918,-4.0823,-4.0704,-4.0686,-4.0806,-4.1071,-4.0233,-3.9813,-3.9526,-3.7991,-3.7319,-3.7006,-3.6471,-3.6249,-3.6146,-3.6143,-3.6062,-3.6328,-3.65,-3.6717,-3.7089,-3.774,-3.8141,-3.8392,-3.8982,-3.929,-3.9382,-3.9412,-3.9496,-3.9603,-4.0051,-4.011,-3.9877,-3.9734,-3.9878,-4.004,-4.0256,-4.0384,-4.0456,-4.0763,-4.0852,-4.0865,-4.1006,-4.1516,-4.1806,-4.2056,-4.2288,-4.2704,-4.2868,-4.274,-4.2615,-4.2985,-4.3227,-4.2777,-4.2541,-4.2614,-4.265,-4.2849,-4.2975,-4.3012,-4.3192,-4.3265,-4.3391,-4.3426,-4.3607,-4.3603,-4.3185,-4.2999,-4.2737,-4.264,-4.2647,-4.2456,-4.2222,-4.2076,-4.1905,-4.1758,-4.1648,-4.1515,-4.1403,-4.1403,-4.1358,-4.1279,-4.1093,-4.0959,-4.0871,-4.0864,-4.0118,-4.0086,-4.029,-4.0479,-4.0836,-4.2179,-4.2674,-4.2547,-4.2567,-4.2422,-4.2108,-4.1881,-4.1644,-4.1451,-4.1342,-4.1191,-4.1053,-4.1451,-4.1395,-4.1324,-4.157,-4.1705,-4.1626,-4.1453,-4.1312,-4.1192,-4.1076,-4.0853,-4.068,-4.0558,-4.0436,-4.0313,-4.0246,-4.0419,-4.0278,-3.9575,-3.8745,-3.8448,-3.7234,-3.6236,-3.623,-3.5982,-3.5841,-3.5858,-3.5941,-3.6168,-3.6564,-3.6798,-3.7162,-3.7655,-3.8446,-3.8765,-3.9004,-3.9544,-3.9626,-3.9587,-3.9526,-3.9696,-4.0151,-4.0639,-4.0715,-4.0354,-4.017,-4.0206,-4.0045,-4.0584,-4.0785,-4.1056,-4.1399,-4.1583,-4.1836,-4.1877,-4.2187,-4.2225,-4.2391,-4.254,-4.2777,-4.2813,-4.2759,-4.2685,-4.2865,-4.2808,-4.2491,-4.2393,-4.2487,-4.2673,-4.2833,-4.2871,-4.2908,-4.3395,-4.3646,-4.3862,-4.4005,-4.4219,-4.4216,-4.3834,-4.3524,-4.3353,-4.3107,-4.2897,-4.2632,-4.2363,-4.2076,-4.1995,-4.1736,-4.1515,-4.138,-4.1267,-4.1152,-4.1076,-4.1047,-4.1,-4.0912,-4.0817,-4.0769,-3.9986,-3.9933,-3.9848,-3.9739,-3.9885,-4.1191,-4.1795,-4.1781,-4.1586,-4.1326,-4.1123,-4.0891,-4.0722,-4.051,-4.0255,-4.0123,-4.006,-4.035,-4.0734,-4.0662,-4.0989,-4.1222,-4.1276,-4.1203,-4.1059,-4.0935,-4.0769,-4.0558,-4.037,-4.0188,-3.9969,-3.9841,-3.9841,-3.9961,-3.9765,-3.9127,-3.8625,-3.837,-3.7517,-3.6763,-3.6706,-3.6541,-3.6432,-3.6449,-3.6506,-3.6664,-3.7085,-3.7467,-3.7809,-3.8493,-3.8992,-3.9377,-3.9598,-3.9898,-4.0049,-4.0056,-4.0061,-4.0198,-4.054,-4.0797,-4.0691,-4.0319,-4.0326,-4.0471,-4.0527,-4.1005,-4.1437,-4.1795,-4.2207,-4.243,-4.2561,-4.2626,-4.2537,-4.2578,-4.2422,-4.2544,-4.2492,-4.251,-4.249,-4.245,-4.2481,-4.2382,-4.2356,-4.2332,-4.2344,-4.2575,-4.2803,-4.2933,-4.3158,-4.3678,-4.4166,-4.4327,-4.4468,-4.4612,-4.4662,-4.4492,-4.4199,-4.3981,-4.3732,-4.3504,-4.318,-4.2943,-4.2516,-4.2031,-4.1735,-4.1455,-4.1284,-4.1169,-4.1029,-4.0935,-4.0905,-4.0864,-4.084,-4.0769,-4.0673,-3.9818,-3.9762,-3.9717,-3.9611,-3.9652,-4.0352,-4.0974,-4.1408,-4.1163,-4.0921,-4.0708,-4.0342,-4.0094,-4.0131,-3.9982,-3.9741,-3.9661,-3.9651,-3.9817,-4.0137,-4.0302,-4.0593,-4.0822,-4.0843,-4.071,-4.06,-4.0429,-4.0188,-4.0062,-3.9713,-3.9435,-3.9276,-3.9345,-3.9441,-3.9315,-3.9185,-3.8922,-3.8582,-3.7973,-3.7412,-3.7303,-3.7424,-3.7292,-3.7251,-3.7254,-3.7436,-3.7694,-3.7922,-3.8227,-3.8744,-3.9319,-3.9743,-4.0226,-4.0786,-4.1029,-4.1071,-4.0949,-4.0705,-4.0562,-4.0635,-4.0618,-4.0452,-4.0931,-4.1343,-4.1459,-4.1468,-4.1864,-4.2313,-4.2709,-4.2926,-4.3103,-4.2939,-4.2772,-4.2564,-4.2263,-4.2218,-4.2094,-4.2076,-4.2033,-4.2065,-4.2184,-4.2229,-4.2392,-4.2401,-4.2926,-4.3504,-4.39,-4.4289,-4.446,-4.4488,-4.4846,-4.4843,-4.4968,-4.4965,-4.5033,-4.5243,-4.4946,-4.4749,-4.4573,-4.4343,-4.3957,-4.3451,-4.2969,-4.2412,-4.1803,-4.1434,-4.1186,-4.1006,-4.0888,-4.0817,-4.0769,-4.0721,-4.068,-4.0648,-4.0576,-3.9048,-3.9483,-3.9452,-3.935,-3.9229,-3.9299,-3.9424,-3.9579,-3.9461,-3.9257,-3.889,-3.8824,-3.8814,-3.8402,-3.8347,-3.8177,-3.8199,-3.8287,-3.8397,-3.8789,-3.945,-3.9761,-4.0034,-4.026,-4.0252,-4.0138,-3.9935,-3.9755,-3.9494,-3.9175,-3.8876,-3.8683,-3.8832,-3.8914,-3.9038,-3.9136,-3.8998,-3.874,-3.8136,-3.7942,-3.7784,-3.7727,-3.7702,-3.7719,-3.7686,-3.7903,-3.8337,-3.8527,-3.8933,-3.9647,-4.011,-4.0449,-4.0524,-4.0814,-4.0924,-4.0669,-4.05,-4.0303,-4.0271,-4.0246,-4.0229,-4.0229,-4.0524,-4.0871,-4.1221,-4.1598,-4.2044,-4.2521,-4.2922,-4.3098,-4.3296,-4.3237,-4.3063,-4.2801,-4.2556,-4.2434,-4.2334,-4.2177,-4.2154,-4.227,-4.2369,-4.2794,-4.2882,-4.3253,-4.3817,-4.4483,-4.5044,-4.5401,-4.5637,-4.5596,-4.5565,-4.5583,-4.5748,-4.5855,-4.6159,-4.6427,-4.5922,-4.553,-4.5356,-4.5035,-4.4468,-4.3925,-4.3406,-4.2753,-4.2027,-4.1447,-4.1006,-4.0847,-4.0769,-4.068,-4.0631,-4.0607,-4.0558,-4.0485,-4.0453,-3.7929,-3.8294,-3.8564,-3.873,-3.8778,-3.8652,-3.8562,-3.8496,-3.8483,-3.8302,-3.8101,-3.8021,-3.7774,-3.7666,-3.7518,-3.7328,-3.7169,-3.7341,-3.7516,-3.7979,-3.859,-3.8995,-3.9309,-3.9681,-3.9885,-3.9746,-3.9504,-3.9309,-3.9013,-3.8667,-3.8359,-3.8234,-3.8331,-3.8483,-3.865,-3.8821,-3.8873,-3.8695,-3.846,-3.8244,-3.8144,-3.8077,-3.8143,-3.8102,-3.8102,-3.847,-3.895,-3.9143,-3.9573,-4.0062,-4.0355,-4.0387,-4.0419,-4.0534,-4.051,-4.0263,-4.0096,-3.9893,-3.9764,-3.9687,-3.9687,-3.9713,-3.9833,-4.0113,-4.0546,-4.0954,-4.1712,-4.2403,-4.2802,-4.3156,-4.3355,-4.3493,-4.3294,-4.3138,-4.2992,-4.2871,-4.2689,-4.2489,-4.2538,-4.2663,-4.302,-4.3506,-4.3877,-4.4219,-4.4706,-4.5376,-4.5816,-4.6056,-4.6318,-4.6418,-4.6387,-4.6347,-4.6624,-4.6861,-4.7088,-4.7066,-4.6577,-4.6125,-4.6069,-4.5652,-4.5012,-4.4437,-4.3944,-4.309,-4.2152,-4.1732,-4.1381,-4.0896,-4.0697,-4.0634,-4.0571,-4.047,-4.0421,-4.0362,-4.0305,-3.6638,-3.666,-3.7262,-3.7728,-3.8143,-3.8075,-3.7965,-3.7911,-3.7854,-3.7962,-3.7929,-3.7721,-3.7558,-3.7411,-3.7164,-3.697,-3.6771,-3.6724,-3.6766,-3.719,-3.7735,-3.8109,-3.8411,-3.9092,-3.9055,-3.9113,-3.9005,-3.8592,-3.8535,-3.823,-3.796,-3.7831,-3.7943,-3.8087,-3.8217,-3.8544,-3.8624,-3.8608,-3.8813,-3.8891,-3.891,-3.8989,-3.905,-3.9076,-3.9043,-3.9109,-3.9355,-3.952,-3.9616,-3.9798,-3.9926,-3.9986,-4.0062,-4.0037,-3.9961,-3.9807,-3.9625,-3.9425,-3.9265,-3.9158,-3.9061,-3.9104,-3.9191,-3.9494,-3.9951,-4.0612,-4.1443,-4.2142,-4.2586,-4.3142,-4.3423,-4.3739,-4.3721,-4.3541,-4.3379,-4.3157,-4.2893,-4.2817,-4.2971,-4.3193,-4.3739,-4.4252,-4.4711,-4.5047,-4.5322,-4.6105,-4.6418,-4.6613,-4.6742,-4.6903,-4.7025,-4.6949,-4.6976,-4.7088,-4.7088,-4.7043,-4.6911,-4.6689,-4.6537,-4.63,-4.5644,-4.5047,-4.4485,-4.3642,-4.2777,-4.2302,-4.1879,-4.1488,-4.1098,-4.0736,-4.0644,-4.0374,-4.0281,-4.0298,-4.0213,-3.5805,-3.6135,-3.6225,-3.629,-3.6325,-3.6244,-3.649,-3.6823,-3.6649,-3.697,-3.7578,-3.7449,-3.726,-3.7126,-3.6834,-3.6632,-3.6447,-3.6255,-3.6078,-3.6288,-3.6778,-3.7009,-3.6928,-3.7618,-3.7852,-3.7892,-3.7807,-3.7806,-3.7819,-3.7653,-3.7462,-3.7285,-3.7462,-3.7682,-3.7786,-3.8132,-3.8403,-3.846,-3.8683,-3.8903,-3.8887,-3.8871,-3.8887,-3.8942,-3.8942,-3.9067,-3.9299,-3.9432,-3.9563,-3.9746,-3.9746,-3.9781,-3.9781,-3.9599,-3.9494,-3.9388,-3.9121,-3.8914,-3.8805,-3.8722,-3.8667,-3.875,-3.8903,-3.9148,-3.9634,-4.0404,-4.1153,-4.1807,-4.2453,-4.301,-4.3542,-4.3887,-4.4113,-4.3922,-4.3748,-4.3439,-4.3145,-4.3274,-4.3418,-4.3914,-4.4492,-4.4939,-4.5386,-4.5775,-4.6101,-4.6317,-4.6489,-4.6631,-4.6761,-4.6909,-4.7285,-4.7255,-4.6998,-4.702,-4.7074,-4.6934,-4.6819,-4.6661,-4.6489,-4.6315,-4.613,-4.5416,-4.4676,-4.4177,-4.3525,-4.297,-4.2552,-4.2339,-4.1912,-4.1299,-4.1027,-4.0926,-4.0578,-4.0519,-4.029,-3.4635,-3.4851,-3.5033,-3.5217,-3.5354,-3.5306,-3.5436,-3.5563,-3.51,-3.5345,-3.6249,-3.6698,-3.6913,-3.6736,-3.6489,-3.6284,-3.611,-3.5871,-3.5701,-3.57,-3.5894,-3.6089,-3.6216,-3.637,-3.6712,-3.6859,-3.6922,-3.6998,-3.7233,-3.724,-3.7135,-3.703,-3.7194,-3.7358,-3.7447,-3.7902,-3.8193,-3.8237,-3.8408,-3.856,-3.8655,-3.8628,-3.8655,-3.8711,-3.8794,-3.8958,-3.9094,-3.9255,-3.9362,-3.9441,-3.9441,-3.9319,-3.9239,-3.9077,-3.9013,-3.886,-3.8667,-3.8387,-3.842,-3.8412,-3.8444,-3.8561,-3.8962,-3.9334,-3.9676,-4.0447,-4.1207,-4.1896,-4.2427,-4.3004,-4.3614,-4.4034,-4.4085,-4.3989,-4.3955,-4.3816,-4.3766,-4.3844,-4.4075,-4.4485,-4.4922,-4.5234,-4.5664,-4.6014,-4.6291,-4.6431,-4.6588,-4.7031,-4.7066,-4.7159,-4.7494,-4.7589,-4.7376,-4.7299,-4.7417,-4.7104,-4.6661,-4.6542,-4.6451,-4.6154,-4.587,-4.5388,-4.482,-4.4475,-4.4053,-4.3537,-4.3192,-4.2932,-4.2522,-4.1884,-4.1696,-4.1619,-4.123,-4.0908,-4.0976,-3.3517,-3.3397,-3.3793,-3.4226,-3.4588,-3.4606,-3.4534,-3.4317,-3.3486,-3.3516,-3.4297,-3.5416,-3.6041,-3.6212,-3.6015,-3.5933,-3.5788,-3.5492,-3.5304,-3.5332,-3.5544,-3.5399,-3.5429,-3.5656,-3.5808,-3.6085,-3.628,-3.6695,-3.7072,-3.7029,-3.6984,-3.6969,-3.7105,-3.7254,-3.7433,-3.7698,-3.7992,-3.8135,-3.8294,-3.8379,-3.8408,-3.8391,-3.8476,-3.8532,-3.8632,-3.8743,-3.8876,-3.8996,-3.9094,-3.9094,-3.911,-3.9073,-3.9051,-3.8977,-3.9039,-3.8959,-3.8872,-3.8666,-3.8528,-3.852,-3.8456,-3.8534,-3.9124,-3.9632,-4.0025,-4.0672,-4.1442,-4.1976,-4.2532,-4.2927,-4.3535,-4.3993,-4.401,-4.401,-4.4039,-4.4097,-4.4162,-4.4243,-4.4541,-4.4872,-4.5186,-4.5468,-4.5838,-4.6189,-4.6435,-4.6551,-4.6892,-4.7354,-4.7713,-4.7842,-4.8061,-4.8013,-4.7819,-4.7781,-4.7893,-4.7384,-4.6877,-4.6621,-4.6527,-4.6052,-4.5641,-4.526,-4.5008,-4.498,-4.4555,-4.4019,-4.3664,-4.341,-4.2932,-4.2489,-4.2368,-4.2257,-4.1931,-4.1728,-4.1965,-3.315,-3.2832,-3.2833,-3.279,-3.2686,-3.2686,-3.282,-3.2995,-3.2242,-3.2233,-3.2721,-3.2954,-3.3703,-3.5179,-3.4925,-3.4934,-3.5284,-3.5081,-3.5041,-3.5046,-3.4833,-3.4594,-3.4531,-3.4699,-3.4776,-3.5221,-3.5859,-3.6343,-3.6814,-3.6785,-3.6708,-3.6647,-3.6938,-3.709,-3.7165,-3.7524,-3.7934,-3.8078,-3.8221,-3.8379,-3.8294,-3.8307,-3.8391,-3.8476,-3.8548,-3.8616,-3.8683,-3.8794,-3.8832,-3.8832,-3.8848,-3.8958,-3.908,-3.915,-3.9224,-3.9374,-3.9294,-3.9235,-3.9113,-3.9113,-3.9065,-3.9296,-3.9872,-4.0286,-4.0798,-4.1455,-4.2059,-4.2377,-4.2767,-4.2795,-4.3257,-4.3731,-4.3881,-4.3776,-4.3747,-4.3952,-4.408,-4.4179,-4.4378,-4.4769,-4.5123,-4.5484,-4.5883,-4.6267,-4.6695,-4.6916,-4.7372,-4.7826,-4.8233,-4.8435,-4.8653,-4.8522,-4.8374,-4.8414,-4.8547,-4.7779,-4.7247,-4.6943,-4.6537,-4.6005,-4.5571,-4.5247,-4.5052,-4.4927,-4.4818,-4.4459,-4.4135,-4.3742,-4.3591,-4.3215,-4.3058,-4.289,-4.2611,-4.2557,-4.2794]},{"header":{"parameterUnit":"m.s-1","parameterCategory":1,"la1":31.0,"la2":29.5877,"lo1":-88.7671,"lo2":-86.6584,"dx":0.0162,"dy":0.0185,"nx":115,"ny":88,"refTime":"2023-01-28T18:00:00:Z","depth":0,"parameterNumber":3,"parameterNumberName":"V-component_of_WINDS"},"data":[0.0,0.0,0.0,0.0,0.0,0.0,0.0,0.0,0.0,0.0,0.0,0.0,0.0,0.0,0.0,0.0,0.0,0.0,0.0,0.0,0.0,0.0,0.0,0.0,0.0,0.0,0.0,0.0,0.0,0.0,0.0,0.0,0.0,0.0,0.0,0.0,0.0,0.0,0.0,0.0,0.0,0.0,0.0,0.0,0.0,0.0,0.0,0.0,0.0,0.0,0.0,0.0,0.0,0.0,0.0,0.0,0.0,0.0,0.0,0.0,0.0,0.0,0.0,0.0,0.0,0.0,0.0,0.0,0.0,0.0,0.0,0.0,0.0,0.0,0.0,0.0,0.0,0.0,0.0,0.0,0.0,0.0,0.0,0.0,0.0,0.0,0.0,0.0,0.0,0.0,0.0,0.0,0.0,0.0,0.0,0.0,0.0,0.0,0.0,0.0,0.0,0.0,0.0,0.0,0.0,0.0,0.0,0.0,0.0,0.0,0.0,0.0,0.0,0.0,0.0,0.0,0.0,0.0,0.0,0.0,0.0,0.0,0.0,0.0,0.0,0.0,0.0,0.0,0.0,0.0,0.0,0.0,0.0,0.0,0.0,0.0,0.0,0.0,0.0,0.0,0.0,0.0,0.0,0.0,0.0,0.0,0.0,0.0,0.0,0.0,0.0,0.0,0.0,0.0,0.0,0.0,0.0,0.0,0.0,0.0,0.0,0.0,0.0,0.0,0.0,0.0,0.0,0.0,0.0,0.0,0.0,0.0,0.0,0.0,0.0,0.0,0.0,0.0,0.0,0.0,0.0,0.0,0.0,0.0,0.0,0.0,0.0,0.0,0.0,0.0,0.0,0.0,0.0,0.0,0.0,0.0,0.0,0.0,0.0,0.0,0.0,0.0,0.0,0.0,0.0,0.0,0.0,0.0,0.0,0.0,0.0,0.0,0.0,0.0,0.0,0.0,0.0,0.0,0.0,0.0,0.0,0.0,0.0,0.0,0.0,0.0,0.0,0.0,0.0,0.0,0.0,0.0,0.0,0.0,0.0,0.0,0.0,0.0,0.0,0.0,0.0,0.0,0.0,0.0,0.0,0.0,0.0,0.0,0.0,0.0,0.0,0.0,0.0,0.0,0.0,0.0,0.0,0.0,0.0,0.0,0.0,0.0,0.0,0.0,0.0,0.0,0.0,0.0,0.0,0.0,0.0,0.0,0.0,0.0,0.0,0.0,0.0,0.0,0.0,0.0,0.0,0.0,0.0,0.0,0.0,0.0,0.0,0.0,0.0,0.0,0.0,0.0,0.0,0.0,0.0,0.0,0.0,0.0,0.0,0.0,0.0,0.0,0.0,0.0,0.0,0.0,0.0,0.0,0.0,0.0,0.0,0.0,0.0,0.0,0.0,0.0,0.0,0.0,0.0,0.0,0.0,0.0,0.0,0.0,0.0,0.0,0.0,0.0,0.0,0.0,0.0,0.0,0.0,0.0,0.0,0.0,0.0,0.0,0.0,0.0,0.0,0.0,0.0,0.0,0.0,0.0,0.0,0.0,0.0,0.0,0.0,0.0,0.0,0.0,0.0,0.0,0.0,0.0,0.0,0.0,0.0,0.0,0.0,0.0,0.0,0.0,0.0,0.0,0.0,0.0,0.0,0.0,0.0,0.0,0.0,0.0,0.0,0.0,0.0,0.0,0.0,0.0,0.0,0.0,0.0,0.0,0.0,0.0,0.0,0.0,0.0,0.0,0.0,0.0,0.0,0.0,0.0,0.0,0.0,0.0,0.0,0.0,0.0,0.0,0.0,0.0,0.0,0.0,0.0,0.0,0.0,0.0,0.0,0.0,0.0,0.0,0.0,0.0,0.0,0.0,0.0,0.0,0.0,0.0,0.0,0.0,0.0,0.0,0.0,0.0,0.0,0.0,0.0,0.0,0.0,0.0,0.0,0.0,0.0,0.0,0.0,0.0,0.0,0.0,0.0,0.0,0.0,0.0,0.0,0.0,0.0,0.0,0.0,0.0,0.0,0.0,0.0,0.0,0.0,0.0,0.0,0.0,0.0,0.0,0.0,0.0,0.0,0.0,0.0,0.0,0.0,0.0,0.0,0.0,0.0,0.0,0.0,0.0,0.0,0.0,0.0,0.0,0.0,0.0,0.0,0.0,0.0,0.0,0.0,0.0,0.0,0.0,0.0,0.0,0.0,0.0,0.0,0.0,0.0,0.0,0.0,0.0,0.0,0.0,0.0,0.0,0.0,0.0,0.0,0.0,0.0,0.0,0.0,0.0,0.0,0.0,0.0,0.0,0.0,0.0,0.0,0.0,0.0,0.0,0.0,0.0,0.0,0.0,0.0,0.0,0.0,0.0,0.0,0.0,0.0,0.0,0.0,0.0,0.0,0.0,0.0,0.0,0.0,0.0,0.0,0.0,0.0,0.0,0.0,0.0,0.0,0.0,0.0,0.0,0.0,0.0,0.0,0.0,0.0,0.0,0.0,0.0,0.0,0.0,0.0,0.0,0.0,0.0,0.0,0.0,0.0,0.0,0.0,0.0,0.0,0.0,0.0,0.0,0.0,0.0,0.0,0.0,0.0,0.0,0.0,0.0,0.0,0.0,0.0,0.0,0.0,0.0,0.0,0.0,0.0,0.0,0.0,0.0,0.0,0.0,0.0,0.0,0.0,0.0,0.0,0.0,0.0,0.0,0.0,0.0,0.0,0.0,0.0,0.0,0.0,0.0,0.0,0.0,0.0,0.0,0.0,0.0,0.0,0.0,0.0,0.0,0.0,0.0,0.0,0.0,0.0,0.0,0.0,0.0,0.0,0.0,0.0,0.0,0.0,0.0,0.0,0.0,0.0,0.0,0.0,0.0,0.0,0.0,0.0,0.0,0.0,0.0,0.0,0.0,0.0,0.0,0.0,0.0,0.0,0.0,0.0,0.0,0.0,0.0,0.0,0.0,0.0,0.0,0.0,0.0,0.0,0.0,0.0,0.0,0.0,0.0,0.0,0.0,0.0,0.0,0.0,0.0,0.0,0.0,0.0,0.0,0.0,0.0,0.0,0.0,0.0,0.0,0.0,0.0,0.0,0.0,0.0,0.0,0.0,0.0,0.0,0.0,0.0,0.0,0.0,0.0,0.0,0.0,0.0,0.0,0.0,0.0,0.0,0.0,0.0,0.0,0.0,0.0,0.0,0.0,0.0,0.0,0.0,0.0,0.0,0.0,0.0,0.0,0.0,0.0,0.0,0.0,0.0,0.0,0.0,0.0,0.0,0.0,0.0,0.0,0.0,0.0,0.0,0.0,0.0,0.0,0.0,0.0,0.0,0.0,0.0,0.0,0.0,0.0,0.0,0.0,0.0,0.0,0.0,0.0,0.0,0.0,0.0,0.0,0.0,0.0,0.0,0.0,0.0,0.0,0.0,0.0,0.0,0.0,0.0,0.0,0.0,0.0,0.0,0.0,0.0,0.0,0.0,0.0,0.0,0.0,0.0,0.0,0.0,0.0,0.0,0.0,0.0,0.0,0.0,0.0,0.0,0.0,0.0,0.0,0.0,0.0,0.0,0.0,0.0,0.0,0.0,0.0,0.0,0.0,0.0,0.0,0.0,0.0,0.0,0.0,0.0,0.0,0.0,0.0,0.0,0.0,0.0,0.0,0.0,0.0,0.0,0.0,0.0,0.0,0.0,0.0,0.0,0.0,0.0,0.0,0.0,0.0,0.0,0.0,0.0,0.0,0.0,0.0,0.0,0.0,0.0,0.0,0.0,0.0,0.0,0.0,0.0,0.0,0.0,0.0,0.0,0.0,0.0,0.0,0.0,0.0,0.0,0.0,0.0,0.0,0.0,0.0,0.0,0.0,0.0,0.0,0.0,0.0,0.0,0.0,0.0,0.0,0.0,0.0,0.0,0.0,0.0,0.0,0.0,0.0,0.0,0.0,0.0,0.0,0.0,0.0,0.0,0.0,0.0,0.0,0.0,0.0,0.0,0.0,0.0,0.0,0.0,0.0,0.0,0.0,0.0,0.0,0.0,0.0,0.0,0.0,0.0,0.0,0.0,0.0,0.0,0.0,0.0,0.0,0.0,0.0,0.0,0.0,0.0,0.0,0.0,0.0,0.0,0.0,0.0,0.0,0.0,0.0,0.0,0.0,0.0,0.0,0.0,0.0,0.0,0.0,0.0,0.0,0.0,0.0,0.0,0.0,0.0,0.0,0.0,0.0,0.0,0.0,0.0,0.0,0.0,0.0,0.0,0.0,0.0,0.0,0.0,0.0,0.0,0.0,0.2101,0.0,0.0,0.0,0.0,0.0,0.0,0.0,0.0,0.0,0.0,0.0,0.0,0.0,0.0,0.0,0.0,0.0,0.0,0.0,0.0,0.0,0.0,0.0,0.0,0.0,0.0,0.0,0.0,0.0,0.0,0.0,0.0,0.0,0.0,0.0,0.0,0.0,0.0,0.0,0.0,0.0,0.0,0.0,0.0,0.0,0.0,0.0,0.0,0.0,0.0,0.0,0.0,0.0,0.0,0.0,0.0,0.0,0.0,0.0,0.0,0.0,0.0,0.0,0.0,0.0,0.0,0.0,0.0,0.0,0.0,0.0,0.0,0.0,0.0,0.0,0.0,0.0,0.0,0.0,0.0,0.0,0.0,0.0,0.0,0.0,0.0,0.0,0.0,0.0,0.0,0.0,0.0,0.0,0.0,0.0,0.0,0.0,0.0,0.0,0.0,0.0,0.0,0.0,0.0,0.0,0.0,0.0,0.0,0.0,0.0,0.0109,0.0415,0.0843,0.1386,0.2059,0.0,0.0,0.0,0.0,0.0,0.0,0.0,0.0,0.0,0.0,0.0,0.0,0.0,0.0,0.0,0.0,0.0,0.0,0.0,0.0,0.0,0.0,0.0,0.0,0.0,0.0,0.0,0.0,0.0,0.0,0.0,0.0,0.0,0.0,0.0,0.0,0.0,0.0,0.0,0.0,0.0,0.0,0.0,0.0,0.0,0.0,0.0,0.0,0.0,0.0,0.0,0.0,0.0,0.0,0.0,0.0,0.0,0.0,0.0,0.0,0.0,0.0,0.0,0.0,0.0,0.0,0.0,0.0,0.0,0.0,0.0,0.0,0.0,0.0,0.0,0.0,0.0,0.0,0.0,0.0,0.0,0.0,0.0,0.0,0.0,0.0,0.0,0.0,0.0,0.0,0.0,0.0,0.0,0.0,0.0,0.0,0.0,0.0,0.0,0.0,0.0,0.0,0.0,0.0,0.0,0.0,0.0,0.0,0.0,0.0,0.0,0.0,0.056,0.124,0.2205,0.0,0.0,0.0,0.0,0.0,0.0,0.0,0.0,0.0,0.0,0.0,0.0,0.0,0.0,0.0,0.0,0.0,0.0,0.0,0.0,0.0,0.0,0.0,0.0,0.0,0.0,0.0,0.0,0.0,0.0,0.0,0.0,0.0,0.0,0.0,0.0,0.0,0.0,0.0,0.0,0.0,0.0,0.0,0.0,0.0,0.0,0.0,0.0,0.0,0.0,0.0,0.0,0.0,0.0,0.0,0.0,0.0,0.0,0.0,0.0,0.0,0.0,0.0,0.0,0.0,0.0,0.0,0.0,0.0,0.0,0.0,0.0,0.0,0.0,0.0,0.0,0.0,0.0,0.0,0.0,0.0,0.0,0.0,0.0,0.0,0.0,0.0,0.0,0.0,0.0,0.0,0.0,0.0,0.0,0.0,0.0,0.0,0.0,0.0,0.0,0.0,0.0,0.0,0.0,0.0,0.0,0.0,0.0,0.0,0.0,-0.0494,-0.0157,0.0291,0.0,0.2744,0.0,0.0,0.0,0.0,0.0,0.0,0.0,0.0,0.0,0.0,0.0,0.0,0.0,0.0,0.0,0.0,0.0,0.0,0.0,0.0,0.0,0.0,0.0,0.0,0.0,0.0,0.0,0.0,0.0,0.0,0.0,0.0,0.0,0.0,0.0,0.0,0.0,0.0,0.0,0.0,0.0,0.0,0.0,0.0,0.0,0.0,0.0,0.0,0.0,0.0,0.0,0.0,0.0,0.0,0.0,0.0,0.0,0.0,0.0,0.0,0.0,0.0,0.0,0.0,0.0,0.0,0.0,0.0,0.0,0.0,0.0,0.0,0.0,0.0,0.0,0.0,0.0,0.0,0.0,0.0,0.0,0.0,0.0,0.0,0.0,0.0,0.0,0.0,0.0,0.0,0.0,0.0,0.0,0.0,0.0,0.0,0.0,0.0,0.0,0.0,0.0,0.0,0.0,0.0,0.0,0.0,0.0,0.0,0.0,0.0,-0.0785,-0.0494,0.0291,0.1324,0.0,0.0,0.0,0.0,0.0,0.0,0.0,0.0,0.0,0.0,0.0,0.0,0.0,0.0,0.0,0.0,0.0,0.0,0.0,0.0,0.0,0.0,0.0,0.0,0.0,0.0,0.0,0.0,0.0,0.0,0.0,0.0,0.0,0.0,0.0,0.0,0.0,0.0,0.0,0.0,0.0,0.0,0.0,0.0,0.0,0.0,0.0,0.0,0.0,0.0,0.0,0.0,0.0,0.0,0.0,0.0,0.0,0.0,0.0,0.0,0.0,0.0,0.0,0.0,0.0,0.0,0.0,0.0,0.0,0.0,0.0,0.0,0.0,0.0,0.0,0.0,0.0,0.0,0.0,0.0,0.0,0.0,0.0,0.0,0.0,0.0,0.0,0.0,0.0,0.0,0.0,0.0,0.0,0.0,0.0,0.0,0.0,0.0,0.0,0.0,0.0,0.0,0.0,0.0,0.0,0.0,0.0,0.0,0.0,0.0,-0.1165,-0.0987,-0.0584,0.0269,0.121,0.2109,0.0,0.0,0.0,0.0,0.0,0.0,0.0,0.0,0.0,0.0,0.0,0.0,0.0,0.0,0.0,0.0,0.0,0.0,0.0,0.0,0.0,0.0,0.0,0.0,0.0,0.0,0.0,0.0,0.0,0.0,0.0,0.0,0.0,0.0,0.0,0.0,0.0,0.0,0.0,0.0,0.0,0.0,0.0,0.0,0.0,0.0,0.0,0.0,0.0,0.0,0.0,0.0,0.0,0.0,0.0,0.0,0.0,0.0,0.0,0.0,0.0,0.0,0.0,0.0,0.0,0.0,0.0,0.0,0.0,0.0,0.0,0.0,0.0,0.0,0.0,0.0,0.0,0.0,0.0,0.0,0.0,0.0,0.0,0.0,0.0,0.0,0.0,0.0,0.0,0.0,0.0,0.0,0.0,0.0,0.0,0.0,0.0,0.0,0.0,0.0,0.0,0.0,0.0,0.0,0.0,0.0,0.0,0.0,-0.1299,-0.1277,-0.1009,-0.0427,0.0135,0.077,0.0,0.0,0.0,0.0,0.0,0.0,0.0,0.0,0.0,0.0,0.0,0.0,0.0,0.0,0.0,0.0,0.0,0.0,0.0,0.0,0.0,0.0,0.0,0.0,0.0,0.0,0.0,0.0,0.0,0.0,0.0,0.0,0.0,0.0,0.0,0.0,0.0,0.0,0.0,0.0,0.0,0.0,0.0,0.0,0.0,0.0,0.0,0.0,0.0,0.0,0.0,0.0,0.0,0.0,0.0,0.0,0.0,0.0,0.0,0.0,0.0,0.0,0.0,0.0,0.0,0.0,0.0,0.0,0.0,0.0,0.0,0.0,0.0,0.0,0.0,0.0,0.0,0.0,0.0,0.0,0.0,0.0,0.0,0.0,0.0,0.0,0.0,0.0,0.0,0.0,0.0,0.0,0.0,0.0,0.0,0.0,0.0,0.0,0.0,0.0,0.0,0.0,0.0,0.0,0.0,0.0,0.0,0.0,0.0,-0.1299,-0.1121,-0.0853,-0.0472,0.0022,0.0583,0.0,0.0,0.0,0.0,0.0,0.0,0.0,0.0,0.0,0.0,0.0,0.0,0.0,0.0,0.0,0.0,0.0,0.0,0.0,0.0,0.0,0.0,0.0,0.0,0.0,0.0,0.0,0.0,0.0,0.0,0.0,0.0,0.0,0.0,0.0,0.0,0.0,0.0,0.0,0.0,0.0,0.0,0.0,0.0,0.0,0.0,0.0,0.0,0.0,0.0,0.0,0.0,0.0,0.0,0.0,0.0,0.0,0.0,0.0,0.0,0.0,0.0,0.0,0.0,0.0,0.0,0.0,0.0,0.0,0.0,0.0,0.0,0.0,0.0,0.0,0.0,0.0,0.0,0.0,0.0,0.0,0.0,0.0,0.0,0.0,0.0,0.0,0.0,0.0,0.0,0.0,0.0,0.0,0.0,0.0,0.0,0.0,0.0,0.0,0.0,0.0,0.0,0.0,0.0,0.0,0.0,0.0,0.0,0.0,-0.1165,0.0,-0.0697,-0.0405,-0.0022,0.049,0.0,0.0,0.0,0.0,0.0,0.0,0.0,0.0,0.0,0.0,0.0,0.0,0.0,0.0,0.0,0.0,0.0,0.0,0.0,0.0,0.0,0.0,0.0,0.0,0.0,0.0,0.0,0.0,0.0,0.0,0.0,0.0,0.0,0.0,0.0,0.0,0.0,0.0,0.0,0.0,0.0,0.0,0.0,0.0,0.0,0.0,0.0,0.0,0.0,0.0,0.0,0.0,0.0,0.0,0.0,0.0,0.0,0.0,0.0,0.0,0.0,0.0,0.0,0.0,0.0,0.0,0.0,0.0,0.0,0.0,0.0,0.0,0.0,0.0,0.0,0.0,0.0,0.0,0.0,0.0,0.0,0.0,0.0,0.0,0.0,0.0,0.0,0.0,0.0,0.0,0.0,0.0,0.0,0.0,0.0,0.0,0.0,0.0,0.0,0.0,0.0,0.0,0.0,0.0,0.0,0.0,0.0,0.0,-0.103,-0.0895,-0.0741,-0.0517,-0.018,0.009,0.049,0.0,0.0,0.0,0.0,0.0,0.0,0.0,0.0,0.0,0.0,0.0,0.0,0.0,0.0,0.0,0.0,0.0,0.0,0.0,0.0,0.0,0.0,0.0,0.0,0.0,0.0,0.0,0.0,0.0,0.0,0.0,0.0,0.0,0.0,0.0,0.0,0.0,0.0,0.0,0.0,0.0,0.0,0.0,0.0,0.0,0.0,0.0,0.0,0.0,0.0,0.0,0.0,0.0,0.0,0.0,0.0,0.0,0.0,0.0,0.0,0.0,0.0,0.0,0.0,0.0,0.0,0.0,0.0,0.0,0.0,0.0,0.0,0.0,0.0,0.0,0.0,0.0,0.0,0.0,0.0,0.0,0.0,0.0,0.0,0.0,0.0,0.0,0.0,0.0,0.0,0.0,0.0,0.0,0.0,0.0,0.0,0.0,0.0,0.0,0.0,0.0,0.0,0.0,0.0,0.0,0.0,0.0,0.0,0.0,-0.0629,-0.045,-0.018,0.0202,0.0337,0.0724,0.0,0.0,0.0,0.0,0.0,0.0,0.0,0.0,0.0,0.0,0.0,0.0,0.0,0.0,0.0,0.0,0.0,0.0,0.0,0.0,0.0,0.0,0.0,0.0,0.0,0.0,0.0,0.0,0.0,0.0,0.0,0.0,0.0,0.0,0.0,0.0,0.0,0.0,0.0,0.0,0.0,0.0,0.0,0.0,0.0,0.0,0.0,0.0,0.0,0.0,0.0,0.0,0.0,0.0,0.0,0.0,0.0,0.0,0.0,0.0,0.0,0.0,0.0,0.0,0.0,0.0,0.0,0.0,0.0,0.0,0.0,0.0,0.0,0.0,0.0,0.0,0.0,0.0,0.0,0.0,0.0,0.0,0.0,0.0,0.0,0.0,0.0,0.0,0.0,0.0,0.0,0.0,0.0,0.0,0.0,0.0,0.0,0.0,0.0,0.0,0.0,0.0,0.0,0.0,0.0,0.0,0.0,0.0,0.0,-0.0157,-0.009,0.018,0.0651,0.0696,0.1025,0.1683,0.0,0.0,0.0,0.0,0.0,0.0,0.0,0.0,0.0,0.0,0.0,0.0,0.0,0.0,0.0,0.0,0.0,0.0,0.0,0.0,0.0,0.0,0.0,0.0,0.0,0.0,0.0,0.0,0.0,0.0,0.0,0.0,0.0,0.0,0.0,0.0,0.0,0.0,0.0,0.0,0.0,0.0,0.0,0.0,0.0,0.0,0.0,0.0,0.0,0.0,0.0,0.0,0.0,0.0,0.0,0.0,0.0,0.0,0.0,0.0,0.0,0.0,0.0,0.0,0.0,0.0,0.0,0.0,0.0,0.0,0.0,0.0,0.0,0.0,0.0,0.0,0.0,0.0,0.0,0.0,0.0,0.0,0.0,0.0,0.0,0.0,0.0,0.0,0.0,0.0,0.0,0.0,0.0,0.0,0.0,0.0,0.0,0.0,0.0,0.0,0.0,0.0,0.0,0.0,0.0,0.0,0.0,0.0,0.0405,0.0315,0.0561,0.1098,0.1145,0.1444,0.0,0.0,0.0,0.0,0.0,0.0,0.0,0.0,0.0,0.0,0.0,0.0,0.0,0.0,0.0,0.0,0.0,0.0,0.0,0.0,0.0,0.0,0.0,0.0,0.0,0.0,0.0,0.0,0.0,0.0,0.0,0.0,0.0,0.0,0.0,0.0,0.0,0.0,0.0,0.0,0.0,0.0,0.0,0.0,0.0,0.0,0.0,0.0,0.0,0.0,0.0,0.0,0.0,0.0,0.0,0.0,0.0,0.0,0.0,0.0,0.0,0.0,0.0,0.0,0.0,0.0,0.0,0.0,0.0,0.0,0.0,0.0,0.0,0.0,0.0,0.0,0.0,0.0,0.0,0.0,0.0,0.0,0.0,0.0,0.0,0.0,0.0,0.0,0.0,0.0,0.0,0.0,0.0,0.0,0.0,0.0,0.0,0.0,0.0,0.0,0.0,0.0,0.0,0.0,0.0,0.0,0.0,0.0,0.0,0.0607,0.0875,0.1142,0.1457,0.1663,0.1992,0.0,0.0,0.0,0.0,0.0,0.0,0.0,0.0,0.0,0.0,0.0,0.0,0.0,0.0,0.0,0.0,0.0,0.0,0.0,0.0,0.0,0.0,0.0,0.0,0.0,0.0,0.0,0.0,0.0,0.0,0.0,0.0,0.0,0.0,0.0,0.0,0.0,0.0,0.0,0.0,0.0,0.0,0.0,0.0,0.0,0.0,0.0,0.0,0.0,0.0,0.0,0.0,0.0,0.0,0.0,0.0,0.0,0.0,0.0,0.0,0.0,0.0,0.0,0.0,0.0,0.0,0.0,0.0,0.0,0.0,0.0,0.0,0.0,0.0,0.0,0.0,0.0,0.0,0.0,0.0,0.0,0.0,0.0,0.0,0.0,0.0,0.0,0.0,0.0,0.0,0.0,0.0,0.0,0.0,0.0,0.0,0.0,0.0,0.0,0.0,0.0,0.0,0.0,0.0,0.0,0.0,0.0,0.0,0.0337,0.0697,0.1121,0.1502,0.1794,0.2077,0.2376,0.0,0.0,0.0,0.0,0.0,0.0,0.0,0.0,0.0,0.0,0.0,0.0,0.0,0.0,0.0,0.0,0.0,0.0,0.0,0.0,0.0,0.0,0.0,0.0,0.0,0.0,0.0,0.0,0.0,0.0,0.0,0.0,0.0,0.0,0.0,0.0,0.0,0.0,0.0,0.0,0.0,0.0,0.0,0.0,0.0,0.0,0.0,0.0,0.0,0.0,0.0,0.0,0.0,0.0,0.0,0.0,0.0,0.0,0.0,0.0,0.0,0.0,0.0,0.0,0.0,0.0,0.0,0.0,0.0,0.0,0.0,0.0,0.0,0.0,0.0,0.0,0.0,0.0,0.0,0.0,0.0,0.0,0.0,0.0,0.0,0.0,0.0,0.0,0.0,0.0,0.0,0.0,0.0,0.0,0.0,0.0,0.0,0.0,0.0,0.0,0.0,0.0,0.0,0.0,0.0,0.0,0.0,0.0,0.0494,0.0719,0.1166,0.1636,0.2091,0.2388,0.2696,0.0,0.0,0.0,0.0,0.0,0.0,0.0,0.0,0.0,0.0,0.0,0.0,0.0,0.0,0.0,0.0,0.0,0.0,0.0,0.0,0.0,0.0,0.0,0.0,0.0,0.0,0.0,0.0,0.0,0.0,0.0,0.0,0.0,0.0,0.0,0.0,0.0,0.0,0.0,0.0,0.0,0.0,0.0,0.0,0.0,0.0,0.0,0.0,0.0,0.0,0.0,0.0,0.0,0.0,0.0,0.0,0.0,0.0,0.0,0.0,0.0,0.0,0.0,0.0,0.0,0.0,0.0,0.0,0.0,0.0,0.0,0.0,0.0,0.0,0.0,0.0,0.0,0.0,0.0,0.0,0.0,0.0,0.0,0.0,0.0,0.0,0.0,0.0,0.0,0.0,0.0,0.0,0.0,0.0,0.0,0.0,0.0,0.0,0.0,0.0,0.0,0.0,0.0,0.0,0.0,0.0,0.0,0.0,0.0382,0.0697,0.1257,0.1727,0.2087,0.2551,0.2923,0.0,0.0,0.0,0.0,0.0,0.0,0.0,0.0,0.0,0.0,0.0,0.0,0.0,0.0,0.0,0.0,0.0,0.0,0.0,0.0,0.0,0.0,0.0,0.0,0.0,0.0,0.0,0.0,0.0,0.0,0.0,0.0,0.0,0.0,0.0,0.0,0.0,0.0,0.0,0.0,0.0,0.0,0.0,0.0,0.0,0.0,0.0,0.0,-0.7203,0.0,0.0,0.0,0.0,0.0,0.0,0.0,0.0,0.0,0.0,0.0,0.0,0.0,0.0,0.0,0.0,0.0,0.0,0.0,0.0,0.0,0.0,0.0,0.0,0.0,0.0,0.0,0.0,0.0,0.0,0.0,0.0,0.0,0.0,0.0,0.0,0.0,0.0,0.0,0.0,0.0,0.0,0.0,0.0,0.0,0.0,0.0,0.0,0.0,0.0,0.0,0.0,0.0,0.0,0.0,0.0,0.0,0.0,0.0,0.027,0.0605,0.1187,0.1682,0.2046,0.2476,0.2869,0.0,0.0,0.0,0.0,0.0,0.0,0.0,0.0,0.0,0.0,0.0,0.0,0.0,0.0,0.0,0.0,0.0,0.0,0.0,0.0,0.0,0.0,0.0,0.0,0.0,0.0,0.0,0.0,0.0,0.0,0.0,0.0,0.0,0.0,0.0,0.0,0.0,0.0,0.0,0.0,0.0,0.0,0.0,0.0,0.0,0.0,0.0,0.0,0.0,0.0,0.0,0.0,0.0,0.0,0.0,0.0,0.0,0.0,0.0,0.0,0.0,0.0,0.0,0.0,0.0,0.0,0.0,0.0,0.0,0.0,0.0,0.0,0.0,0.0,0.0,0.0,0.0,0.0,0.0,0.0,0.0,0.0,0.0,0.0,0.0,0.0,0.0,0.0,0.0,0.0,0.0,0.0,0.0,0.0,0.0,0.0,0.0,0.0,0.0,0.0,0.0,0.0,0.0,0.0,0.0,0.0,0.0,-0.0321,0.0135,0.0493,0.1052,0.1547,0.1953,0.2269,0.2649,0.3116,0.0,0.0,0.0,0.0,0.0,0.0,0.0,0.0,0.0,0.0,0.0,0.0,0.0,0.0,0.0,0.0,0.0,0.0,0.0,0.0,0.0,0.0,0.0,0.0,0.0,0.0,0.0,0.0,0.0,0.0,0.0,0.0,0.0,0.0,0.0,0.0,0.0,0.0,-0.4162,-0.4135,0.0,0.0,0.0,0.0,0.0,0.0,0.0,0.0,-0.7058,0.0,0.0,0.0,0.0,0.0,0.0,0.0,0.0,0.0,0.0,0.0,0.0,0.0,0.0,0.0,0.0,0.0,0.0,0.0,0.0,0.0,0.0,0.0,0.0,0.0,0.0,0.0,0.0,0.0,0.0,0.0,0.0,0.0,0.0,0.0,0.0,0.0,0.0,0.0,0.0,0.0,0.0,0.0,0.0,0.0,0.0,0.0,0.0,0.0,0.0,0.0,0.0,0.0,0.0,0.0,0.0,-0.0975,-0.055,-0.009,0.0404,0.0896,0.1366,0.1817,0.1986,0.2322,0.2813,0.0,0.0,0.0,0.0,0.0,0.0,0.0,0.0,0.0,0.0,0.0,0.0,0.0,0.0,0.0,0.0,0.0,0.0,0.0,0.0,0.0,0.0,0.0,0.0,0.0,0.0,0.0,0.0,0.0,0.0,0.0,0.0,0.0,0.0,0.0,0.0,0.0,0.0,0.0,-0.3852,-0.3935,0.0,0.0,0.0,0.0,0.0,0.0,0.0,0.0,-0.6928,0.0,0.0,0.0,0.0,0.0,0.0,0.0,0.0,0.0,0.0,0.0,0.0,0.0,0.0,0.0,0.0,0.0,0.0,0.0,0.0,0.0,0.0,0.0,0.0,0.0,0.0,0.0,0.0,0.0,0.0,0.0,0.0,0.0,0.0,0.0,0.0,0.0,0.0,0.0,0.0,0.0,0.0,0.0,0.0,0.0,0.0,0.0,0.0,0.0,0.0,0.0,0.0,0.0,0.0,0.0,-0.1249,-0.0718,-0.0247,0.0202,0.0784,0.1254,0.1547,0.1772,0.2052,0.0,0.0,0.0,0.0,0.0,0.0,0.0,0.0,0.0,0.0,0.0,0.0,0.0,0.0,0.0,0.0,0.0,0.0,0.0,0.0,0.0,0.0,0.0,0.0,0.0,0.0,0.0,0.0,0.0,0.0,0.0,0.0,0.0,0.0,0.0,0.0,0.0,0.0,0.0,0.0,-0.3965,-0.3935,-0.3993,0.0,0.0,0.0,0.0,0.0,0.0,-0.6295,-0.6408,0.0,0.0,0.0,0.0,0.0,0.0,0.0,0.0,0.0,0.0,0.0,0.0,0.0,0.0,0.0,0.0,0.0,0.0,0.0,0.0,0.0,0.0,0.0,0.0,0.0,0.0,0.0,0.0,0.0,0.0,0.0,0.0,0.0,0.0,0.0,0.0,0.0,0.0,0.0,0.0,0.0,0.0,0.0,0.0,0.0,0.0,0.0,0.0,0.0,0.0,0.0,0.0,0.0,0.0,0.0,-0.1486,-0.0894,-0.0406,-0.0022,0.0605,0.1052,0.1277,0.1524,0.1771,0.0,0.0,0.0,0.0,0.0,0.0,0.0,0.0,0.0,0.0,0.0,0.0,0.0,0.0,0.0,0.0,0.0,0.0,0.0,0.0,0.0,0.0,0.0,0.0,0.0,0.0,0.0,0.0,0.0,0.0,0.0,0.0,0.0,0.0,0.0,0.0,0.0,0.0,0.0,0.0,0.0,-0.3858,-0.3885,-0.3968,0.0,0.0,0.0,0.0,-0.5477,-0.5637,0.0,0.0,0.0,0.0,0.0,0.0,0.0,0.0,0.0,0.0,0.0,0.0,0.0,0.0,0.0,0.0,0.0,0.0,0.0,0.0,0.0,0.0,0.0,0.0,0.0,0.0,0.0,0.0,0.0,0.0,0.0,0.0,0.0,0.0,0.0,0.0,0.0,0.0,0.0,0.0,0.0,0.0,0.0,0.0,0.0,0.0,0.0,0.0,0.0,0.0,0.0,0.0,0.0,0.0,0.0,0.0,-0.1489,-0.1137,-0.0675,-0.0203,0.027,0.0695,0.1098,0.1165,0.1444,0.0,0.0,0.0,0.0,0.0,0.0,0.0,0.0,0.0,0.0,0.0,0.0,0.0,0.0,0.0,0.0,0.0,0.0,0.0,0.0,0.0,0.0,0.0,0.0,0.0,0.0,0.0,0.0,0.0,0.0,0.0,0.0,0.0,0.0,0.0,0.0,0.0,0.0,0.0,0.0,0.0,-0.3469,-0.3469,-0.3469,-0.3549,0.0,0.0,-0.4401,-0.477,-0.5018,0.0,0.0,0.0,0.0,0.0,0.0,0.0,0.0,0.0,0.0,0.0,0.0,0.0,0.0,0.0,0.0,0.0,0.0,0.0,0.0,0.0,0.0,0.0,0.0,0.0,0.0,0.0,0.0,0.0,0.0,0.0,0.0,0.0,0.0,0.0,0.0,0.0,0.0,0.0,0.0,0.0,0.0,0.0,0.0,0.0,0.0,0.0,0.0,0.0,0.0,0.0,0.0,0.0,0.0,0.0,-0.1909,-0.1616,-0.1215,-0.0794,-0.0315,0.0157,0.0517,0.0741,0.0962,0.1234,0.0,0.0,0.0,0.0,0.0,0.0,0.0,0.0,0.0,0.0,0.0,0.0,0.0,0.0,0.0,0.0,0.0,0.0,0.0,0.0,0.0,0.0,0.0,0.0,0.0,0.0,0.0,0.0,0.0,0.0,0.0,0.0,0.0,0.0,0.0,0.0,0.0,0.0,0.0,0.0,0.0,0.0,-0.3246,-0.316,0.0,0.0,0.0,-0.3766,-0.4215,0.0,0.0,0.0,0.0,0.0,0.0,0.0,0.0,0.0,0.0,0.0,0.0,0.0,0.0,0.0,0.0,0.0,0.0,0.0,0.0,0.0,0.0,0.0,0.0,0.0,0.0,0.0,0.0,0.0,0.0,0.0,0.0,0.0,0.0,0.0,0.0,0.0,0.0,0.0,0.0,0.0,0.0,0.0,0.0,0.0,0.0,0.0,0.0,0.0,0.0,0.0,0.0,0.0,0.0,0.0,0.0,0.0,-0.1765,-0.1306,-0.0877,-0.0457,0.0023,0.0337,0.0494,0.0816,0.0,0.0,0.0,0.0,0.0,0.0,0.0,0.0,0.0,0.0,0.0,0.0,0.0,0.0,0.0,0.0,0.0,0.0,0.0,0.0,0.0,0.0,0.0,0.0,0.0,0.0,0.0,-0.7009,0.0,0.0,0.0,0.0,0.0,0.0,0.0,0.0,0.0,0.0,0.0,0.0,0.0,0.0,-0.3246,-0.3021,-0.2882,-0.2822,0.0,0.0,-0.3188,-0.3658,-0.3827,-0.4079,0.0,0.0,0.0,0.0,0.0,0.0,0.0,0.0,0.0,0.0,0.0,0.0,0.0,0.0,0.0,0.0,0.0,0.0,0.0,0.0,0.0,0.0,0.0,0.0,0.0,0.0,0.0,0.0,0.0,0.0,0.0,0.0,0.0,0.0,0.0,0.0,0.0,0.0,0.0,0.0,0.0,0.0,0.0,0.0,0.0,0.0,0.0,0.0,0.0,0.0,0.0,0.0,0.0,0.0,0.0,-0.1959,-0.151,-0.106,-0.0616,-0.0298,0.0045,0.0472,0.0583,0.08,0.0,0.0,0.0,0.0,0.0,0.0,0.0,0.0,0.0,0.0,0.0,0.0,0.0,0.0,0.0,0.0,0.0,0.0,0.0,0.0,0.0,0.0,0.0,0.0,0.0,0.0,0.0,0.0,0.0,0.0,0.0,0.0,0.0,0.0,0.0,0.0,0.0,0.0,0.0,0.0,0.0,-0.3021,-0.2775,-0.2605,-0.2464,0.0,0.0,-0.2772,-0.2935,-0.3355,-0.3722,-0.3993,0.0,0.0,0.0,0.0,0.0,0.0,0.0,0.0,0.0,0.0,0.0,0.0,0.0,0.0,0.0,0.0,0.0,0.0,0.0,0.0,0.0,0.0,0.0,0.0,0.0,0.0,0.0,0.0,0.0,0.0,0.0,0.0,0.0,0.0,0.0,0.0,0.0,0.0,0.0,0.0,0.0,0.0,0.0,0.0,0.0,0.0,0.0,0.0,0.0,0.0,0.0,0.0,0.0,-0.1955,-0.1704,-0.1446,-0.1065,-0.0599,-0.0337,-0.0072,0.0187,0.0364,0.0578,0.0,0.0,0.0,0.0,0.0,0.0,0.0,0.0,0.0,0.0,0.0,0.0,0.0,0.0,0.0,0.0,0.0,0.0,0.0,0.0,0.0,0.0,0.0,0.0,0.0,0.0,0.0,0.0,-0.6652,-0.6463,-0.6282,0.0,0.0,0.0,0.0,0.0,0.0,0.0,0.0,0.0,0.0,-0.2963,-0.2633,-0.241,0.0,0.0,-0.2184,-0.2382,-0.2742,-0.2912,-0.3165,-0.3552,-0.3855,0.0,0.0,0.0,0.0,0.0,0.0,0.0,0.0,0.0,0.0,0.0,0.0,0.0,0.0,0.0,0.0,0.0,0.0,0.0,0.0,0.0,0.0,0.0,0.0,0.0,0.0,0.0,0.0,0.0,0.0,0.0,0.0,0.0,0.0,0.0,0.0,0.0,0.0,0.0,0.0,0.0,0.0,0.0,0.0,0.0,0.0,0.0,0.0,0.0,0.0,0.0,0.0,-0.1828,-0.1599,-0.1366,-0.1067,-0.0693,-0.0451,-0.0224,0.0,0.0226,0.0415,0.0,0.0,0.0,0.0,0.0,0.0,0.0,0.0,0.0,0.0,0.0,0.0,0.0,0.0,0.0,0.0,0.0,0.0,0.0,0.0,0.0,0.0,0.0,0.0,0.0,0.0,0.0,0.0,-0.6305,-0.6168,-0.6096,0.0,0.0,0.0,0.0,0.0,0.0,0.0,0.0,0.0,0.0,-0.2877,-0.2436,-0.2212,-0.2046,-0.1905,-0.1905,-0.2046,-0.2383,-0.2551,-0.2772,-0.3079,0.0,0.0,0.0,0.0,0.0,0.0,0.0,0.0,0.0,0.0,0.0,0.0,0.0,0.0,0.0,0.0,0.0,0.0,0.0,0.0,0.0,0.0,0.0,0.0,0.0,0.0,0.0,0.0,0.0,0.0,0.0,0.0,0.0,0.0,0.0,0.0,0.0,0.0,0.0,0.0,0.0,0.0,0.0,0.0,0.0,0.0,0.0,0.0,0.0,0.0,0.0,0.0,0.0,0.0,-0.1765,-0.1328,-0.1038,-0.0875,-0.0694,-0.0404,-0.0025,0.013,0.0319,0.0559,0.0,0.0,0.0,0.0,0.0,0.0,0.0,0.0,0.0,0.0,0.0,0.0,0.0,0.0,0.0,0.0,0.0,0.0,0.0,0.0,0.0,0.0,0.0,0.0,0.0,0.0,-0.5828,-0.5814,-0.5822,0.0,0.0,0.0,0.0,0.0,0.0,0.0,0.0,0.0,0.0,-0.2991,-0.2683,-0.2097,-0.1906,-0.1769,-0.1628,-0.1741,-0.1797,-0.1853,-0.2214,-0.2493,0.0,0.0,0.0,0.0,0.0,0.0,0.0,0.0,0.0,0.0,0.0,0.0,0.0,0.0,0.0,0.0,0.0,0.0,0.0,0.0,0.0,0.0,0.0,0.0,0.0,0.0,0.0,0.3516,0.3465,0.0,0.0,0.0,0.0,0.0,0.0,0.0,0.0,0.0,0.0,0.0,0.2279,0.2022,0.0,0.0,0.0,0.0,0.0,0.0,0.0,0.0,0.0,0.0,0.0,0.0,-0.1431,-0.1346,-0.1192,-0.1036,-0.0907,-0.0754,-0.0536,-0.0262,-0.0135,0.0,0.0193,0.0,0.0,0.0,0.0,0.0,0.0,0.0,0.0,0.0,0.0,0.0,0.0,0.0,0.0,0.0,0.0,0.0,0.0,0.0,0.0,0.0,0.0,0.0,0.0,0.0,-0.5234,0.0,0.0,0.0,0.0,0.0,0.0,0.0,0.0,0.0,0.0,0.0,-0.3583,-0.3158,-0.291,-0.2603,-0.2184,-0.2017,-0.1849,0.0,0.0,0.0,0.0,0.0,0.0,0.0,0.0,0.0,0.0,0.0,0.0,0.0,0.0,-0.5148,-0.5805,-0.6271,-0.6703,-0.7061,0.0,0.0,0.0,0.0,0.0,0.0,0.0,0.0,0.0,0.0,0.0,0.0,0.0,0.0,0.0,0.0,0.3602,0.0,0.0,0.0,0.0,0.0,0.0,0.0,0.0,0.2777,0.2598,0.2387,0.213,0.1765,0.0,0.1096,0.0703,0.0,0.0,0.0,0.0,0.0,0.0,0.0,0.0,-0.1178,-0.1094,-0.1066,-0.0971,-0.0843,-0.0748,-0.0582,-0.0326,-0.0166,-0.0028,0.0056,-0.0084,-0.0252,0.0,0.0,0.0,0.0,0.0,0.0,0.0,0.0,0.0,0.0,0.0,0.0,0.0,0.0,0.0,0.0,0.0,0.0,0.0,0.0,0.0,0.0,0.0,-0.466,0.0,0.0,0.0,0.0,0.0,0.0,0.0,0.0,0.0,-0.3858,-0.3552,-0.3246,-0.2938,-0.2631,-0.2352,-0.2046,0.0,0.0,0.0,0.0,0.0,0.0,0.0,-0.1459,-0.154,-0.1568,-0.168,-0.2071,-0.274,-0.3383,-0.3774,0.0,0.0,-0.5541,-0.6008,-0.6457,-0.6988,-0.7578,-0.8084,-0.8295,-0.834,-0.8209,0.0,0.0,0.0,0.0,0.0,0.0,0.0,0.0,0.3993,0.4005,0.0,0.3938,0.0,0.0,0.0,0.0,0.0,0.0,0.0,0.0,0.2697,0.2523,0.2214,0.2189,0.1993,0.1581,0.1351,0.1083,0.0868,0.0128,0.0,0.0,0.0,0.0,0.0,0.0,-0.1094,-0.1066,-0.0954,-0.0813,-0.07,-0.0701,-0.0533,-0.0196,0.0056,0.0196,0.0168,-0.0056,-0.0253,-0.0393,-0.0869,0.0,0.0,0.0,0.0,0.0,0.0,0.0,0.0,0.0,0.0,0.0,0.0,0.0,0.0,0.0,0.0,0.0,0.0,0.0,0.0,-0.3633,0.0,0.0,0.0,0.0,0.0,0.0,0.0,0.0,0.0,0.0,-0.3555,-0.3188,-0.2796,-0.2549,0.0,0.0,0.0,0.0,-0.1122,-0.1094,-0.1094,-0.1094,-0.1094,-0.1094,-0.1094,-0.1094,0.0,0.0,-0.1903,-0.2488,-0.3049,-0.353,-0.4188,-0.4832,-0.5324,-0.5744,-0.6213,-0.6993,-0.7471,-0.7807,-0.8099,-0.8175,-0.8086,0.6077,0.0,0.0,0.0,0.0,0.4301,0.4135,0.4135,0.4049,0.4128,0.4272,0.4162,0.0,0.0,0.0,0.0,0.0,0.0,0.2783,0.2693,0.2607,0.2437,0.2186,0.2152,0.1974,0.1661,0.1485,0.1274,0.0958,0.0657,0.026,-0.0216,0.0,0.0,0.0,0.0,-0.0813,-0.0813,-0.0785,-0.0673,-0.0505,-0.0477,-0.0393,-0.0224,-0.0028,0.0056,0.0056,-0.0112,-0.0227,-0.0261,-0.0498,0.0,0.0,0.0,0.0,0.0,0.0,0.0,0.0,0.0,0.0,0.0,0.0,0.0,0.0,0.0,0.0,0.0,0.0,0.0,-0.2631,-0.3077,-0.3522,0.0,0.0,0.0,0.0,0.0,0.0,0.0,0.0,0.0,-0.2998,-0.2828,-0.2631,0.0,0.0,-0.1933,-0.1769,-0.1572,-0.1375,-0.1122,0.0,0.0,0.0,-0.0813,-0.0813,-0.0813,-0.1038,-0.1374,-0.1792,-0.235,-0.294,-0.3494,-0.4128,-0.4776,-0.5482,-0.609,-0.6546,-0.6827,-0.7394,-0.7901,-0.8054,-0.8001,-0.7881,0.6635,0.6143,0.5586,0.5306,0.5145,0.4819,0.4646,0.4589,0.4413,0.4451,0.4601,0.4524,0.4487,0.4509,0.4156,0.0,0.0,0.0,0.2878,0.2681,0.2623,0.2447,0.2216,0.2167,0.2009,0.1805,0.1607,0.1386,0.1195,0.1029,0.0691,0.022,0.0,0.0,-0.0496,-0.0547,-0.0572,-0.0572,-0.0593,-0.0505,-0.0308,-0.028,-0.0196,-0.014,-0.0028,0.0,0.0,-0.0085,-0.0144,-0.0206,-0.0272,-0.0401,0.0,0.0,0.0,0.0,0.0,0.0,0.0,0.0,0.0,0.0,0.0,-0.1254,0.0,0.0,0.0,0.0,-0.1568,-0.1765,-0.2188,-0.2603,0.0,0.0,0.0,0.0,0.0,0.0,0.0,-0.362,-0.3357,-0.2998,-0.2493,-0.2465,-0.241,-0.2074,-0.1849,-0.1681,-0.1543,0.0,-0.1262,-0.1038,-0.0954,-0.0869,-0.0785,-0.0757,-0.0729,-0.0785,-0.1122,-0.1542,-0.1903,-0.2464,-0.3091,-0.3755,-0.4436,-0.5117,-0.577,-0.6505,-0.7022,-0.7022,-0.7537,-0.7982,-0.8079,-0.8036,-0.7917,0.7016,0.6777,0.6332,0.5938,0.562,0.5486,0.5339,0.5214,0.4975,0.4928,0.4904,0.4908,0.4694,0.436,0.3907,0.0,0.0,0.3276,0.3026,0.2684,0.2684,0.253,0.2188,0.2193,0.2134,0.201,0.1658,0.1519,0.149,0.1228,0.0896,0.0519,0.0194,-0.0032,-0.0185,-0.03,-0.0384,-0.0384,-0.0373,-0.0311,-0.017,-0.0028,0.0028,0.0057,0.0028,0.0,0.0,0.0029,-0.003,-0.0149,-0.0157,-0.0226,-0.0422,0.0,0.0,0.0,0.0,0.0,0.0,0.0,0.0,0.0,0.0,0.0,0.0,0.0,0.0,0.0,-0.118,0.0,-0.1719,-0.2168,0.0,0.0,0.0,-0.3797,-0.3949,-0.3858,-0.365,-0.3333,0.0,0.0,0.0,0.0,-0.2104,-0.1831,-0.1518,-0.1262,-0.1122,-0.101,-0.0926,-0.0926,-0.0926,-0.0926,-0.0926,-0.0813,-0.0813,-0.0954,-0.1318,-0.1766,-0.2183,-0.274,-0.3396,-0.4212,-0.5007,-0.5685,-0.6139,-0.6916,-0.7526,-0.7544,-0.7782,-0.8052,-0.8166,-0.8161,-0.7997,0.6868,0.6771,0.6563,0.6302,0.5938,0.5562,0.5373,0.5339,0.5039,0.4948,0.5049,0.493,0.4673,0.4309,0.4047,0.3741,0.338,0.3187,0.2992,0.2685,0.2591,0.2436,0.2191,0.2145,0.2105,0.2045,0.174,0.1598,0.1564,0.124,0.0905,0.0501,0.0401,0.0195,-0.0186,-0.0214,-0.0244,-0.0244,-0.0243,-0.0121,0.0181,0.0211,0.0272,0.0393,0.0393,0.0362,0.0393,0.0365,0.037,0.0347,0.0321,0.0294,0.0267,0.0302,0.0,0.0,0.0,0.0,0.0,0.0,0.0,0.0,0.0,-0.0765,-0.0664,0.0,-0.0754,0.0,-0.0825,-0.1106,-0.1336,-0.1774,0.0,0.0,-0.2972,-0.3287,-0.3716,-0.3595,-0.3441,-0.3381,-0.3141,-0.282,-0.2356,-0.2162,-0.198,-0.177,-0.1598,-0.1403,-0.115,-0.1066,-0.1066,-0.1039,-0.0982,-0.0954,-0.1038,-0.101,-0.1094,-0.1403,-0.171,-0.2043,-0.2493,-0.3074,-0.3778,-0.4657,-0.5281,-0.5902,-0.6594,-0.7159,-0.7572,-0.7819,-0.8047,-0.8172,-0.8199,-0.8144,-0.7967,0.6736,0.6603,0.6544,0.6304,0.6025,0.5805,0.5648,0.5459,0.5143,0.4967,0.4974,0.4721,0.4468,0.4164,0.3897,0.3666,0.3451,0.3216,0.3026,0.2823,0.2759,0.2565,0.228,0.225,0.2169,0.2005,0.1736,0.1547,0.1445,0.111,0.0808,0.0506,0.0438,0.0232,-0.0096,-0.0095,-0.0095,-0.0095,-0.0031,0.0154,0.037,0.037,0.0432,0.0494,0.0494,0.0525,0.0648,0.072,0.0731,0.0645,0.0718,0.0696,0.0505,0.0674,0.0707,0.0,0.0,0.0,0.0,0.0,0.0,0.0,0.0,0.0,0.0,0.0,-0.0498,0.0,-0.0622,0.0,-0.1172,-0.1592,-0.1965,-0.231,-0.2742,-0.3141,-0.352,-0.346,-0.3393,-0.3393,-0.3149,-0.2849,-0.2493,-0.2337,-0.2119,-0.1891,-0.1806,-0.1669,-0.1373,-0.1245,-0.1262,-0.1346,-0.1274,-0.1262,-0.1373,-0.1456,-0.1597,-0.1822,-0.2155,-0.2545,-0.297,-0.3564,-0.426,-0.5078,-0.5665,-0.6307,-0.7031,-0.7477,-0.7819,-0.8014,-0.8209,-0.8339,-0.8339,-0.8149,-0.7959,0.6595,0.6387,0.6354,0.6185,0.5925,0.605,0.5881,0.555,0.5253,0.4957,0.4697,0.44,0.4097,0.3894,0.3563,0.3431,0.3395,0.3261,0.3092,0.2956,0.2956,0.2757,0.2423,0.2389,0.2221,0.1918,0.1681,0.1512,0.1277,0.0944,0.0708,0.0506,0.0371,0.0202,0.0,0.0,0.0,0.0032,0.0222,0.0406,0.0562,0.0562,0.0593,0.0625,0.0624,0.0687,0.0907,0.1057,0.1039,0.091,0.1063,0.1009,0.0674,0.0975,0.1076,0.0,0.1008,0.0,0.0,0.0,0.0,0.0,0.0,0.0,0.0,-0.0356,-0.0352,-0.0467,-0.0526,-0.0711,-0.1149,-0.1488,-0.1769,-0.1963,-0.2645,-0.3172,-0.3402,-0.3432,-0.3464,-0.3499,-0.325,-0.2942,-0.2635,-0.2566,-0.2403,-0.2168,-0.2074,-0.2013,-0.1769,-0.1606,-0.157,-0.1744,-0.1765,-0.1828,-0.1953,-0.2059,-0.214,-0.2327,-0.2673,-0.3093,-0.3467,-0.4101,-0.4821,-0.5514,-0.6127,-0.6709,-0.7391,-0.7782,-0.8019,-0.8172,-0.8339,-0.8479,-0.8447,-0.8214,-0.7954,0.6384,0.6214,0.6053,0.5958,0.5892,0.5657,0.5491,0.5425,0.519,0.4824,0.4367,0.4028,0.3694,0.336,0.3159,0.2989,0.2855,0.2989,0.2956,0.2753,0.2753,0.2654,0.2389,0.2288,0.2119,0.1884,0.1715,0.1479,0.1311,0.0977,0.0708,0.0506,0.0371,0.0202,0.0,0.0,0.0,0.0,0.0266,0.053,0.096,0.0993,0.1125,0.1357,0.1225,0.0,0.1424,0.1331,0.1334,0.1436,0.1475,0.0,0.0,0.0,0.0,0.0,0.0,0.0,0.0,0.0,0.0,0.0,0.0202,0.0101,-0.0067,-0.0229,-0.029,-0.0352,-0.0595,-0.0842,-0.1118,-0.1407,-0.1806,-0.2278,-0.2725,-0.3199,-0.3661,-0.3727,-0.3765,-0.3862,-0.3639,-0.3355,-0.3062,-0.2845,-0.2677,-0.2548,-0.2491,-0.2579,-0.2697,-0.2274,-0.202,-0.2169,-0.2389,-0.2602,-0.2687,-0.2706,-0.274,-0.2826,-0.318,-0.3603,-0.4073,-0.4647,-0.5343,-0.6121,-0.6505,-0.6876,-0.7525,-0.7857,-0.8047,-0.8177,-0.8371,-0.8517,-0.8517,-0.8214,-0.7982,0.602,0.0,0.569,0.557,0.0,0.5271,0.5136,0.4982,0.4916,0.4561,0.403,0.3763,0.346,0.3092,0.3025,0.2889,0.272,0.2822,0.281,0.2742,0.2742,0.2658,0.2484,0.2282,0.2095,0.1956,0.1625,0.1378,0.1176,0.0842,0.0506,0.0236,0.0202,0.0034,-0.0135,-0.0067,0.0135,0.0405,0.0405,0.064,0.1176,0.121,0.1344,0.158,0.0,0.0,0.0,0.0,0.0,0.0,0.0,0.0,0.0,0.0,0.0,0.158,0.1344,0.1176,0.1076,0.0707,0.0438,0.0304,0.0135,-0.0034,-0.0135,-0.0299,-0.0462,-0.0561,-0.0813,-0.1005,-0.1217,-0.1614,-0.1988,-0.2284,-0.279,-0.3293,-0.3725,-0.3861,-0.4025,-0.4223,-0.4076,-0.3843,-0.3579,-0.3376,-0.3236,-0.3087,-0.3027,-0.3107,-0.3172,-0.2883,-0.2638,-0.278,-0.2987,-0.3153,-0.32,-0.3276,-0.3351,-0.3482,-0.3776,-0.4166,-0.4581,-0.507,-0.5674,-0.6333,-0.6667,-0.703,-0.766,-0.7954,-0.8052,-0.8312,-0.8409,-0.8517,-0.8484,-0.822,-0.7982,0.5642,0.5373,0.5373,0.5238,0.4967,0.4932,0.4738,0.4457,0.0,0.0,0.0,0.3512,0.3207,0.2933,0.2899,0.2795,0.2625,0.2691,0.2725,0.2747,0.2749,0.2711,0.258,0.2318,0.2119,0.1939,0.1553,0.1263,0.1058,0.0646,0.0305,0.0034,-0.0034,-0.0135,-0.027,-0.0101,0.0135,0.0438,0.0472,0.0775,0.1277,0.1311,0.1412,0.158,0.1412,0.1479,0.1816,0.1648,0.1648,0.1816,0.1816,0.1715,0.1547,0.1513,0.1513,0.1512,0.1311,0.1176,0.1042,0.0673,0.0405,0.0202,-0.0202,-0.0404,-0.0337,-0.0472,-0.064,-0.0809,-0.1043,-0.121,-0.1378,-0.1918,-0.2287,-0.2356,-0.2958,-0.3527,-0.3925,-0.4095,-0.4328,-0.4628,-0.4519,-0.4323,-0.4156,-0.4018,-0.3859,-0.3661,-0.3623,-0.3667,-0.3589,-0.3394,-0.3253,-0.3382,-0.3501,-0.3571,-0.3637,-0.3722,-0.3896,-0.3956,-0.4278,-0.4642,-0.4996,-0.5415,-0.593,-0.6436,-0.672,-0.7186,-0.7819,-0.7982,-0.8122,-0.8479,-0.8517,-0.8517,-0.8517,-0.8284,-0.8014,0.5422,0.5241,0.5241,0.5114,0.4916,0.4737,0.4347,0.3851,0.3896,0.3743,0.3425,0.3133,0.2844,0.2627,0.2488,0.2381,0.2381,0.2521,0.2633,0.0,0.2607,0.2611,0.2584,0.2397,0.2104,0.1741,0.1698,0.137,0.0935,0.0528,0.0209,0.0,-0.0273,-0.0371,-0.0304,-0.0101,0.0101,0.0304,0.0438,0.0741,0.1277,0.1311,0.1412,0.158,0.1412,0.1412,0.1614,0.1445,0.1445,0.1648,0.1479,0.1378,0.1344,0.121,0.1176,0.1176,0.0974,0.0873,0.084,0.0539,0.0169,-0.0202,-0.0673,-0.0841,-0.0506,-0.0641,-0.0843,-0.1043,-0.1211,-0.1412,-0.1782,-0.2186,-0.2624,-0.3029,-0.3563,-0.4095,-0.4595,-0.4661,-0.4831,-0.5229,-0.496,-0.4728,-0.4694,-0.4561,-0.4359,-0.4061,-0.4064,-0.4167,-0.4097,-0.3915,-0.3799,-0.3886,-0.3914,-0.3941,-0.3993,-0.403,-0.4119,-0.4167,-0.4406,-0.4757,-0.5132,-0.5535,-0.6021,-0.6567,-0.6789,-0.7199,-0.7852,-0.7982,-0.8225,-0.8625,-0.8587,-0.8565,-0.8684,-0.8312,-0.7982,0.5015,0.4718,0.4718,0.4653,0.4498,0.4258,0.4018,0.3714,0.3413,0.325,0.3209,0.2876,0.2622,0.2442,0.2335,0.2225,0.2152,0.2334,0.2459,0.2489,0.2489,0.2434,0.2345,0.2135,0.1861,0.16,0.1358,0.102,0.0509,0.0252,-0.0072,-0.0465,-0.0637,-0.0633,-0.0457,-0.0277,-0.0069,0.0138,0.0305,0.0606,0.1008,0.1041,0.1143,0.1311,0.1143,0.1109,0.1311,0.1041,0.0941,0.1176,0.0974,0.0907,0.1008,0.0873,0.0773,0.0773,0.0605,0.0505,0.037,-0.0068,-0.0551,-0.1033,-0.1464,-0.1721,-0.1688,-0.1506,-0.1447,-0.1547,-0.1848,-0.2164,-0.2436,-0.3021,-0.3496,-0.3703,-0.4353,-0.487,-0.5173,-0.5223,-0.5388,-0.5723,-0.5591,-0.5359,-0.5256,-0.5123,-0.4924,-0.4625,-0.4561,-0.4431,-0.4303,-0.4167,-0.4097,-0.4131,-0.4164,-0.4179,-0.4227,-0.4311,-0.4416,-0.449,-0.4725,-0.4987,-0.5351,-0.5716,-0.6075,-0.6576,-0.6872,-0.7302,-0.7894,-0.8197,-0.8405,-0.8538,-0.8701,-0.8684,-0.8489,-0.8079,-0.7727,0.4549,0.425,0.4213,0.4154,0.4009,0.3734,0.3608,0.3489,0.2981,0.2803,0.2861,0.2629,0.2409,0.2228,0.2189,0.2117,0.2004,0.2117,0.225,0.2285,0.2288,0.2234,0.2112,0.1848,0.1604,0.1334,0.1011,0.0593,0.0111,-0.0037,-0.044,-0.0948,-0.0984,-0.0874,-0.0729,-0.05,-0.0283,-0.0141,-0.0035,0.0239,0.0673,0.0673,0.074,0.0806,0.0706,0.0672,0.084,0.0504,0.0403,0.0504,0.0304,0.0237,0.0407,0.0205,0.0102,0.0102,0.0,-0.0203,-0.0438,-0.0891,-0.1391,-0.1856,-0.2211,-0.253,-0.2827,-0.2665,-0.2431,-0.2362,-0.2641,-0.2973,-0.3303,-0.3946,-0.4461,-0.4541,-0.5127,-0.5648,-0.5811,-0.5815,-0.5914,-0.6247,-0.6152,-0.5888,-0.5785,-0.5624,-0.5392,-0.5156,-0.4824,-0.4528,-0.4398,-0.4334,-0.4303,-0.4303,-0.4303,-0.43,-0.4303,-0.4392,-0.4553,-0.4728,-0.4888,-0.511,-0.5408,-0.5683,-0.608,-0.6597,-0.7045,-0.7517,-0.8044,-0.8443,-0.8664,-0.8798,-0.8864,-0.8736,-0.8256,-0.7782,-0.7428,0.4165,0.4089,0.3923,0.374,0.3552,0.3292,0.3061,0.2904,0.2628,0.2427,0.2294,0.2259,0.2102,0.1953,0.1948,0.1908,0.191,0.1913,0.1953,0.1956,0.1958,0.1922,0.1886,0.1724,0.137,0.0978,0.0701,0.0311,-0.0233,-0.0457,-0.0858,-0.1352,-0.1276,-0.1168,-0.1094,-0.08,-0.0581,-0.0545,-0.0689,-0.0425,0.0304,0.0337,0.0269,0.0101,0.0067,0.0067,0.0067,-0.0101,-0.0235,-0.0236,-0.0585,-0.0767,-0.0769,-0.0963,-0.1109,-0.1048,-0.1186,-0.1382,-0.1688,-0.1885,-0.2185,-0.2512,-0.2852,-0.321,-0.3527,-0.3984,-0.4006,-0.3644,-0.35,-0.3817,-0.427,-0.4731,-0.5142,-0.541,-0.5851,-0.6233,-0.6486,-0.6445,-0.6482,-0.6778,-0.6449,-0.6181,-0.6251,-0.602,-0.569,-0.5359,-0.4943,-0.4651,-0.4551,-0.4467,-0.4369,-0.4322,-0.4308,-0.4308,-0.4306,-0.4303,-0.4448,-0.4606,-0.4737,-0.4992,-0.5272,-0.567,-0.6099,-0.6767,-0.7231,-0.7835,-0.8379,-0.8829,-0.9063,-0.9084,-0.9021,-0.8691,-0.8118,-0.7629,-0.7302,0.3765,0.3493,0.3415,0.3335,0.3255,0.3022,0.2902,0.2747,0.2357,0.2121,0.2003,0.1766,0.1689,0.173,0.173,0.173,0.173,0.1848,0.1887,0.1887,0.1769,0.1651,0.1533,0.1297,0.0904,0.0393,0.0275,-0.0079,-0.0628,-0.1011,-0.1386,-0.168,-0.164,-0.1602,-0.16,-0.1315,-0.1194,-0.1193,-0.1286,-0.119,-0.0955,-0.073,-0.0625,-0.0739,-0.0729,-0.0799,-0.0951,-0.1094,-0.1235,-0.1411,-0.1781,-0.1935,-0.1862,-0.1997,-0.2054,-0.2029,-0.224,-0.2449,-0.2659,-0.3042,-0.3428,-0.3828,-0.4196,-0.455,-0.4927,-0.5199,-0.5312,-0.5332,-0.5023,-0.4934,-0.5264,-0.5685,-0.6054,-0.6226,-0.6569,-0.6844,-0.6964,-0.6843,-0.6778,-0.7012,-0.6745,-0.6511,-0.6511,-0.6185,-0.5723,-0.5339,-0.5054,-0.4903,-0.4708,-0.4668,-0.4647,-0.4542,-0.4545,-0.4439,-0.4352,-0.4399,-0.4492,-0.4651,-0.4879,-0.5129,-0.5502,-0.5995,-0.6553,-0.7141,-0.7674,-0.819,-0.8754,-0.9127,-0.94,-0.9341,-0.8896,-0.8443,-0.8223,-0.7645,-0.7255,0.3354,0.3023,0.2982,0.2904,0.2824,0.2707,0.2589,0.2512,0.1963,0.173,0.1691,0.1305,0.119,0.131,0.1389,0.1389,0.1429,0.1478,0.1562,0.1523,0.1402,0.1242,0.1082,0.0801,0.0401,-0.008,-0.0321,-0.0681,-0.1239,-0.1669,-0.1943,-0.2101,-0.2128,-0.2121,-0.2118,-0.1927,-0.1836,-0.1833,-0.1951,-0.2046,-0.2114,-0.1994,-0.1799,-0.1599,-0.1539,-0.1644,-0.1892,-0.2113,-0.2285,-0.2518,-0.2897,-0.3009,-0.288,-0.2953,-0.3109,-0.3211,-0.3366,-0.3605,-0.3815,-0.43,-0.4695,-0.5,-0.5359,-0.5742,-0.6083,-0.6209,-0.6483,-0.6804,-0.6533,-0.6288,-0.6154,-0.662,-0.6849,-0.6781,-0.7091,-0.7288,-0.7264,-0.7138,-0.7138,-0.7232,-0.697,-0.6675,-0.6511,-0.6119,-0.5667,-0.5329,-0.5173,-0.5088,-0.4836,-0.4846,-0.4865,-0.4729,-0.4759,-0.4692,-0.4473,-0.4501,-0.462,-0.4783,-0.5057,-0.5379,-0.58,-0.633,-0.6917,-0.7378,-0.8053,-0.8596,-0.9021,-0.9385,-0.9593,-0.9332,-0.8919,-0.85,-0.8295,-0.7769,-0.7348,0.2886,0.2791,0.2591,0.2438,0.2237,0.2237,0.212,0.197,0.1496,0.1338,0.1264,0.0845,0.065,0.065,0.0814,0.0935,0.0897,0.0788,0.0711,0.0711,0.067,0.0629,0.063,0.021,-0.0126,-0.0501,-0.1041,-0.1543,-0.2045,-0.2378,-0.2556,-0.2595,-0.2702,-0.279,-0.275,-0.2586,-0.2465,-0.2497,-0.284,-0.3037,-0.3071,-0.3389,-0.3207,-0.2567,-0.2363,-0.2475,-0.2704,-0.306,-0.3281,-0.3373,-0.3824,-0.3968,-0.3818,-0.4015,-0.4347,-0.4701,-0.4729,-0.4872,-0.523,-0.5581,-0.5795,-0.5835,-0.619,-0.652,-0.6846,-0.7022,-0.7292,-0.7702,-0.7787,-0.7585,-0.7076,-0.729,-0.7407,-0.7268,-0.7382,-0.7495,-0.7541,-0.7536,-0.7498,-0.7438,-0.7148,-0.6712,-0.6276,-0.5881,-0.5624,-0.5378,-0.5058,-0.4801,-0.4878,-0.4843,-0.479,-0.4795,-0.4862,-0.4909,-0.4745,-0.4778,-0.4859,-0.5062,-0.5367,-0.5627,-0.5993,-0.6427,-0.7029,-0.7623,-0.829,-0.8827,-0.922,-0.9509,-0.9686,-0.9547,-0.9326,-0.8974,-0.8622,-0.8098,-0.7711,0.2439,0.2298,0.2215,0.2133,0.2047,0.1898,0.1765,0.1646,0.1084,0.0844,0.0767,0.0371,0.0125,0.0167,0.0084,0.0295,0.0667,0.0503,0.0421,0.0379,0.0084,-0.0042,-0.0084,-0.0505,-0.0884,-0.1262,-0.164,-0.2143,-0.2729,-0.2999,-0.3197,-0.3352,-0.3449,-0.3491,-0.3481,-0.3398,-0.3333,-0.3372,-0.372,-0.3912,-0.3999,-0.4565,-0.4755,-0.4438,-0.3785,-0.3707,-0.4327,-0.4525,-0.4768,-0.5149,-0.5356,-0.547,-0.5533,-0.5566,-0.5566,-0.5561,-0.5623,-0.5803,-0.6101,-0.6408,-0.6702,-0.6953,-0.7171,-0.7361,-0.7655,-0.7868,-0.8016,-0.8208,-0.8508,-0.85,-0.8364,-0.8184,-0.8111,-0.8152,-0.822,-0.823,-0.8201,-0.8054,-0.7898,-0.7774,-0.7328,-0.6679,-0.6152,-0.5752,-0.5547,-0.5383,-0.5173,-0.503,-0.5041,-0.5127,-0.5211,-0.5144,-0.5263,-0.5339,-0.5301,-0.5256,-0.5294,-0.5541,-0.5827,-0.6262,-0.6645,-0.7058,-0.7664,-0.8141,-0.8707,-0.91,-0.949,-0.9712,-0.9873,-0.9852,-0.9601,-0.9369,-0.8985,-0.8579,-0.8162,0.1892,0.1766,0.1766,0.1724,0.1637,0.1406,0.1231,0.1109,0.0452,0.0123,0.0083,-0.0337,-0.051,-0.0555,-0.0653,-0.048,-0.0086,-0.0043,-0.0043,-0.0172,-0.0473,-0.0731,-0.0903,-0.1247,-0.1675,-0.2104,-0.249,-0.2959,-0.3427,-0.3661,-0.3906,-0.4153,-0.4231,-0.429,-0.4297,-0.4274,-0.4228,-0.4281,-0.4651,-0.487,-0.4999,-0.5623,-0.6012,-0.5987,-0.5398,-0.519,-0.5685,-0.5731,-0.5984,-0.6348,-0.6515,-0.6702,-0.6826,-0.6742,-0.6648,-0.6546,-0.6584,-0.676,-0.6992,-0.7236,-0.7459,-0.7726,-0.7896,-0.8093,-0.8255,-0.8399,-0.8518,-0.8713,-0.9009,-0.9264,-0.9331,-0.9243,-0.9083,-0.8969,-0.8883,-0.8837,-0.8816,-0.8459,-0.8098,-0.7749,-0.7218,-0.6597,-0.5999,-0.567,-0.543,-0.5285,-0.5138,-0.5049,-0.5101,-0.5298,-0.5482,-0.5362,-0.5616,-0.5806,-0.5906,-0.5983,-0.5875,-0.6049,-0.6345,-0.6789,-0.7219,-0.7672,-0.8131,-0.8627,-0.9046,-0.9387,-0.9695,-0.9922,-1.003,-1.0056,-0.9905,-0.969,-0.9394,-0.9098,-0.87,0.1305,0.1265,0.1304,0.1098,0.0889,0.0674,0.0462,0.021,-0.0462,-0.0756,-0.0801,-0.1205,-0.1391,-0.1396,-0.1463,-0.1431,-0.1338,-0.1024,-0.0935,-0.107,-0.1116,-0.1429,-0.1829,-0.2139,-0.2583,-0.3071,-0.3618,-0.4063,-0.4313,-0.4463,-0.4683,-0.492,-0.5044,-0.5154,-0.52,-0.5238,-0.5172,-0.5196,-0.5618,-0.591,-0.5969,-0.6538,-0.6947,-0.7112,-0.7053,-0.6936,-0.6625,-0.674,-0.6891,-0.7068,-0.7352,-0.7555,-0.761,-0.7468,-0.7455,-0.76,-0.7563,-0.7689,-0.7961,-0.8037,-0.8033,-0.8147,-0.8284,-0.8441,-0.8589,-0.8703,-0.887,-0.9229,-0.9514,-0.9797,-1.0011,-1.0341,-1.0248,-0.9555,-0.9367,-0.93,-0.915,-0.8703,-0.8114,-0.7507,-0.7024,-0.6498,-0.5992,-0.5596,-0.5323,-0.5209,-0.5001,-0.4927,-0.5073,-0.5273,-0.5321,-0.5479,-0.5867,-0.6219,-0.649,-0.6718,-0.6598,-0.6595,-0.6919,-0.7296,-0.7599,-0.8016,-0.836,-0.878,-0.9198,-0.9582,-0.9992,-1.0255,-1.0331,-1.0314,-1.0146,-1.0038,-0.9817,-0.9577,-0.9279,0.0704,0.066,0.0483,0.0352,0.0219,-0.013,-0.0344,-0.0473,-0.1161,-0.1461,-0.1554,-0.1981,-0.2178,-0.2223,-0.2325,-0.2419,-0.242,-0.2419,-0.2241,-0.1973,-0.2019,-0.2332,-0.2778,-0.3181,-0.3807,-0.4565,-0.4966,-0.5186,-0.5314,-0.5461,-0.567,-0.5733,-0.6021,-0.6111,-0.6176,-0.6229,-0.627,-0.6329,-0.6719,-0.6948,-0.7003,-0.7693,-0.8119,-0.8215,-0.8449,-0.8601,-0.8592,-0.814,-0.8155,-0.8696,-0.8765,-0.8701,-0.8599,-0.8399,-0.8173,-0.8005,-0.7936,-0.7949,-0.8063,-0.8255,-0.8365,-0.8475,-0.8589,-0.8627,-0.8703,-0.8941,-0.9201,-0.9552,-0.9899,-1.0232,-1.0656,-1.0944,-1.0898,-1.0534,-1.0471,-1.0316,-1.0119,-0.9554,-0.8561,-0.7545,-0.7147,-0.6721,-0.6009,-0.557,-0.5356,-0.5179,-0.4961,-0.4887,-0.5173,-0.5365,-0.5676,-0.5948,-0.6335,-0.6641,-0.6872,-0.718,-0.7296,-0.7292,-0.7518,-0.7714,-0.8021,-0.8399,-0.8703,-0.9046,-0.9463,-0.9841,-1.0288,-1.0513,-1.0625,-1.0588,-1.0484,-1.0375,-1.0267,-1.0066,-0.9834,0.0179,0.009,-0.009,-0.0179,-0.0313,-0.0751,-0.0967,-0.1055,-0.1758,-0.2111,-0.2249,-0.2586,-0.2869,-0.3004,-0.3224,-0.3315,-0.3448,-0.3671,-0.3582,-0.3226,-0.3138,-0.3406,-0.3941,-0.4561,-0.5097,-0.5725,-0.6077,-0.621,-0.621,-0.6387,-0.6523,-0.6634,-0.6826,-0.7009,-0.709,-0.7126,-0.7143,-0.7296,-0.7583,-0.7776,-0.8024,-0.8547,-0.8987,-0.9052,-0.9283,-0.9559,-0.9763,-0.9302,-0.9255,-0.963,-0.962,-0.9489,-0.928,-0.9135,-0.8898,-0.8538,-0.837,-0.8332,-0.8319,-0.8376,-0.8437,-0.8556,-0.8589,-0.8627,-0.8718,-0.9028,-0.9291,-0.9659,-1.0096,-1.0548,-1.084,-1.1332,-1.1461,-1.1302,-1.1133,-1.098,-1.0657,-0.9906,-0.8936,-0.7925,-0.7425,-0.6813,-0.6164,-0.5617,-0.5402,-0.5153,-0.4984,-0.4953,-0.5265,-0.5482,-0.5831,-0.6261,-0.6644,-0.6911,-0.7257,-0.7561,-0.7868,-0.7978,-0.8127,-0.8246,-0.8437,-0.8856,-0.9198,-0.9614,-1.003,-1.0363,-1.0775,-1.0999,-1.1111,-1.0962,-1.085,-1.0864,-1.0834,-1.0734,-1.0498,-0.018,-0.0448,-0.0493,-0.0628,-0.0852,-0.1299,-0.1522,-0.1613,-0.224,-0.2685,-0.2908,-0.3179,-0.3539,-0.3849,-0.3983,-0.4164,-0.4387,-0.4652,-0.4872,-0.483,-0.4699,-0.4788,-0.5228,-0.5938,-0.6384,-0.6564,-0.6918,-0.7095,-0.7139,-0.7139,-0.7272,-0.7529,-0.7603,-0.7723,-0.7916,-0.7788,-0.7889,-0.818,-0.8358,-0.8556,-0.8777,-0.9191,-0.9458,-0.9623,-0.9724,-0.9907,-1.025,-1.0318,-1.0236,-1.0101,-1.008,-0.9983,-0.9756,-0.9703,-0.9469,-0.901,-0.8841,-0.8727,-0.8672,-0.8583,-0.8492,-0.8492,-0.8492,-0.8507,-0.873,-0.8954,-0.9266,-0.9652,-1.0213,-1.0622,-1.0837,-1.14,-1.1766,-1.1697,-1.1413,-1.0965,-1.0157,-0.9627,-0.8959,-0.8234,-0.7639,-0.6991,-0.6208,-0.5714,-0.5358,-0.5133,-0.5054,-0.5104,-0.5315,-0.5595,-0.587,-0.6335,-0.6914,-0.7296,-0.7638,-0.8121,-0.8435,-0.8763,-0.8918,-0.9048,-0.9135,-0.9509,-0.9968,-1.0368,-1.0659,-1.1002,-1.1241,-1.1477,-1.154,-1.1416,-1.1416,-1.1446,-1.1335,-1.1192,-1.1129,-0.0673,-0.0942,-0.1256,-0.1436,-0.157,-0.2019,-0.2332,-0.2509,-0.2825,-0.3138,-0.3451,-0.3851,-0.4166,-0.4478,-0.4835,-0.5144,-0.5322,-0.5589,-0.5855,-0.603,-0.6296,-0.6384,-0.6605,-0.6959,-0.7316,-0.7496,-0.7628,-0.7764,-0.7893,-0.7933,-0.8069,-0.8328,-0.846,-0.8536,-0.8665,-0.8779,-0.8983,-0.9194,-0.9441,-0.9559,-0.9693,-1.0082,-1.025,-1.012,-1.0299,-1.0516,-1.0829,-1.1176,-1.1132,-1.0781,-1.074,-1.0656,-1.0353,-1.009,-0.9726,-0.9285,-0.9165,-0.898,-0.8785,-0.8786,-0.8788,-0.8631,-0.8627,-0.8695,-0.8872,-0.9088,-0.9445,-0.9853,-1.0361,-1.0673,-1.091,-1.1418,-1.1682,-1.1693,-1.139,-1.0974,-1.0355,-0.9802,-0.9228,-0.8418,-0.7756,-0.7061,-0.6381,-0.5825,-0.5437,-0.514,-0.5087,-0.5157,-0.5454,-0.5758,-0.6094,-0.6743,-0.7308,-0.768,-0.8094,-0.8563,-0.9032,-0.9468,-0.9754,-1.0079,-1.0161,-1.041,-1.0959,-1.1457,-1.1585,-1.1835,-1.1909,-1.2031,-1.198,-1.1928,-1.1846,-1.1809,-1.1683,-1.1583,-1.1627,-0.0807,-0.1256,-0.1525,-0.1795,-0.2109,-0.2512,-0.2825,-0.3047,-0.327,-0.354,-0.3898,-0.4302,-0.4701,-0.5146,-0.5505,-0.5813,-0.6033,-0.6343,-0.6656,-0.6959,-0.7536,-0.7716,-0.7669,-0.7845,-0.8109,-0.8336,-0.8424,-0.8552,-0.8688,-0.8727,-0.8859,-0.9034,-0.9253,-0.9388,-0.951,-0.9559,-0.9777,-0.999,-1.0125,-1.0168,-1.0294,-1.0641,-1.0733,-1.0646,-1.0814,-1.1035,-1.1311,-1.157,-1.1483,-1.1138,-1.1138,-1.1089,-1.0544,-1.0401,-1.0028,-0.951,-0.941,-0.9279,-0.9059,-0.9052,-0.9032,-0.8876,-0.8836,-0.8891,-0.8987,-0.9192,-0.9484,-0.969,-1.0168,-1.0454,-1.0605,-1.0968,-1.122,-1.1199,-1.0958,-1.0684,-1.0466,-0.9937,-0.9367,-0.8726,-0.8082,-0.7334,-0.6534,-0.6039,-0.5639,-0.5328,-0.5299,-0.5508,-0.5746,-0.6035,-0.6496,-0.7151,-0.775,-0.8173,-0.8668,-0.9205,-0.9772,-1.0168,-1.0836,-1.1127,-1.1192,-1.1352,-1.169,-1.2151,-1.2384,-1.2546,-1.2537,-1.2525,-1.2602,-1.255,-1.2356,-1.2272,-1.2253,-1.2244,-1.2263,-0.0942,-0.1525,-0.1614,-0.2018,-0.2647,-0.2913,-0.3226,-0.3405,-0.3719,-0.4034,-0.4433,-0.4705,-0.5235,-0.5764,-0.6035,-0.6302,-0.6561,-0.6966,-0.7425,-0.7934,-0.8541,-0.8884,-0.8706,-0.866,-0.8819,-0.9038,-0.9257,-0.9345,-0.9432,-0.9559,-0.9689,-0.9777,-0.9994,-1.0164,-1.025,-1.0207,-1.0424,-1.0684,-1.0641,-1.0684,-1.0873,-1.1121,-1.1245,-1.1212,-1.1375,-1.1511,-1.1667,-1.1736,-1.1607,-1.1143,-1.1483,-1.1219,-1.0549,-1.0593,-1.0328,-0.9822,-0.9638,-0.9578,-0.9363,-0.9312,-0.9233,-0.9073,-0.9037,-0.9055,-0.9123,-0.927,-0.9396,-0.9528,-0.9942,-1.0217,-1.0295,-1.0472,-1.0656,-1.0683,-1.0284,-1.0248,-1.0361,-0.9961,-0.9377,-0.9063,-0.8424,-0.7605,-0.6937,-0.6335,-0.5898,-0.5641,-0.5659,-0.582,-0.6144,-0.6502,-0.7038,-0.7667,-0.822,-0.8747,-0.9294,-0.9811,-1.0407,-1.0966,-1.1811,-1.2259,-1.2233,-1.2341,-1.2448,-1.2703,-1.2999,-1.3076,-1.2981,-1.3041,-1.3114,-1.308,-1.2843,-1.3007,-1.3133,-1.3135,-1.3126,-0.1974,-0.2289,-0.2871,-0.3229,-0.3408,-0.3808,-0.4121,-0.4391,-0.4612,-0.4835,-0.5193,-0.5594,-0.5947,-0.6251,-0.6567,-0.6881,-0.7234,-0.7602,-0.8134,-0.9176,-0.9694,-1.0204,-1.0131,-0.978,-0.9577,-0.9761,-0.9834,-0.996,-1.0091,-1.0217,-1.0294,-1.0511,-1.0727,-1.0814,-1.0895,-1.1025,-1.1154,-1.1419,-1.1419,-1.1424,-1.157,-1.1871,-1.1993,-1.191,-1.2042,-1.2078,-1.1986,-1.2118,-1.2075,-1.1866,-1.1699,-1.1429,-1.0819,-1.0684,-1.0424,-1.0072,-0.987,-0.9814,-0.9592,-0.9531,-0.9452,-0.9326,-0.9335,-0.9273,-0.9495,-0.9526,-0.9644,-0.9758,-1.0099,-1.0336,-1.0393,-1.05,-1.0468,-1.0332,-1.0115,-0.9978,-1.0018,-0.9535,-0.915,-0.8996,-0.8369,-0.7545,-0.7172,-0.6647,-0.6241,-0.6005,-0.6047,-0.6168,-0.6556,-0.6989,-0.7594,-0.8217,-0.875,-0.9317,-0.9907,-1.0522,-1.1302,-1.1774,-1.2577,-1.3094,-1.307,-1.3134,-1.3166,-1.3361,-1.3671,-1.3629,-1.3411,-1.3419,-1.3487,-1.3414,-1.3372,-1.3513,-1.3633,-1.3763,-1.4069,-0.2423,-0.2871,-0.3363,-0.3721,-0.3942,-0.4346,-0.4703,-0.5015,-0.5146,-0.5369,-0.5727,-0.608,-0.6432,-0.6741,-0.7098,-0.7455,-0.7915,-0.8557,-0.9356,-1.0204,-1.0707,-1.1165,-1.1431,-1.1146,-1.0954,-1.0855,-1.0804,-1.0852,-1.0958,-1.105,-1.1203,-1.1327,-1.1634,-1.18,-1.18,-1.1886,-1.2015,-1.2149,-1.2192,-1.2238,-1.2426,-1.2712,-1.2889,-1.2756,-1.2745,-1.2639,-1.2576,-1.2631,-1.2589,-1.2375,-1.2203,-1.1811,-1.1073,-1.0771,-1.0511,-1.0207,-1.0038,-0.9956,-0.9809,-0.9876,-0.9876,-0.9786,-0.9871,-1.0019,-1.0086,-1.0138,-1.0025,-1.004,-1.0126,-1.0291,-1.0258,-1.0254,-1.0147,-0.9872,-0.973,-0.9662,-0.9495,-0.9178,-0.899,-0.9052,-0.8388,-0.7827,-0.7332,-0.6941,-0.6698,-0.646,-0.6592,-0.6761,-0.725,-0.7694,-0.8192,-0.876,-0.9286,-0.9879,-1.0479,-1.1248,-1.2181,-1.2686,-1.3151,-1.3545,-1.3675,-1.3743,-1.3831,-1.3942,-1.3964,-1.3993,-1.3826,-1.3806,-1.3808,-1.3802,-1.3845,-1.394,-1.4129,-1.4476,-1.4885,-0.2868,-0.3496,-0.3808,-0.4166,-0.4612,-0.4926,-0.5282,-0.5594,-0.5683,-0.6035,-0.6302,-0.6517,-0.6962,-0.7272,-0.7672,-0.8032,-0.8726,-0.9642,-1.0565,-1.1295,-1.1822,-1.2277,-1.2559,-1.2736,-1.2752,-1.2276,-1.2022,-1.1947,-1.2004,-1.2123,-1.2192,-1.2279,-1.2599,-1.2673,-1.2729,-1.2796,-1.279,-1.2747,-1.2863,-1.3009,-1.331,-1.3585,-1.3761,-1.3686,-1.3503,-1.3287,-1.3181,-1.3094,-1.3009,-1.2833,-1.279,-1.2357,-1.1714,-1.103,-1.0684,-1.0376,-1.0168,-1.0067,-1.0053,-1.0188,-1.0274,-1.0294,-1.0501,-1.0631,-1.0636,-1.056,-1.043,-1.0248,-1.0222,-1.0251,-1.0045,-1.0089,-0.9853,-0.9589,-0.9463,-0.9301,-0.9119,-0.9022,-0.9096,-0.9057,-0.8586,-0.8066,-0.768,-0.7334,-0.7115,-0.7013,-0.7183,-0.7404,-0.7893,-0.8324,-0.8839,-0.9334,-0.9857,-1.0687,-1.1341,-1.1908,-1.2832,-1.3283,-1.374,-1.3907,-1.4113,-1.4017,-1.4024,-1.4046,-1.4075,-1.4062,-1.4097,-1.4079,-1.4079,-1.4166,-1.4357,-1.4572,-1.4862,-1.5247,-1.5662,-0.4253,-0.4741,-0.5186,-0.5547,-0.5861,-0.6263,-0.6453,-0.6615,-0.6941,-0.7183,-0.7282,-0.7547,-0.7742,-0.8,-0.8072,-0.8726,-0.9818,-1.0801,-1.1641,-1.2464,-1.2969,-1.3498,-1.4103,-1.4283,-1.4558,-1.4497,-1.3758,-1.3121,-1.3085,-1.3207,-1.3276,-1.3067,-1.3299,-1.3392,-1.3286,-1.3192,-1.3406,-1.3512,-1.362,-1.3791,-1.4209,-1.4604,-1.4779,-1.4698,-1.4505,-1.4119,-1.3671,-1.3483,-1.3313,-1.3264,-1.3094,-1.2966,-1.2577,-1.1757,-1.1154,-1.0766,-1.0424,-1.0294,-1.0299,-1.0299,-1.0337,-1.0381,-1.0598,-1.0733,-1.0692,-1.0708,-1.0679,-1.0543,-1.0404,-1.0351,-1.0469,-1.0331,-1.0145,-0.9956,-0.9812,-0.9711,-0.9487,-0.9326,-0.9146,-0.9051,-0.8671,-0.8372,-0.8113,-0.7893,-0.7764,-0.772,-0.7848,-0.8157,-0.8552,-0.8951,-0.9323,-0.9879,-1.0448,-1.1343,-1.2291,-1.2772,-1.3387,-1.3683,-1.4005,-1.4233,-1.4315,-1.4182,-1.4135,-1.4341,-1.4224,-1.4124,-1.4159,-1.425,-1.437,-1.4454,-1.4817,-1.5193,-1.56,-1.5951,-1.6485,-0.4822,-0.532,-0.5679,-0.6079,-0.6542,-0.692,-0.7197,-0.7426,-0.7647,-0.7829,-0.8011,-0.8238,-0.8465,-0.8733,-0.9145,-1.0072,-1.1305,-1.1879,-1.2791,-1.3661,-1.4082,-1.4497,-1.5127,-1.5282,-1.5505,-1.5617,-1.5157,-1.4654,-1.4395,-1.4456,-1.4436,-1.4415,-1.4509,-1.4568,-1.4429,-1.4425,-1.4445,-1.4526,-1.4573,-1.4808,-1.5359,-1.5911,-1.6053,-1.5732,-1.5534,-1.5168,-1.4542,-1.437,-1.4159,-1.3942,-1.3737,-1.3483,-1.3137,-1.2662,-1.1972,-1.1456,-1.0939,-1.0684,-1.0684,-1.0689,-1.0699,-1.0694,-1.0868,-1.0997,-1.102,-1.1112,-1.1075,-1.0939,-1.0602,-1.0469,-1.056,-1.053,-1.0305,-1.008,-1.0004,-0.986,-0.9571,-0.9508,-0.9344,-0.9126,-0.8923,-0.8715,-0.86,-0.8468,-0.8424,-0.8468,-0.8556,-0.8863,-0.9213,-0.9519,-0.9825,-1.0435,-1.1022,-1.2006,-1.2886,-1.3398,-1.3862,-1.4136,-1.4326,-1.4556,-1.4646,-1.4609,-1.466,-1.4828,-1.4629,-1.4385,-1.4306,-1.439,-1.4538,-1.4762,-1.5167,-1.5637,-1.6209,-1.669,-1.7265,-0.5489,-0.6034,-0.6216,-0.6688,-0.7242,-0.7537,-0.7912,-0.825,-0.838,-0.8602,-0.8808,-0.9029,-0.9296,-0.9722,-1.0547,-1.1604,-1.2914,-1.2993,-1.3877,-1.4668,-1.4979,-1.53,-1.5741,-1.5897,-1.619,-1.6825,-1.6822,-1.6511,-1.5816,-1.5748,-1.5763,-1.5673,-1.5845,-1.5885,-1.5772,-1.5472,-1.5673,-1.5694,-1.5722,-1.6019,-1.6742,-1.7296,-1.7294,-1.675,-1.6624,-1.6161,-1.5378,-1.5166,-1.4915,-1.4622,-1.4377,-1.4124,-1.3688,-1.3392,-1.3009,-1.2357,-1.1628,-1.1284,-1.116,-1.1165,-1.1132,-1.117,-1.1305,-1.1397,-1.1478,-1.1574,-1.1642,-1.1394,-1.1054,-1.0838,-1.0903,-1.074,-1.0511,-1.0274,-1.0161,-1.0027,-0.9726,-0.9606,-0.9653,-0.9461,-0.92,-0.9109,-0.9003,-0.8907,-0.8863,-0.9034,-0.9122,-0.934,-0.9689,-0.9951,-1.0318,-1.0966,-1.1652,-1.261,-1.3385,-1.3894,-1.4298,-1.4635,-1.477,-1.4881,-1.4993,-1.5064,-1.5218,-1.5318,-1.5189,-1.4954,-1.4745,-1.4788,-1.5191,-1.5533,-1.5692,-1.6193,-1.6966,-1.7621,-1.8254,-0.6932,-0.7369,-0.761,-0.8092,-0.8531,-0.8726,-0.9049,-0.9299,-0.9499,-0.9837,-0.9979,-1.0134,-1.052,-1.1215,-1.2091,-1.2742,-1.3362,-1.4039,-1.4798,-1.553,-1.5829,-1.6317,-1.7019,-1.7174,-1.7389,-1.783,-1.8138,-1.7702,-1.7134,-1.7011,-1.6888,-1.6752,-1.6686,-1.6689,-1.6558,-1.6433,-1.6345,-1.6477,-1.6668,-1.7129,-1.7842,-1.8349,-1.8165,-1.7741,-1.7308,-1.6872,-1.6095,-1.5824,-1.5484,-1.5124,-1.4999,-1.4741,-1.4356,-1.4117,-1.3822,-1.3307,-1.2577,-1.18,-1.172,-1.1682,-1.1639,-1.1682,-1.1823,-1.1909,-1.1952,-1.1952,-1.1972,-1.1923,-1.1511,-1.1319,-1.1354,-1.1173,-1.0911,-1.0699,-1.0554,-1.0318,-1.0014,-0.9828,-0.9876,-0.9889,-0.9708,-0.9542,-0.9424,-0.9362,-0.9305,-0.9519,-0.9738,-0.997,-1.0309,-1.066,-1.1154,-1.18,-1.2426,-1.3349,-1.3925,-1.4443,-1.481,-1.5109,-1.5208,-1.5287,-1.549,-1.5682,-1.5718,-1.5802,-1.5704,-1.5847,-1.5928,-1.6016,-1.6162,-1.6365,-1.6698,-1.7263,-1.7927,-1.8596,-1.9187,-0.7808,-0.7808,-0.805,-0.8582,-0.9244,-0.934,-0.9629,-1.0018,-1.0306,-1.0498,-1.069,-1.112,-1.1735,-1.2561,-1.3102,-1.3731,-1.4448,-1.4994,-1.5706,-1.6333,-1.6682,-1.7051,-1.7676,-1.7838,-1.8155,-1.8612,-1.8808,-1.887,-1.8427,-1.8064,-1.7833,-1.7612,-1.7628,-1.7644,-1.7515,-1.7438,-1.7552,-1.7817,-1.8207,-1.8615,-1.8907,-1.9006,-1.8904,-1.8387,-1.7932,-1.7349,-1.6832,-1.6558,-1.627,-1.5914,-1.5748,-1.545,-1.5026,-1.4741,-1.4496,-1.4062,-1.3675,-1.3124,-1.2577,-1.2406,-1.2277,-1.2277,-1.2369,-1.2454,-1.2546,-1.2503,-1.2418,-1.2412,-1.2105,-1.1935,-1.1875,-1.1599,-1.1348,-1.1139,-1.1024,-1.0691,-1.0382,-1.0255,-1.0154,-1.0168,-1.0226,-1.0186,-1.0151,-1.0152,-1.0099,-1.0182,-1.049,-1.0863,-1.1245,-1.1697,-1.2254,-1.2872,-1.3462,-1.4096,-1.4501,-1.4976,-1.5351,-1.5623,-1.5797,-1.5923,-1.6137,-1.6283,-1.6384,-1.6713,-1.6976,-1.7061,-1.713,-1.7056,-1.6971,-1.7314,-1.7719,-1.8327,-1.8896,-1.9478,-2.0079,-0.8335,-0.8147,-0.8512,-0.9161,-0.9821,-0.9875,-1.0158,-1.0605,-1.0886,-1.1091,-1.1438,-1.2155,-1.3071,-1.3703,-1.407,-1.4767,-1.5732,-1.5917,-1.6523,-1.7113,-1.7452,-1.7706,-1.8123,-1.831,-1.8589,-1.9058,-1.929,-1.9404,-1.9396,-1.9188,-1.8858,-1.8504,-1.8495,-1.8557,-1.8648,-1.8589,-1.8587,-1.8975,-1.9327,-1.9545,-1.9639,-1.9531,-1.9263,-1.8863,-1.8482,-1.7971,-1.7523,-1.7294,-1.7098,-1.6689,-1.6368,-1.5989,-1.5484,-1.5284,-1.4999,-1.4692,-1.4433,-1.4307,-1.376,-1.3379,-1.3094,-1.2966,-1.2966,-1.3094,-1.3264,-1.3094,-1.296,-1.2966,-1.2693,-1.2479,-1.2289,-1.2069,-1.1819,-1.163,-1.1462,-1.1079,-1.0798,-1.0833,-1.0834,-1.0865,-1.097,-1.113,-1.1065,-1.1047,-1.1006,-1.0908,-1.1196,-1.1718,-1.2243,-1.278,-1.3179,-1.3759,-1.4262,-1.4798,-1.5114,-1.5485,-1.5866,-1.6155,-1.6278,-1.6487,-1.6706,-1.6987,-1.7177,-1.7561,-1.7986,-1.8141,-1.8102,-1.792,-1.7783,-1.8213,-1.8665,-1.9242,-1.9805,-2.0395,-2.0818,-0.8445,-0.8703,-0.9506,-0.9981,-1.0306,-1.0605,-1.0855,-1.1145,-1.1389,-1.1829,-1.2414,-1.348,-1.4154,-1.4682,-1.5207,-1.5838,-1.6536,-1.6986,-1.7356,-1.7646,-1.7946,-1.8264,-1.8621,-1.8829,-1.9104,-1.9654,-1.9837,-1.9882,-1.9928,-2.0065,-1.9799,-1.9541,-1.9387,-1.9487,-1.9484,-1.943,-1.9472,-1.9723,-1.9924,-1.9982,-1.9965,-1.9825,-1.9585,-1.9285,-1.9085,-1.8868,-1.8348,-1.804,-1.7716,-1.731,-1.6943,-1.6402,-1.594,-1.5733,-1.545,-1.5249,-1.5193,-1.5173,-1.4951,-1.4348,-1.3913,-1.3737,-1.3646,-1.3737,-1.3906,-1.3786,-1.3659,-1.3625,-1.347,-1.3292,-1.2998,-1.2698,-1.258,-1.2443,-1.2303,-1.1993,-1.1779,-1.1674,-1.1682,-1.1608,-1.1731,-1.197,-1.2391,-1.2439,-1.2063,-1.1952,-1.2451,-1.295,-1.3473,-1.3967,-1.4106,-1.4536,-1.5036,-1.5456,-1.5684,-1.5988,-1.6304,-1.6579,-1.6763,-1.7012,-1.7232,-1.7527,-1.79,-1.8172,-1.8542,-1.8819,-1.908,-1.8982,-1.8975,-1.9216,-1.96,-2.0052,-2.0473,-2.0971,-2.1291,-0.8555,-0.885,-0.9571,-0.9979,-1.0237,-1.0649,-1.1051,-1.1438,-1.1731,-1.2414,-1.3383,-1.4154,-1.4879,-1.5404,-1.5967,-1.6534,-1.7052,-1.7394,-1.7768,-1.8141,-1.8465,-1.8735,-1.9012,-1.9333,-1.9654,-1.9973,-2.0201,-2.0382,-2.0428,-2.06,-2.0645,-2.0428,-2.0255,-2.0164,-2.0167,-2.014,-2.0162,-2.0174,-2.0262,-2.0289,-2.0285,-2.0123,-1.9989,-1.9861,-1.9201,-1.9021,-1.8732,-1.8531,-1.821,-1.7838,-1.7473,-1.6959,-1.6441,-1.6275,-1.605,-1.5857,-1.5899,-1.6016,-1.5973,-1.531,-1.4629,-1.4405,-1.4321,-1.439,-1.4621,-1.4569,-1.453,-1.4468,-1.4439,-1.4342,-1.4189,-1.3862,-1.359,-1.3511,-1.3285,-1.2977,-1.2825,-1.2768,-1.2733,-1.2802,-1.2911,-1.3049,-1.3496,-1.3888,-1.3418,-1.3048,-1.363,-1.4207,-1.4731,-1.5093,-1.5258,-1.5351,-1.5833,-1.6082,-1.6298,-1.6541,-1.6791,-1.7019,-1.7254,-1.7481,-1.7761,-1.8179,-1.8504,-1.8819,-1.9096,-1.9371,-1.9646,-1.992,-2.0011,-1.9874,-2.0192,-2.0782,-2.1212,-2.1508,-2.1597,-0.8567,-0.8898,-0.9483,-0.9901,-1.0186,-1.0725,-1.1157,-1.1555,-1.2047,-1.2948,-1.4148,-1.4777,-1.5404,-1.6015,-1.6494,-1.7052,-1.7473,-1.7807,-1.8187,-1.8558,-1.8827,-1.9096,-1.9463,-1.9783,-2.0065,-2.0201,-2.051,-2.0781,-2.0925,-2.1096,-2.123,-2.1186,-2.1042,-2.1006,-2.0693,-2.0695,-2.0604,-2.0645,-2.0537,-2.0523,-2.05,-2.0238,-2.0105,-2.0018,-1.9537,-1.9366,-1.924,-1.9042,-1.8723,-1.8365,-1.8053,-1.7663,-1.7293,-1.701,-1.6907,-1.6831,-1.6778,-1.693,-1.6846,-1.6262,-1.5581,-1.5561,-1.5426,-1.5454,-1.5454,-1.5598,-1.559,-1.5393,-1.548,-1.5531,-1.5263,-1.4787,-1.4636,-1.4559,-1.4391,-1.4083,-1.4062,-1.4009,-1.3979,-1.4013,-1.4192,-1.4418,-1.4947,-1.5385,-1.5133,-1.4818,-1.5252,-1.5677,-1.5938,-1.6248,-1.6329,-1.6458,-1.6593,-1.681,-1.6965,-1.7142,-1.7305,-1.7535,-1.7768,-1.8001,-1.8326,-1.8689,-1.9058,-1.9333,-1.9608,-1.9882,-2.0155,-2.0329,-2.0337,-2.0201,-2.0699,-2.1195,-2.1374,-2.1642,-2.1642,-0.8524,-0.8937,-0.9423,-0.9835,-1.0297,-1.0953,-1.1282,-1.1539,-1.2416,-1.3465,-1.4589,-1.5319,-1.5934,-1.6451,-1.6768,-1.7265,-1.7803,-1.8087,-1.8449,-1.8932,-1.9263,-1.95,-1.9828,-2.0155,-2.0473,-2.0699,-2.0961,-2.1195,-2.1437,-2.1642,-2.182,-2.2043,-2.2033,-2.1811,-2.1096,-2.1056,-2.1058,-2.1016,-2.0735,-2.058,-2.046,-2.0216,-2.0093,-2.0036,-1.988,-1.9784,-1.9827,-1.951,-1.9267,-1.9102,-1.8765,-1.8346,-1.7954,-1.8074,-1.8061,-1.7999,-1.8169,-1.8313,-1.8362,-1.7363,-1.7026,-1.6824,-1.6611,-1.662,-1.6841,-1.6881,-1.6676,-1.65,-1.6418,-1.6195,-1.584,-1.5638,-1.5781,-1.5787,-1.562,-1.5444,-1.5385,-1.5391,-1.5398,-1.5458,-1.5698,-1.6001,-1.6474,-1.6811,-1.6732,-1.6747,-1.6987,-1.7145,-1.716,-1.7287,-1.7316,-1.7421,-1.749,-1.7618,-1.7783,-1.7722,-1.7866,-1.8086,-1.8264,-1.8543,-1.8736,-1.902,-1.9342,-1.9708,-1.9973,-2.0201,-2.0473,-2.0699,-2.0699,-2.0789,-2.1032,-2.1392,-2.1607,-2.1731,-2.1785,-0.9078,-0.9393,-0.9719,-1.0093,-1.0513,-1.0859,-1.1285,-1.1899,-1.2811,-1.3733,-1.455,-1.5192,-1.5829,-1.638,-1.6913,-1.7379,-1.785,-1.8401,-1.881,-1.9106,-1.955,-1.9948,-2.0246,-2.0555,-2.088,-2.1159,-2.1383,-2.1722,-2.2087,-2.2309,-2.253,-2.275,-2.2828,-2.252,-2.1926,-2.1543,-2.1147,-2.1039,-2.0692,-2.0397,-2.0446,-2.0409,-2.0381,-2.0391,-2.0283,-2.0359,-2.0529,-2.0188,-1.9968,-1.9916,-1.9536,-1.9117,-1.8761,-1.8809,-1.8636,-1.8671,-1.88,-1.8987,-1.9259,-1.9004,-1.8608,-1.8125,-1.7675,-1.7691,-1.762,-1.7752,-1.7681,-1.7745,-1.7787,-1.7705,-1.7758,-1.7561,-1.7528,-1.7436,-1.7289,-1.7025,-1.6958,-1.6919,-1.6951,-1.703,-1.721,-1.7404,-1.7763,-1.7995,-1.7925,-1.7785,-1.7907,-1.7867,-1.7828,-1.803,-1.819,-1.8281,-1.8396,-1.8542,-1.8598,-1.855,-1.8531,-1.8682,-1.8856,-1.9043,-1.9204,-1.9418,-1.962,-1.9975,-2.0244,-2.0473,-2.0744,-2.097,-2.1195,-2.1383,-2.1482,-2.1571,-2.1696,-2.1874,-2.1963,-0.9646,-0.9864,-1.012,-1.0463,-1.0827,-1.1085,-1.1689,-1.2575,-1.3462,-1.4179,-1.4815,-1.539,-1.5938,-1.647,-1.6984,-1.7342,-1.7731,-1.823,-1.894,-1.9232,-1.9771,-2.0273,-2.0692,-2.1051,-2.1374,-2.1651,-2.1963,-2.2309,-2.2608,-2.2969,-2.3309,-2.3527,-2.3527,-2.3363,-2.2843,-2.2306,-2.1686,-2.1543,-2.1226,-2.1012,-2.1032,-2.1044,-2.1194,-2.1203,-2.1183,-2.1222,-2.1196,-2.1036,-2.0743,-2.0629,-2.0352,-1.9902,-1.9635,-1.9513,-1.9425,-1.9591,-1.9756,-2.0097,-2.0545,-2.0731,-2.0288,-1.9719,-1.9073,-1.8764,-1.8737,-1.8958,-1.9048,-1.9157,-1.929,-1.9225,-1.9172,-1.8978,-1.8939,-1.8846,-1.8666,-1.8388,-1.8311,-1.8319,-1.8365,-1.8458,-1.8582,-1.8759,-1.8913,-1.9014,-1.913,-1.89,-1.8722,-1.8668,-1.8542,-1.8766,-1.8918,-1.8987,-1.9105,-1.9167,-1.9246,-1.9346,-1.9333,-1.9295,-1.9471,-1.9597,-1.9792,-2.0025,-2.0108,-2.0217,-2.0468,-2.0725,-2.0979,-2.1203,-2.1472,-2.1651,-2.175,-2.1785,-2.183,-2.1963,-2.2141,-1.0159,-1.0376,-1.0549,-1.0939,-1.137,-1.1762,-1.2478,-1.3504,-1.4174,-1.4743,-1.5321,-1.5891,-1.6301,-1.6674,-1.7177,-1.7486,-1.7762,-1.807,-1.8779,-1.9468,-1.993,-2.0572,-2.1194,-2.1659,-2.1989,-2.2274,-2.2583,-2.2969,-2.3188,-2.3744,-2.4166,-2.4423,-2.4348,-2.4229,-2.3798,-2.3255,-2.2585,-2.2275,-2.1924,-2.1763,-2.1755,-2.1935,-2.1967,-2.1998,-2.2109,-2.2107,-2.2093,-2.1894,-2.1518,-2.1311,-2.1072,-2.0855,-2.0773,-2.0838,-2.0962,-2.1096,-2.1203,-2.1586,-2.1852,-2.2006,-2.1996,-2.1396,-2.0855,-2.0557,-2.0277,-2.0169,-2.0249,-2.0352,-2.0429,-2.0245,-2.0099,-2.008,-2.0115,-1.9961,-1.982,-1.9686,-1.9629,-1.962,-1.9712,-1.9783,-1.9895,-2.0029,-2.005,-2.0168,-2.0017,-1.9883,-1.9718,-1.9661,-1.9563,-1.9402,-1.9558,-1.9615,-1.967,-1.9726,-1.9815,-1.9966,-2.0011,-1.9924,-2.0079,-2.0208,-2.0439,-2.0551,-2.061,-2.0686,-2.0728,-2.0941,-2.1212,-2.1517,-2.1741,-2.1874,-2.1963,-2.2052,-2.2087,-2.2185,-2.2318,-1.0921,-1.1322,-1.1499,-1.1843,-1.2369,-1.3102,-1.3527,-1.3676,-1.4071,-1.4629,-1.5368,-1.5587,-1.6127,-1.6698,-1.6823,-1.7348,-1.7813,-1.8313,-1.8935,-1.9551,-2.0318,-2.103,-2.168,-2.2202,-2.2658,-2.3057,-2.3406,-2.3711,-2.4143,-2.4658,-2.5126,-2.5422,-2.5158,-2.5031,-2.4691,-2.4277,-2.3606,-2.3048,-2.2689,-2.2517,-2.2479,-2.2612,-2.2654,-2.2664,-2.2756,-2.2774,-2.2695,-2.2525,-2.2252,-2.226,-2.1948,-2.1734,-2.1717,-2.1587,-2.1588,-2.2024,-2.2334,-2.2687,-2.2784,-2.2828,-2.2818,-2.2818,-2.229,-2.1731,-2.1401,-2.1309,-2.1423,-2.1432,-2.1635,-2.1546,-2.1587,-2.1616,-2.1529,-2.1398,-2.1276,-2.1215,-2.1107,-2.1029,-2.1075,-2.1018,-2.1125,-2.1104,-2.1147,-2.0921,-2.0783,-2.0743,-2.0647,-2.0571,-2.0379,-2.0182,-2.0108,-2.0116,-2.0129,-2.0177,-2.031,-2.0428,-2.0506,-2.057,-2.067,-2.0761,-2.0913,-2.101,-2.1053,-2.1142,-2.1241,-2.1347,-2.1517,-2.1776,-2.1963,-2.2087,-2.2176,-2.222,-2.2309,-2.2441,-2.2539,-1.1415,-1.1891,-1.2205,-1.2771,-1.3542,-1.4068,-1.437,-1.4489,-1.458,-1.4943,-1.5394,-1.5797,-1.6229,-1.6721,-1.7098,-1.7555,-1.7978,-1.8516,-1.9167,-1.9929,-2.0735,-2.1504,-2.2183,-2.2794,-2.3377,-2.3764,-2.409,-2.4444,-2.4914,-2.5411,-2.5874,-2.6093,-2.5915,-2.5653,-2.5401,-2.5031,-2.4587,-2.4062,-2.3626,-2.3379,-2.3318,-2.3391,-2.3432,-2.3349,-2.3349,-2.3459,-2.3345,-2.3172,-2.3136,-2.3071,-2.2715,-2.2618,-2.252,-2.2353,-2.2397,-2.2838,-2.3091,-2.344,-2.3657,-2.3787,-2.3787,-2.3744,-2.358,-2.3101,-2.2533,-2.2236,-2.2354,-2.2427,-2.2758,-2.3007,-2.3174,-2.3248,-2.3081,-2.2876,-2.2859,-2.2795,-2.2638,-2.2473,-2.238,-2.2268,-2.2216,-2.2167,-2.1996,-2.1747,-2.1504,-2.1461,-2.1304,-2.1111,-2.0865,-2.0545,-2.0471,-2.0514,-2.0515,-2.0558,-2.0719,-2.0771,-2.0859,-2.096,-2.1177,-2.1288,-2.1409,-2.1613,-2.173,-2.1778,-2.1768,-2.1898,-2.2061,-2.1974,-2.2097,-2.2293,-2.2489,-2.2549,-2.2637,-2.2662,-2.2803,-1.1816,-1.2311,-1.2785,-1.3639,-1.4594,-1.4663,-1.5051,-1.5655,-1.5535,-1.553,-1.5711,-1.6402,-1.6771,-1.7098,-1.7627,-1.8031,-1.8434,-1.8914,-1.9549,-2.0245,-2.0917,-2.1726,-2.2569,-2.3373,-2.3699,-2.4204,-2.467,-2.5062,-2.5505,-2.603,-2.6456,-2.6674,-2.6445,-2.6238,-2.6082,-2.5633,-2.5263,-2.5072,-2.4608,-2.4302,-2.4491,-2.466,-2.4818,-2.4595,-2.4575,-2.4616,-2.4294,-2.41,-2.398,-2.3677,-2.346,-2.3319,-2.3188,-2.3232,-2.3363,-2.3624,-2.3927,-2.4219,-2.4476,-2.4647,-2.4765,-2.4733,-2.4668,-2.4143,-2.3533,-2.3094,-2.309,-2.324,-2.3485,-2.3852,-2.407,-2.4307,-2.4298,-2.426,-2.4231,-2.4107,-2.3898,-2.3673,-2.3392,-2.3269,-2.2951,-2.2852,-2.2598,-2.2276,-2.18,-2.1929,-2.1769,-2.1489,-2.1302,-2.0944,-2.0814,-2.0842,-2.0731,-2.0719,-2.0719,-2.0822,-2.107,-2.1277,-2.1515,-2.1837,-2.2077,-2.2276,-2.2483,-2.2417,-2.2387,-2.2492,-2.262,-2.2644,-2.2664,-2.2755,-2.2878,-2.2959,-2.2964,-2.2974,-2.2925,-1.2635,-1.3331,-1.3815,-1.4295,-1.463,-1.4828,-1.5255,-1.5821,-1.6269,-1.6412,-1.6486,-1.6968,-1.7424,-1.7708,-1.8264,-1.8665,-1.9024,-1.9429,-1.9998,-2.0583,-2.1181,-2.1909,-2.2574,-2.3279,-2.3825,-2.449,-2.5083,-2.5681,-2.6419,-2.6857,-2.7156,-2.7464,-2.7156,-2.6816,-2.6704,-2.6207,-2.5843,-2.5759,-2.5422,-2.5084,-2.5073,-2.5062,-2.5073,-2.4988,-2.4988,-2.4828,-2.4497,-2.4282,-2.4067,-2.3764,-2.3764,-2.3667,-2.3667,-2.397,-2.4143,-2.4315,-2.4743,-2.5031,-2.52,-2.5327,-2.5411,-2.5285,-2.5084,-2.47,-2.4288,-2.3919,-2.376,-2.3955,-2.4202,-2.4644,-2.5012,-2.5274,-2.5469,-2.5486,-2.5513,-2.5269,-2.5036,-2.4733,-2.444,-2.403,-2.3657,-2.3394,-2.3125,-2.2698,-2.2299,-2.203,-2.1802,-2.1683,-2.1681,-2.1501,-2.1238,-2.1163,-2.0925,-2.0873,-2.0897,-2.1019,-2.1275,-2.1573,-2.1802,-2.2215,-2.2686,-2.2892,-2.301,-2.2997,-2.3021,-2.3149,-2.3345,-2.3529,-2.3532,-2.3426,-2.339,-2.345,-2.331,-2.3217,-2.3145,-1.2993,-1.3684,-1.4332,-1.4858,-1.5281,-1.5489,-1.5824,-1.6254,-1.6648,-1.6859,-1.7096,-1.7652,-1.8103,-1.8416,-1.8944,-1.9292,-1.9657,-2.0089,-2.0508,-2.0976,-2.1567,-2.2224,-2.2795,-2.3282,-2.4012,-2.4745,-2.5554,-2.6329,-2.7238,-2.7493,-2.7667,-2.7841,-2.7522,-2.7267,-2.7144,-2.6539,-2.6188,-2.6157,-2.5906,-2.5644,-2.5464,-2.5506,-2.5464,-2.538,-2.5253,-2.4999,-2.4786,-2.4529,-2.4358,-2.4229,-2.4229,-2.4391,-2.4519,-2.4775,-2.4914,-2.5115,-2.5411,-2.5832,-2.5853,-2.597,-2.5992,-2.5888,-2.585,-2.5605,-2.5398,-2.5091,-2.4821,-2.4925,-2.5179,-2.5585,-2.5819,-2.6068,-2.6098,-2.6106,-2.6086,-2.5938,-2.5716,-2.5505,-2.5064,-2.4532,-2.4137,-2.3673,-2.3267,-2.2567,-2.2266,-2.2333,-2.2097,-2.2119,-2.2135,-2.2305,-2.1958,-2.175,-2.1653,-2.1493,-2.1609,-2.1591,-2.1573,-2.1827,-2.2156,-2.2636,-2.312,-2.3377,-2.3581,-2.3648,-2.3732,-2.3823,-2.4003,-2.4228,-2.4119,-2.3939,-2.3952,-2.3968,-2.3744,-2.3559,-2.3598,-1.3287,-1.3791,-1.4562,-1.5373,-1.6129,-1.6183,-1.6472,-1.6877,-1.6924,-1.7123,-1.7569,-1.8339,-1.8662,-1.9052,-1.9504,-1.9816,-2.0196,-2.075,-2.1108,-2.144,-2.2102,-2.2552,-2.3118,-2.3768,-2.4381,-2.515,-2.6058,-2.6783,-2.762,-2.7777,-2.7869,-2.7921,-2.7708,-2.7441,-2.7196,-2.6828,-2.6479,-2.6271,-2.6074,-2.5948,-2.5906,-2.5895,-2.577,-2.5686,-2.557,-2.5401,-2.5126,-2.4903,-2.4786,-2.4786,-2.4796,-2.5072,-2.536,-2.5615,-2.584,-2.6031,-2.6405,-2.6637,-2.6665,-2.6847,-2.6802,-2.6794,-2.6764,-2.6606,-2.6367,-2.6161,-2.5896,-2.5849,-2.6064,-2.6241,-2.6483,-2.663,-2.664,-2.664,-2.6592,-2.6496,-2.6274,-2.6061,-2.5586,-2.5001,-2.447,-2.3985,-2.3356,-2.2653,-2.246,-2.2579,-2.2681,-2.2714,-2.2822,-2.3141,-2.3182,-2.2965,-2.2873,-2.2726,-2.2396,-2.2285,-2.2171,-2.2299,-2.263,-2.3149,-2.3569,-2.3876,-2.4184,-2.4359,-2.4444,-2.4526,-2.4641,-2.4811,-2.4662,-2.4531,-2.4585,-2.4582,-2.4209,-2.4092,-2.4228,-1.4029,-1.4661,-1.5179,-1.5728,-1.6252,-1.6297,-1.6768,-1.7406,-1.7324,-1.7546,-1.7998,-1.8502,-1.8923,-1.92,-1.9659,-2.0118,-2.0681,-2.1288,-2.1578,-2.1793,-2.2459,-2.2789,-2.3237,-2.396,-2.4634,-2.5589,-2.6535,-2.7324,-2.7867,-2.8099,-2.8231,-2.8311,-2.7962,-2.776,-2.7626,-2.7138,-2.6561,-2.6354,-2.6146,-2.5948,-2.6074,-2.6021,-2.5895,-2.577,-2.5696,-2.5559,-2.5422,-2.5253,-2.5158,-2.5158,-2.5349,-2.5786,-2.6236,-2.6656,-2.6895,-2.7124,-2.7514,-2.7665,-2.777,-2.777,-2.7736,-2.7579,-2.7468,-2.7173,-2.7004,-2.6857,-2.6601,-2.6352,-2.6465,-2.6418,-2.6638,-2.6798,-2.689,-2.7023,-2.7071,-2.6736,-2.6486,-2.6284,-2.5945,-2.5265,-2.4627,-2.4121,-2.3568,-2.3068,-2.2775,-2.2946,-2.3169,-2.3262,-2.372,-2.4017,-2.4324,-2.4192,-2.4052,-2.3483,-2.3026,-2.3046,-2.298,-2.3023,-2.3139,-2.363,-2.404,-2.444,-2.4716,-2.4903,-2.5099,-2.5218,-2.5353,-2.5446,-2.5358,-2.5265,-2.53,-2.5201,-2.4788,-2.457,-2.4707]}]]